<?xml version="1.0" encoding="UTF-8" standalone="no" ?>
<gpx xmlns="http://www.topografix.com/GPX/1/1" xmlns:xsi="http://www.w3.org/2001/XMLSchema-instance" xsi:schemaLocation="http://www.topografix.com/GPX/1/1 http://www.topografix.com/GPX/1/1/gpx.xsd" version="1.1" creator="VisuGPX - https://www.visugpx.com">
  <metadata>
    <name>Monte Ripa (Riepenspitze)</name>
    <desc><![CDATA[St-Magdalena - Monte Ripa (Riepenspitze)]]></desc>
  </metadata>
  <trk>
    <name><![CDATA[Riepen_Spitze_2017-02-26]]></name>
    <trkseg>
      <trkpt lat="46.83844" lon="12.25522">
        <ele>1532.96</ele>
        <time>2017-02-26T08:00:06Z</time>
      </trkpt>
      <trkpt lat="46.83844" lon="12.25522">
        <ele>1532.96</ele>
        <time>2017-02-26T08:00:07Z</time>
      </trkpt>
      <trkpt lat="46.83843" lon="12.25521">
        <ele>1532.48</ele>
        <time>2017-02-26T08:00:17Z</time>
      </trkpt>
      <trkpt lat="46.83845" lon="12.25521">
        <ele>1532.48</ele>
        <time>2017-02-26T08:00:31Z</time>
      </trkpt>
      <trkpt lat="46.83846" lon="12.25523">
        <ele>1532</ele>
        <time>2017-02-26T08:00:51Z</time>
      </trkpt>
      <trkpt lat="46.83843" lon="12.25522">
        <ele>1532</ele>
        <time>2017-02-26T08:01:03Z</time>
      </trkpt>
      <trkpt lat="46.83842" lon="12.25521">
        <ele>1531.52</ele>
        <time>2017-02-26T08:01:18Z</time>
      </trkpt>
      <trkpt lat="46.83841" lon="12.25525">
        <ele>1531.04</ele>
        <time>2017-02-26T08:01:59Z</time>
      </trkpt>
      <trkpt lat="46.8384" lon="12.25525">
        <ele>1531.04</ele>
        <time>2017-02-26T08:02:36Z</time>
      </trkpt>
      <trkpt lat="46.83844" lon="12.25525">
        <ele>1531.04</ele>
        <time>2017-02-26T08:03:19Z</time>
      </trkpt>
      <trkpt lat="46.83841" lon="12.25525">
        <ele>1531.04</ele>
        <time>2017-02-26T08:03:54Z</time>
      </trkpt>
      <trkpt lat="46.83839" lon="12.25528">
        <ele>1531.04</ele>
        <time>2017-02-26T08:04:36Z</time>
      </trkpt>
      <trkpt lat="46.8384" lon="12.25528">
        <ele>1531.04</ele>
        <time>2017-02-26T08:05:16Z</time>
      </trkpt>
      <trkpt lat="46.83841" lon="12.25527">
        <ele>1531.04</ele>
        <time>2017-02-26T08:05:45Z</time>
      </trkpt>
      <trkpt lat="46.83843" lon="12.25521">
        <ele>1531.04</ele>
        <time>2017-02-26T08:06:24Z</time>
      </trkpt>
      <trkpt lat="46.83842" lon="12.25518">
        <ele>1531.04</ele>
        <time>2017-02-26T08:06:45Z</time>
      </trkpt>
      <trkpt lat="46.83842" lon="12.25519">
        <ele>1531.04</ele>
        <time>2017-02-26T08:07:22Z</time>
      </trkpt>
      <trkpt lat="46.83846" lon="12.25522">
        <ele>1531.52</ele>
        <time>2017-02-26T08:07:59Z</time>
      </trkpt>
      <trkpt lat="46.83845" lon="12.25518">
        <ele>1531.52</ele>
        <time>2017-02-26T08:08:30Z</time>
      </trkpt>
      <trkpt lat="46.83844" lon="12.25518">
        <ele>1531.52</ele>
        <time>2017-02-26T08:08:51Z</time>
      </trkpt>
      <trkpt lat="46.83844" lon="12.25518">
        <ele>1531.52</ele>
        <time>2017-02-26T08:09:23Z</time>
      </trkpt>
      <trkpt lat="46.83845" lon="12.25521">
        <ele>1531.52</ele>
        <time>2017-02-26T08:09:50Z</time>
      </trkpt>
      <trkpt lat="46.83845" lon="12.25518">
        <ele>1531.52</ele>
        <time>2017-02-26T08:10:26Z</time>
      </trkpt>
      <trkpt lat="46.83845" lon="12.25518">
        <ele>1532.96</ele>
        <time>2017-02-26T08:10:46Z</time>
      </trkpt>
      <trkpt lat="46.83843" lon="12.2552">
        <ele>1532.96</ele>
        <time>2017-02-26T08:11:00Z</time>
      </trkpt>
      <trkpt lat="46.83842" lon="12.25523">
        <ele>1533.44</ele>
        <time>2017-02-26T08:11:14Z</time>
      </trkpt>
      <trkpt lat="46.83836" lon="12.25517">
        <ele>1532.96</ele>
        <time>2017-02-26T08:11:28Z</time>
      </trkpt>
      <trkpt lat="46.83836" lon="12.25515">
        <ele>1533.44</ele>
        <time>2017-02-26T08:11:44Z</time>
      </trkpt>
      <trkpt lat="46.83836" lon="12.25517">
        <ele>1532.96</ele>
        <time>2017-02-26T08:12:03Z</time>
      </trkpt>
      <trkpt lat="46.83836" lon="12.25517">
        <ele>1532.96</ele>
        <time>2017-02-26T08:12:21Z</time>
      </trkpt>
      <trkpt lat="46.83839" lon="12.25517">
        <ele>1532.48</ele>
        <time>2017-02-26T08:12:42Z</time>
      </trkpt>
      <trkpt lat="46.83838" lon="12.25518">
        <ele>1533.44</ele>
        <time>2017-02-26T08:12:49Z</time>
      </trkpt>
      <trkpt lat="46.83832" lon="12.25522">
        <ele>1533.92</ele>
        <time>2017-02-26T08:13:01Z</time>
      </trkpt>
      <trkpt lat="46.83827" lon="12.25532">
        <ele>1534.88</ele>
        <time>2017-02-26T08:13:14Z</time>
      </trkpt>
      <trkpt lat="46.83824" lon="12.25541">
        <ele>1535.36</ele>
        <time>2017-02-26T08:13:26Z</time>
      </trkpt>
      <trkpt lat="46.83821" lon="12.25549">
        <ele>1536.32</ele>
        <time>2017-02-26T08:13:34Z</time>
      </trkpt>
      <trkpt lat="46.83813" lon="12.25562">
        <ele>1537.29</ele>
        <time>2017-02-26T08:13:50Z</time>
      </trkpt>
      <trkpt lat="46.83808" lon="12.25566">
        <ele>1537.77</ele>
        <time>2017-02-26T08:14:00Z</time>
      </trkpt>
      <trkpt lat="46.83799" lon="12.25581">
        <ele>1539.69</ele>
        <time>2017-02-26T08:14:14Z</time>
      </trkpt>
      <trkpt lat="46.83793" lon="12.25591">
        <ele>1540.65</ele>
        <time>2017-02-26T08:14:25Z</time>
      </trkpt>
      <trkpt lat="46.83785" lon="12.2561">
        <ele>1542.09</ele>
        <time>2017-02-26T08:14:41Z</time>
      </trkpt>
      <trkpt lat="46.83783" lon="12.25614">
        <ele>1542.09</ele>
        <time>2017-02-26T08:14:45Z</time>
      </trkpt>
      <trkpt lat="46.83775" lon="12.25632">
        <ele>1544.01</ele>
        <time>2017-02-26T08:15:01Z</time>
      </trkpt>
      <trkpt lat="46.83768" lon="12.25646">
        <ele>1544.98</ele>
        <time>2017-02-26T08:15:15Z</time>
      </trkpt>
      <trkpt lat="46.83764" lon="12.25661">
        <ele>1546.9</ele>
        <time>2017-02-26T08:15:29Z</time>
      </trkpt>
      <trkpt lat="46.83761" lon="12.25667">
        <ele>1547.38</ele>
        <time>2017-02-26T08:15:43Z</time>
      </trkpt>
      <trkpt lat="46.83757" lon="12.25669">
        <ele>1546.42</ele>
        <time>2017-02-26T08:15:52Z</time>
      </trkpt>
      <trkpt lat="46.83755" lon="12.25672">
        <ele>1546.42</ele>
        <time>2017-02-26T08:15:55Z</time>
      </trkpt>
      <trkpt lat="46.8375" lon="12.25684">
        <ele>1547.38</ele>
        <time>2017-02-26T08:16:10Z</time>
      </trkpt>
      <trkpt lat="46.83749" lon="12.257">
        <ele>1548.34</ele>
        <time>2017-02-26T08:16:23Z</time>
      </trkpt>
      <trkpt lat="46.83748" lon="12.25713">
        <ele>1549.3</ele>
        <time>2017-02-26T08:16:36Z</time>
      </trkpt>
      <trkpt lat="46.83745" lon="12.25727">
        <ele>1550.74</ele>
        <time>2017-02-26T08:16:49Z</time>
      </trkpt>
      <trkpt lat="46.83742" lon="12.25742">
        <ele>1552.19</ele>
        <time>2017-02-26T08:17:04Z</time>
      </trkpt>
      <trkpt lat="46.83737" lon="12.25754">
        <ele>1553.15</ele>
        <time>2017-02-26T08:17:18Z</time>
      </trkpt>
      <trkpt lat="46.83733" lon="12.25768">
        <ele>1555.07</ele>
        <time>2017-02-26T08:17:32Z</time>
      </trkpt>
      <trkpt lat="46.83727" lon="12.25784">
        <ele>1558.43</ele>
        <time>2017-02-26T08:17:50Z</time>
      </trkpt>
      <trkpt lat="46.83726" lon="12.25798">
        <ele>1559.4</ele>
        <time>2017-02-26T08:18:03Z</time>
      </trkpt>
      <trkpt lat="46.83727" lon="12.25794">
        <ele>1559.4</ele>
        <time>2017-02-26T08:18:23Z</time>
      </trkpt>
      <trkpt lat="46.83725" lon="12.25792">
        <ele>1558.43</ele>
        <time>2017-02-26T08:18:52Z</time>
      </trkpt>
      <trkpt lat="46.83726" lon="12.25792">
        <ele>1561.32</ele>
        <time>2017-02-26T08:19:01Z</time>
      </trkpt>
      <trkpt lat="46.83726" lon="12.25791">
        <ele>1555.55</ele>
        <time>2017-02-26T08:19:02Z</time>
      </trkpt>
      <trkpt lat="46.83726" lon="12.25792">
        <ele>1562.76</ele>
        <time>2017-02-26T08:19:03Z</time>
      </trkpt>
      <trkpt lat="46.83726" lon="12.25792">
        <ele>1558.92</ele>
        <time>2017-02-26T08:19:04Z</time>
      </trkpt>
      <trkpt lat="46.83726" lon="12.25793">
        <ele>1559.4</ele>
        <time>2017-02-26T08:19:21Z</time>
      </trkpt>
      <trkpt lat="46.83725" lon="12.25793">
        <ele>1558.43</ele>
        <time>2017-02-26T08:19:43Z</time>
      </trkpt>
      <trkpt lat="46.83725" lon="12.25794">
        <ele>1559.88</ele>
        <time>2017-02-26T08:20:08Z</time>
      </trkpt>
      <trkpt lat="46.83726" lon="12.25794">
        <ele>1559.88</ele>
        <time>2017-02-26T08:20:28Z</time>
      </trkpt>
      <trkpt lat="46.83726" lon="12.25795">
        <ele>1559.88</ele>
        <time>2017-02-26T08:20:47Z</time>
      </trkpt>
      <trkpt lat="46.83725" lon="12.25794">
        <ele>1559.88</ele>
        <time>2017-02-26T08:21:12Z</time>
      </trkpt>
      <trkpt lat="46.83725" lon="12.25792">
        <ele>1559.88</ele>
        <time>2017-02-26T08:21:47Z</time>
      </trkpt>
      <trkpt lat="46.83724" lon="12.25795">
        <ele>1559.88</ele>
        <time>2017-02-26T08:22:07Z</time>
      </trkpt>
      <trkpt lat="46.83725" lon="12.25798">
        <ele>1559.88</ele>
        <time>2017-02-26T08:22:17Z</time>
      </trkpt>
      <trkpt lat="46.83722" lon="12.258">
        <ele>1560.36</ele>
        <time>2017-02-26T08:22:24Z</time>
      </trkpt>
      <trkpt lat="46.8372" lon="12.25802">
        <ele>1560.36</ele>
        <time>2017-02-26T08:22:26Z</time>
      </trkpt>
      <trkpt lat="46.83715" lon="12.25815">
        <ele>1561.8</ele>
        <time>2017-02-26T08:22:39Z</time>
      </trkpt>
      <trkpt lat="46.83715" lon="12.25818">
        <ele>1561.8</ele>
        <time>2017-02-26T08:22:41Z</time>
      </trkpt>
      <trkpt lat="46.83713" lon="12.25834">
        <ele>1563.24</ele>
        <time>2017-02-26T08:22:52Z</time>
      </trkpt>
      <trkpt lat="46.83712" lon="12.25842">
        <ele>1564.2</ele>
        <time>2017-02-26T08:22:58Z</time>
      </trkpt>
      <trkpt lat="46.83708" lon="12.25859">
        <ele>1565.64</ele>
        <time>2017-02-26T08:23:12Z</time>
      </trkpt>
      <trkpt lat="46.83706" lon="12.25876">
        <ele>1567.57</ele>
        <time>2017-02-26T08:23:26Z</time>
      </trkpt>
      <trkpt lat="46.83702" lon="12.2589">
        <ele>1569.49</ele>
        <time>2017-02-26T08:23:40Z</time>
      </trkpt>
      <trkpt lat="46.83698" lon="12.25905">
        <ele>1571.41</ele>
        <time>2017-02-26T08:23:55Z</time>
      </trkpt>
      <trkpt lat="46.83692" lon="12.25921">
        <ele>1572.85</ele>
        <time>2017-02-26T08:24:09Z</time>
      </trkpt>
      <trkpt lat="46.83687" lon="12.25936">
        <ele>1573.33</ele>
        <time>2017-02-26T08:24:22Z</time>
      </trkpt>
      <trkpt lat="46.83682" lon="12.25943">
        <ele>1574.3</ele>
        <time>2017-02-26T08:24:29Z</time>
      </trkpt>
      <trkpt lat="46.83673" lon="12.25955">
        <ele>1575.26</ele>
        <time>2017-02-26T08:24:41Z</time>
      </trkpt>
      <trkpt lat="46.83667" lon="12.25964">
        <ele>1576.22</ele>
        <time>2017-02-26T08:24:50Z</time>
      </trkpt>
      <trkpt lat="46.83667" lon="12.25967">
        <ele>1576.22</ele>
        <time>2017-02-26T08:24:52Z</time>
      </trkpt>
      <trkpt lat="46.8366" lon="12.25982">
        <ele>1578.14</ele>
        <time>2017-02-26T08:25:06Z</time>
      </trkpt>
      <trkpt lat="46.83654" lon="12.25996">
        <ele>1580.06</ele>
        <time>2017-02-26T08:25:19Z</time>
      </trkpt>
      <trkpt lat="46.83647" lon="12.2601">
        <ele>1581.51</ele>
        <time>2017-02-26T08:25:33Z</time>
      </trkpt>
      <trkpt lat="46.83642" lon="12.26023">
        <ele>1583.43</ele>
        <time>2017-02-26T08:25:47Z</time>
      </trkpt>
      <trkpt lat="46.83638" lon="12.26038">
        <ele>1584.87</ele>
        <time>2017-02-26T08:26:00Z</time>
      </trkpt>
      <trkpt lat="46.83633" lon="12.26053">
        <ele>1586.79</ele>
        <time>2017-02-26T08:26:14Z</time>
      </trkpt>
      <trkpt lat="46.83629" lon="12.26069">
        <ele>1588.72</ele>
        <time>2017-02-26T08:26:30Z</time>
      </trkpt>
      <trkpt lat="46.83626" lon="12.26089">
        <ele>1590.64</ele>
        <time>2017-02-26T08:26:46Z</time>
      </trkpt>
      <trkpt lat="46.83617" lon="12.26101">
        <ele>1592.08</ele>
        <time>2017-02-26T08:27:01Z</time>
      </trkpt>
      <trkpt lat="46.8361" lon="12.26114">
        <ele>1594</ele>
        <time>2017-02-26T08:27:15Z</time>
      </trkpt>
      <trkpt lat="46.83602" lon="12.26128">
        <ele>1595.93</ele>
        <time>2017-02-26T08:27:30Z</time>
      </trkpt>
      <trkpt lat="46.83592" lon="12.26136">
        <ele>1598.33</ele>
        <time>2017-02-26T08:27:45Z</time>
      </trkpt>
      <trkpt lat="46.83581" lon="12.26143">
        <ele>1599.77</ele>
        <time>2017-02-26T08:28:00Z</time>
      </trkpt>
      <trkpt lat="46.8357" lon="12.26154">
        <ele>1601.69</ele>
        <time>2017-02-26T08:28:16Z</time>
      </trkpt>
      <trkpt lat="46.83561" lon="12.26165">
        <ele>1604.1</ele>
        <time>2017-02-26T08:28:31Z</time>
      </trkpt>
      <trkpt lat="46.83551" lon="12.26181">
        <ele>1606.02</ele>
        <time>2017-02-26T08:28:49Z</time>
      </trkpt>
      <trkpt lat="46.83545" lon="12.26194">
        <ele>1607.94</ele>
        <time>2017-02-26T08:29:03Z</time>
      </trkpt>
      <trkpt lat="46.83538" lon="12.2621">
        <ele>1609.86</ele>
        <time>2017-02-26T08:29:18Z</time>
      </trkpt>
      <trkpt lat="46.83533" lon="12.26226">
        <ele>1611.31</ele>
        <time>2017-02-26T08:29:33Z</time>
      </trkpt>
      <trkpt lat="46.83529" lon="12.26239">
        <ele>1613.23</ele>
        <time>2017-02-26T08:29:47Z</time>
      </trkpt>
      <trkpt lat="46.83523" lon="12.26249">
        <ele>1615.15</ele>
        <time>2017-02-26T08:30:01Z</time>
      </trkpt>
      <trkpt lat="46.83517" lon="12.26267">
        <ele>1617.07</ele>
        <time>2017-02-26T08:30:17Z</time>
      </trkpt>
      <trkpt lat="46.83511" lon="12.26281">
        <ele>1619</ele>
        <time>2017-02-26T08:30:32Z</time>
      </trkpt>
      <trkpt lat="46.83503" lon="12.26297">
        <ele>1620.92</ele>
        <time>2017-02-26T08:30:48Z</time>
      </trkpt>
      <trkpt lat="46.83495" lon="12.26309">
        <ele>1622.84</ele>
        <time>2017-02-26T08:31:02Z</time>
      </trkpt>
      <trkpt lat="46.83489" lon="12.26326">
        <ele>1624.77</ele>
        <time>2017-02-26T08:31:18Z</time>
      </trkpt>
      <trkpt lat="46.83481" lon="12.26339">
        <ele>1626.69</ele>
        <time>2017-02-26T08:31:34Z</time>
      </trkpt>
      <trkpt lat="46.83476" lon="12.26356">
        <ele>1628.61</ele>
        <time>2017-02-26T08:31:49Z</time>
      </trkpt>
      <trkpt lat="46.8347" lon="12.26369">
        <ele>1630.53</ele>
        <time>2017-02-26T08:32:03Z</time>
      </trkpt>
      <trkpt lat="46.83463" lon="12.2638">
        <ele>1631.98</ele>
        <time>2017-02-26T08:32:17Z</time>
      </trkpt>
      <trkpt lat="46.83454" lon="12.26388">
        <ele>1633.9</ele>
        <time>2017-02-26T08:32:31Z</time>
      </trkpt>
      <trkpt lat="46.83446" lon="12.26399">
        <ele>1635.82</ele>
        <time>2017-02-26T08:32:45Z</time>
      </trkpt>
      <trkpt lat="46.83438" lon="12.26412">
        <ele>1638.22</ele>
        <time>2017-02-26T08:33:02Z</time>
      </trkpt>
      <trkpt lat="46.83434" lon="12.26428">
        <ele>1640.15</ele>
        <time>2017-02-26T08:33:18Z</time>
      </trkpt>
      <trkpt lat="46.83429" lon="12.26442">
        <ele>1642.07</ele>
        <time>2017-02-26T08:33:33Z</time>
      </trkpt>
      <trkpt lat="46.83424" lon="12.26455">
        <ele>1643.99</ele>
        <time>2017-02-26T08:33:47Z</time>
      </trkpt>
      <trkpt lat="46.83418" lon="12.26469">
        <ele>1645.91</ele>
        <time>2017-02-26T08:34:01Z</time>
      </trkpt>
      <trkpt lat="46.83414" lon="12.26484">
        <ele>1647.36</ele>
        <time>2017-02-26T08:34:16Z</time>
      </trkpt>
      <trkpt lat="46.83412" lon="12.26501">
        <ele>1649.28</ele>
        <time>2017-02-26T08:34:30Z</time>
      </trkpt>
      <trkpt lat="46.83412" lon="12.26508">
        <ele>1649.28</ele>
        <time>2017-02-26T08:34:36Z</time>
      </trkpt>
      <trkpt lat="46.83411" lon="12.26518">
        <ele>1650.24</ele>
        <time>2017-02-26T08:34:43Z</time>
      </trkpt>
      <trkpt lat="46.83413" lon="12.2653">
        <ele>1651.68</ele>
        <time>2017-02-26T08:34:58Z</time>
      </trkpt>
      <trkpt lat="46.83415" lon="12.2653">
        <ele>1650.72</ele>
        <time>2017-02-26T08:35:12Z</time>
      </trkpt>
      <trkpt lat="46.83414" lon="12.26529">
        <ele>1650.72</ele>
        <time>2017-02-26T08:35:45Z</time>
      </trkpt>
      <trkpt lat="46.83416" lon="12.26529">
        <ele>1650.72</ele>
        <time>2017-02-26T08:36:17Z</time>
      </trkpt>
      <trkpt lat="46.83419" lon="12.26531">
        <ele>1650.72</ele>
        <time>2017-02-26T08:36:58Z</time>
      </trkpt>
      <trkpt lat="46.83413" lon="12.2653">
        <ele>1652.16</ele>
        <time>2017-02-26T08:37:09Z</time>
      </trkpt>
      <trkpt lat="46.83413" lon="12.26529">
        <ele>1651.68</ele>
        <time>2017-02-26T08:37:27Z</time>
      </trkpt>
      <trkpt lat="46.83413" lon="12.26532">
        <ele>1651.68</ele>
        <time>2017-02-26T08:37:44Z</time>
      </trkpt>
      <trkpt lat="46.83415" lon="12.26531">
        <ele>1652.16</ele>
        <time>2017-02-26T08:37:55Z</time>
      </trkpt>
      <trkpt lat="46.8342" lon="12.26546">
        <ele>1654.09</ele>
        <time>2017-02-26T08:38:10Z</time>
      </trkpt>
      <trkpt lat="46.8342" lon="12.26554">
        <ele>1655.05</ele>
        <time>2017-02-26T08:38:18Z</time>
      </trkpt>
      <trkpt lat="46.83426" lon="12.26567">
        <ele>1658.41</ele>
        <time>2017-02-26T08:38:31Z</time>
      </trkpt>
      <trkpt lat="46.83427" lon="12.26567">
        <ele>1656.49</ele>
        <time>2017-02-26T08:38:32Z</time>
      </trkpt>
      <trkpt lat="46.83432" lon="12.2658">
        <ele>1657.45</ele>
        <time>2017-02-26T08:38:45Z</time>
      </trkpt>
      <trkpt lat="46.83429" lon="12.26596">
        <ele>1659.85</ele>
        <time>2017-02-26T08:39:01Z</time>
      </trkpt>
      <trkpt lat="46.83425" lon="12.2661">
        <ele>1661.78</ele>
        <time>2017-02-26T08:39:15Z</time>
      </trkpt>
      <trkpt lat="46.83421" lon="12.26625">
        <ele>1664.18</ele>
        <time>2017-02-26T08:39:31Z</time>
      </trkpt>
      <trkpt lat="46.83421" lon="12.26638">
        <ele>1666.1</ele>
        <time>2017-02-26T08:39:46Z</time>
      </trkpt>
      <trkpt lat="46.83425" lon="12.26653">
        <ele>1667.54</ele>
        <time>2017-02-26T08:40:01Z</time>
      </trkpt>
      <trkpt lat="46.83426" lon="12.26656">
        <ele>1668.02</ele>
        <time>2017-02-26T08:40:03Z</time>
      </trkpt>
      <trkpt lat="46.83429" lon="12.26672">
        <ele>1669.47</ele>
        <time>2017-02-26T08:40:17Z</time>
      </trkpt>
      <trkpt lat="46.83434" lon="12.26686">
        <ele>1672.83</ele>
        <time>2017-02-26T08:40:32Z</time>
      </trkpt>
      <trkpt lat="46.83438" lon="12.26702">
        <ele>1672.83</ele>
        <time>2017-02-26T08:40:50Z</time>
      </trkpt>
      <trkpt lat="46.83441" lon="12.26715">
        <ele>1674.75</ele>
        <time>2017-02-26T08:41:04Z</time>
      </trkpt>
      <trkpt lat="46.83444" lon="12.2673">
        <ele>1675.72</ele>
        <time>2017-02-26T08:41:18Z</time>
      </trkpt>
      <trkpt lat="46.8345" lon="12.26743">
        <ele>1677.64</ele>
        <time>2017-02-26T08:41:34Z</time>
      </trkpt>
      <trkpt lat="46.83455" lon="12.26755">
        <ele>1679.56</ele>
        <time>2017-02-26T08:41:49Z</time>
      </trkpt>
      <trkpt lat="46.83459" lon="12.26766">
        <ele>1681.48</ele>
        <time>2017-02-26T08:42:04Z</time>
      </trkpt>
      <trkpt lat="46.83458" lon="12.2678">
        <ele>1683.41</ele>
        <time>2017-02-26T08:42:20Z</time>
      </trkpt>
      <trkpt lat="46.83457" lon="12.26792">
        <ele>1684.85</ele>
        <time>2017-02-26T08:42:34Z</time>
      </trkpt>
      <trkpt lat="46.83457" lon="12.26798">
        <ele>1686.29</ele>
        <time>2017-02-26T08:42:44Z</time>
      </trkpt>
      <trkpt lat="46.8346" lon="12.26805">
        <ele>1688.21</ele>
        <time>2017-02-26T08:42:59Z</time>
      </trkpt>
      <trkpt lat="46.83462" lon="12.26818">
        <ele>1689.17</ele>
        <time>2017-02-26T08:43:13Z</time>
      </trkpt>
      <trkpt lat="46.83462" lon="12.2683">
        <ele>1690.62</ele>
        <time>2017-02-26T08:43:29Z</time>
      </trkpt>
      <trkpt lat="46.83462" lon="12.26842">
        <ele>1692.54</ele>
        <time>2017-02-26T08:43:45Z</time>
      </trkpt>
      <trkpt lat="46.83461" lon="12.26859">
        <ele>1695.42</ele>
        <time>2017-02-26T08:44:06Z</time>
      </trkpt>
      <trkpt lat="46.8346" lon="12.26872">
        <ele>1697.34</ele>
        <time>2017-02-26T08:44:20Z</time>
      </trkpt>
      <trkpt lat="46.8346" lon="12.26879">
        <ele>1698.79</ele>
        <time>2017-02-26T08:44:36Z</time>
      </trkpt>
      <trkpt lat="46.83454" lon="12.26883">
        <ele>1699.27</ele>
        <time>2017-02-26T08:44:54Z</time>
      </trkpt>
      <trkpt lat="46.83453" lon="12.26898">
        <ele>1701.67</ele>
        <time>2017-02-26T08:45:15Z</time>
      </trkpt>
      <trkpt lat="46.83452" lon="12.26913">
        <ele>1704.07</ele>
        <time>2017-02-26T08:45:33Z</time>
      </trkpt>
      <trkpt lat="46.83451" lon="12.26926">
        <ele>1706</ele>
        <time>2017-02-26T08:45:53Z</time>
      </trkpt>
      <trkpt lat="46.83449" lon="12.26944">
        <ele>1707.44</ele>
        <time>2017-02-26T08:46:09Z</time>
      </trkpt>
      <trkpt lat="46.83444" lon="12.26956">
        <ele>1709.84</ele>
        <time>2017-02-26T08:46:27Z</time>
      </trkpt>
      <trkpt lat="46.83441" lon="12.26966">
        <ele>1711.76</ele>
        <time>2017-02-26T08:46:42Z</time>
      </trkpt>
      <trkpt lat="46.83437" lon="12.2698">
        <ele>1713.69</ele>
        <time>2017-02-26T08:46:59Z</time>
      </trkpt>
      <trkpt lat="46.83435" lon="12.26994">
        <ele>1716.09</ele>
        <time>2017-02-26T08:47:16Z</time>
      </trkpt>
      <trkpt lat="46.83434" lon="12.26994">
        <ele>1716.09</ele>
        <time>2017-02-26T08:47:35Z</time>
      </trkpt>
      <trkpt lat="46.83433" lon="12.26992">
        <ele>1716.09</ele>
        <time>2017-02-26T08:47:55Z</time>
      </trkpt>
      <trkpt lat="46.83434" lon="12.26994">
        <ele>1716.57</ele>
        <time>2017-02-26T08:48:18Z</time>
      </trkpt>
      <trkpt lat="46.83432" lon="12.26989">
        <ele>1716.57</ele>
        <time>2017-02-26T08:48:43Z</time>
      </trkpt>
      <trkpt lat="46.83434" lon="12.26994">
        <ele>1717.53</ele>
        <time>2017-02-26T08:48:58Z</time>
      </trkpt>
      <trkpt lat="46.83429" lon="12.26998">
        <ele>1718.01</ele>
        <time>2017-02-26T08:49:16Z</time>
      </trkpt>
      <trkpt lat="46.83429" lon="12.26999">
        <ele>1718.49</ele>
        <time>2017-02-26T08:49:17Z</time>
      </trkpt>
      <trkpt lat="46.83425" lon="12.27007">
        <ele>1718.97</ele>
        <time>2017-02-26T08:49:23Z</time>
      </trkpt>
      <trkpt lat="46.83423" lon="12.27011">
        <ele>1718.97</ele>
        <time>2017-02-26T08:49:27Z</time>
      </trkpt>
      <trkpt lat="46.83411" lon="12.27018">
        <ele>1718.49</ele>
        <time>2017-02-26T08:49:44Z</time>
      </trkpt>
      <trkpt lat="46.83411" lon="12.27023">
        <ele>1718.97</ele>
        <time>2017-02-26T08:49:50Z</time>
      </trkpt>
      <trkpt lat="46.83402" lon="12.27023">
        <ele>1719.94</ele>
        <time>2017-02-26T08:50:03Z</time>
      </trkpt>
      <trkpt lat="46.83398" lon="12.2703">
        <ele>1719.94</ele>
        <time>2017-02-26T08:50:14Z</time>
      </trkpt>
      <trkpt lat="46.83394" lon="12.27042">
        <ele>1721.38</ele>
        <time>2017-02-26T08:50:28Z</time>
      </trkpt>
      <trkpt lat="46.83388" lon="12.27052">
        <ele>1722.82</ele>
        <time>2017-02-26T08:50:42Z</time>
      </trkpt>
      <trkpt lat="46.8338" lon="12.27061">
        <ele>1724.26</ele>
        <time>2017-02-26T08:50:59Z</time>
      </trkpt>
      <trkpt lat="46.83373" lon="12.2707">
        <ele>1727.63</ele>
        <time>2017-02-26T08:51:15Z</time>
      </trkpt>
      <trkpt lat="46.83367" lon="12.27072">
        <ele>1730.03</ele>
        <time>2017-02-26T08:51:34Z</time>
      </trkpt>
      <trkpt lat="46.83364" lon="12.27065">
        <ele>1731.95</ele>
        <time>2017-02-26T08:51:50Z</time>
      </trkpt>
      <trkpt lat="46.83358" lon="12.27061">
        <ele>1734.36</ele>
        <time>2017-02-26T08:52:08Z</time>
      </trkpt>
      <trkpt lat="46.83353" lon="12.27072">
        <ele>1736.76</ele>
        <time>2017-02-26T08:52:24Z</time>
      </trkpt>
      <trkpt lat="46.8335" lon="12.27083">
        <ele>1738.68</ele>
        <time>2017-02-26T08:52:38Z</time>
      </trkpt>
      <trkpt lat="46.83346" lon="12.27094">
        <ele>1741.57</ele>
        <time>2017-02-26T08:52:56Z</time>
      </trkpt>
      <trkpt lat="46.83337" lon="12.27105">
        <ele>1743.49</ele>
        <time>2017-02-26T08:53:11Z</time>
      </trkpt>
      <trkpt lat="46.83329" lon="12.27113">
        <ele>1745.41</ele>
        <time>2017-02-26T08:53:28Z</time>
      </trkpt>
      <trkpt lat="46.83323" lon="12.27123">
        <ele>1747.33</ele>
        <time>2017-02-26T08:53:42Z</time>
      </trkpt>
      <trkpt lat="46.83316" lon="12.27138">
        <ele>1750.22</ele>
        <time>2017-02-26T08:54:02Z</time>
      </trkpt>
      <trkpt lat="46.83309" lon="12.27146">
        <ele>1752.14</ele>
        <time>2017-02-26T08:54:17Z</time>
      </trkpt>
      <trkpt lat="46.83305" lon="12.27149">
        <ele>1754.06</ele>
        <time>2017-02-26T08:54:30Z</time>
      </trkpt>
      <trkpt lat="46.833" lon="12.27161">
        <ele>1755.5</ele>
        <time>2017-02-26T08:54:46Z</time>
      </trkpt>
      <trkpt lat="46.83292" lon="12.27174">
        <ele>1757.91</ele>
        <time>2017-02-26T08:55:03Z</time>
      </trkpt>
      <trkpt lat="46.83287" lon="12.27183">
        <ele>1759.83</ele>
        <time>2017-02-26T08:55:19Z</time>
      </trkpt>
      <trkpt lat="46.83282" lon="12.27195">
        <ele>1762.23</ele>
        <time>2017-02-26T08:55:37Z</time>
      </trkpt>
      <trkpt lat="46.83274" lon="12.27208">
        <ele>1764.16</ele>
        <time>2017-02-26T08:55:56Z</time>
      </trkpt>
      <trkpt lat="46.83267" lon="12.27217">
        <ele>1766.56</ele>
        <time>2017-02-26T08:56:14Z</time>
      </trkpt>
      <trkpt lat="46.8326" lon="12.27228">
        <ele>1768.48</ele>
        <time>2017-02-26T08:56:29Z</time>
      </trkpt>
      <trkpt lat="46.83257" lon="12.27236">
        <ele>1770.41</ele>
        <time>2017-02-26T08:56:43Z</time>
      </trkpt>
      <trkpt lat="46.83253" lon="12.27246">
        <ele>1771.85</ele>
        <time>2017-02-26T08:56:57Z</time>
      </trkpt>
      <trkpt lat="46.83245" lon="12.27255">
        <ele>1774.73</ele>
        <time>2017-02-26T08:57:18Z</time>
      </trkpt>
      <trkpt lat="46.83239" lon="12.27264">
        <ele>1777.13</ele>
        <time>2017-02-26T08:57:35Z</time>
      </trkpt>
      <trkpt lat="46.83233" lon="12.27277">
        <ele>1779.54</ele>
        <time>2017-02-26T08:57:51Z</time>
      </trkpt>
      <trkpt lat="46.83229" lon="12.27285">
        <ele>1780.98</ele>
        <time>2017-02-26T08:58:06Z</time>
      </trkpt>
      <trkpt lat="46.83228" lon="12.27295">
        <ele>1782.9</ele>
        <time>2017-02-26T08:58:21Z</time>
      </trkpt>
      <trkpt lat="46.83226" lon="12.27304">
        <ele>1784.82</ele>
        <time>2017-02-26T08:58:36Z</time>
      </trkpt>
      <trkpt lat="46.83225" lon="12.2732">
        <ele>1787.23</ele>
        <time>2017-02-26T08:58:52Z</time>
      </trkpt>
      <trkpt lat="46.83224" lon="12.27336">
        <ele>1789.15</ele>
        <time>2017-02-26T08:59:10Z</time>
      </trkpt>
      <trkpt lat="46.83224" lon="12.27354">
        <ele>1791.55</ele>
        <time>2017-02-26T08:59:30Z</time>
      </trkpt>
      <trkpt lat="46.83224" lon="12.27366">
        <ele>1793.96</ele>
        <time>2017-02-26T08:59:46Z</time>
      </trkpt>
      <trkpt lat="46.83222" lon="12.27375">
        <ele>1795.88</ele>
        <time>2017-02-26T09:00:01Z</time>
      </trkpt>
      <trkpt lat="46.83219" lon="12.27378">
        <ele>1797.8</ele>
        <time>2017-02-26T09:00:17Z</time>
      </trkpt>
      <trkpt lat="46.83213" lon="12.27378">
        <ele>1799.73</ele>
        <time>2017-02-26T09:00:31Z</time>
      </trkpt>
      <trkpt lat="46.83212" lon="12.27396">
        <ele>1802.61</ele>
        <time>2017-02-26T09:00:44Z</time>
      </trkpt>
      <trkpt lat="46.8321" lon="12.27411">
        <ele>1803.09</ele>
        <time>2017-02-26T09:01:01Z</time>
      </trkpt>
      <trkpt lat="46.83209" lon="12.27427">
        <ele>1804.53</ele>
        <time>2017-02-26T09:01:15Z</time>
      </trkpt>
      <trkpt lat="46.83206" lon="12.27443">
        <ele>1806.45</ele>
        <time>2017-02-26T09:01:32Z</time>
      </trkpt>
      <trkpt lat="46.83203" lon="12.27458">
        <ele>1808.86</ele>
        <time>2017-02-26T09:01:49Z</time>
      </trkpt>
      <trkpt lat="46.83202" lon="12.2747">
        <ele>1810.78</ele>
        <time>2017-02-26T09:02:04Z</time>
      </trkpt>
      <trkpt lat="46.83196" lon="12.27484">
        <ele>1812.22</ele>
        <time>2017-02-26T09:02:17Z</time>
      </trkpt>
      <trkpt lat="46.8319" lon="12.27495">
        <ele>1813.66</ele>
        <time>2017-02-26T09:02:31Z</time>
      </trkpt>
      <trkpt lat="46.83187" lon="12.2751">
        <ele>1817.03</ele>
        <time>2017-02-26T09:02:45Z</time>
      </trkpt>
      <trkpt lat="46.83185" lon="12.27529">
        <ele>1817.51</ele>
        <time>2017-02-26T09:03:01Z</time>
      </trkpt>
      <trkpt lat="46.83185" lon="12.27545">
        <ele>1818.47</ele>
        <time>2017-02-26T09:03:13Z</time>
      </trkpt>
      <trkpt lat="46.83183" lon="12.27563">
        <ele>1819.43</ele>
        <time>2017-02-26T09:03:27Z</time>
      </trkpt>
      <trkpt lat="46.83181" lon="12.27574">
        <ele>1820.39</ele>
        <time>2017-02-26T09:03:42Z</time>
      </trkpt>
      <trkpt lat="46.83182" lon="12.27593">
        <ele>1821.35</ele>
        <time>2017-02-26T09:03:56Z</time>
      </trkpt>
      <trkpt lat="46.83183" lon="12.27606">
        <ele>1821.35</ele>
        <time>2017-02-26T09:04:09Z</time>
      </trkpt>
      <trkpt lat="46.83184" lon="12.27619">
        <ele>1821.35</ele>
        <time>2017-02-26T09:04:23Z</time>
      </trkpt>
      <trkpt lat="46.83191" lon="12.27618">
        <ele>1821.84</ele>
        <time>2017-02-26T09:04:32Z</time>
      </trkpt>
      <trkpt lat="46.83206" lon="12.27627">
        <ele>1819.91</ele>
        <time>2017-02-26T09:04:49Z</time>
      </trkpt>
      <trkpt lat="46.83217" lon="12.2763">
        <ele>1820.39</ele>
        <time>2017-02-26T09:04:59Z</time>
      </trkpt>
      <trkpt lat="46.83221" lon="12.27629">
        <ele>1820.87</ele>
        <time>2017-02-26T09:05:03Z</time>
      </trkpt>
      <trkpt lat="46.83231" lon="12.27618">
        <ele>1819.91</ele>
        <time>2017-02-26T09:05:19Z</time>
      </trkpt>
      <trkpt lat="46.83232" lon="12.27619">
        <ele>1819.91</ele>
        <time>2017-02-26T09:05:35Z</time>
      </trkpt>
      <trkpt lat="46.83233" lon="12.27615">
        <ele>1819.43</ele>
        <time>2017-02-26T09:05:52Z</time>
      </trkpt>
      <trkpt lat="46.8324" lon="12.27611">
        <ele>1819.91</ele>
        <time>2017-02-26T09:06:09Z</time>
      </trkpt>
      <trkpt lat="46.83236" lon="12.27612">
        <ele>1820.87</ele>
        <time>2017-02-26T09:06:25Z</time>
      </trkpt>
      <trkpt lat="46.83232" lon="12.27612">
        <ele>1820.39</ele>
        <time>2017-02-26T09:06:57Z</time>
      </trkpt>
      <trkpt lat="46.83237" lon="12.27611">
        <ele>1820.39</ele>
        <time>2017-02-26T09:07:13Z</time>
      </trkpt>
      <trkpt lat="46.83236" lon="12.27609">
        <ele>1820.39</ele>
        <time>2017-02-26T09:07:34Z</time>
      </trkpt>
      <trkpt lat="46.83236" lon="12.27608">
        <ele>1820.87</ele>
        <time>2017-02-26T09:07:55Z</time>
      </trkpt>
      <trkpt lat="46.83233" lon="12.27601">
        <ele>1820.39</ele>
        <time>2017-02-26T09:08:09Z</time>
      </trkpt>
      <trkpt lat="46.83238" lon="12.27589">
        <ele>1821.35</ele>
        <time>2017-02-26T09:08:22Z</time>
      </trkpt>
      <trkpt lat="46.83236" lon="12.27572">
        <ele>1822.8</ele>
        <time>2017-02-26T09:08:38Z</time>
      </trkpt>
      <trkpt lat="46.83234" lon="12.27558">
        <ele>1823.76</ele>
        <time>2017-02-26T09:08:53Z</time>
      </trkpt>
      <trkpt lat="46.83234" lon="12.27543">
        <ele>1825.2</ele>
        <time>2017-02-26T09:09:09Z</time>
      </trkpt>
      <trkpt lat="46.8324" lon="12.2753">
        <ele>1824.72</ele>
        <time>2017-02-26T09:09:23Z</time>
      </trkpt>
      <trkpt lat="46.83242" lon="12.27529">
        <ele>1826.16</ele>
        <time>2017-02-26T09:09:25Z</time>
      </trkpt>
      <trkpt lat="46.83257" lon="12.27523">
        <ele>1825.68</ele>
        <time>2017-02-26T09:09:43Z</time>
      </trkpt>
      <trkpt lat="46.83272" lon="12.2751">
        <ele>1826.16</ele>
        <time>2017-02-26T09:10:02Z</time>
      </trkpt>
      <trkpt lat="46.83278" lon="12.27501">
        <ele>1827.12</ele>
        <time>2017-02-26T09:10:19Z</time>
      </trkpt>
      <trkpt lat="46.83285" lon="12.27492">
        <ele>1827.6</ele>
        <time>2017-02-26T09:10:34Z</time>
      </trkpt>
      <trkpt lat="46.83293" lon="12.27486">
        <ele>1828.08</ele>
        <time>2017-02-26T09:10:47Z</time>
      </trkpt>
      <trkpt lat="46.83301" lon="12.27477">
        <ele>1829.05</ele>
        <time>2017-02-26T09:11:02Z</time>
      </trkpt>
      <trkpt lat="46.83311" lon="12.27473">
        <ele>1829.53</ele>
        <time>2017-02-26T09:11:16Z</time>
      </trkpt>
      <trkpt lat="46.83318" lon="12.27473">
        <ele>1830.01</ele>
        <time>2017-02-26T09:11:31Z</time>
      </trkpt>
      <trkpt lat="46.83328" lon="12.27475">
        <ele>1830.01</ele>
        <time>2017-02-26T09:11:46Z</time>
      </trkpt>
      <trkpt lat="46.8334" lon="12.27465">
        <ele>1830.49</ele>
        <time>2017-02-26T09:12:03Z</time>
      </trkpt>
      <trkpt lat="46.83347" lon="12.27456">
        <ele>1830.97</ele>
        <time>2017-02-26T09:12:18Z</time>
      </trkpt>
      <trkpt lat="46.83359" lon="12.27454">
        <ele>1831.45</ele>
        <time>2017-02-26T09:12:33Z</time>
      </trkpt>
      <trkpt lat="46.83369" lon="12.27457">
        <ele>1832.41</ele>
        <time>2017-02-26T09:12:49Z</time>
      </trkpt>
      <trkpt lat="46.8338" lon="12.2746">
        <ele>1833.85</ele>
        <time>2017-02-26T09:13:06Z</time>
      </trkpt>
      <trkpt lat="46.83387" lon="12.27464">
        <ele>1834.33</ele>
        <time>2017-02-26T09:13:20Z</time>
      </trkpt>
      <trkpt lat="46.83395" lon="12.27469">
        <ele>1835.29</ele>
        <time>2017-02-26T09:13:34Z</time>
      </trkpt>
      <trkpt lat="46.83405" lon="12.27464">
        <ele>1836.26</ele>
        <time>2017-02-26T09:13:46Z</time>
      </trkpt>
      <trkpt lat="46.83415" lon="12.27462">
        <ele>1836.74</ele>
        <time>2017-02-26T09:14:02Z</time>
      </trkpt>
      <trkpt lat="46.8343" lon="12.27449">
        <ele>1837.22</ele>
        <time>2017-02-26T09:14:22Z</time>
      </trkpt>
      <trkpt lat="46.83438" lon="12.27437">
        <ele>1838.66</ele>
        <time>2017-02-26T09:14:39Z</time>
      </trkpt>
      <trkpt lat="46.83443" lon="12.27427">
        <ele>1839.62</ele>
        <time>2017-02-26T09:14:53Z</time>
      </trkpt>
      <trkpt lat="46.83445" lon="12.27427">
        <ele>1840.1</ele>
        <time>2017-02-26T09:15:09Z</time>
      </trkpt>
      <trkpt lat="46.83448" lon="12.27423">
        <ele>1839.62</ele>
        <time>2017-02-26T09:15:34Z</time>
      </trkpt>
      <trkpt lat="46.83452" lon="12.27417">
        <ele>1840.1</ele>
        <time>2017-02-26T09:15:55Z</time>
      </trkpt>
      <trkpt lat="46.83458" lon="12.27406">
        <ele>1841.06</ele>
        <time>2017-02-26T09:16:08Z</time>
      </trkpt>
      <trkpt lat="46.83467" lon="12.27395">
        <ele>1842.02</ele>
        <time>2017-02-26T09:16:24Z</time>
      </trkpt>
      <trkpt lat="46.83477" lon="12.27386">
        <ele>1842.98</ele>
        <time>2017-02-26T09:16:40Z</time>
      </trkpt>
      <trkpt lat="46.8348" lon="12.27387">
        <ele>1843.95</ele>
        <time>2017-02-26T09:16:55Z</time>
      </trkpt>
      <trkpt lat="46.83494" lon="12.27383">
        <ele>1844.43</ele>
        <time>2017-02-26T09:17:10Z</time>
      </trkpt>
      <trkpt lat="46.83503" lon="12.27383">
        <ele>1845.39</ele>
        <time>2017-02-26T09:17:26Z</time>
      </trkpt>
      <trkpt lat="46.83513" lon="12.27376">
        <ele>1845.39</ele>
        <time>2017-02-26T09:17:43Z</time>
      </trkpt>
      <trkpt lat="46.83523" lon="12.27371">
        <ele>1845.87</ele>
        <time>2017-02-26T09:17:54Z</time>
      </trkpt>
      <trkpt lat="46.83534" lon="12.27358">
        <ele>1846.83</ele>
        <time>2017-02-26T09:18:09Z</time>
      </trkpt>
      <trkpt lat="46.83541" lon="12.27344">
        <ele>1847.79</ele>
        <time>2017-02-26T09:18:24Z</time>
      </trkpt>
      <trkpt lat="46.83542" lon="12.27326">
        <ele>1848.75</ele>
        <time>2017-02-26T09:18:38Z</time>
      </trkpt>
      <trkpt lat="46.83547" lon="12.27317">
        <ele>1849.71</ele>
        <time>2017-02-26T09:18:49Z</time>
      </trkpt>
      <trkpt lat="46.83554" lon="12.27305">
        <ele>1850.68</ele>
        <time>2017-02-26T09:19:03Z</time>
      </trkpt>
      <trkpt lat="46.83563" lon="12.27296">
        <ele>1851.64</ele>
        <time>2017-02-26T09:19:18Z</time>
      </trkpt>
      <trkpt lat="46.83567" lon="12.2728">
        <ele>1853.56</ele>
        <time>2017-02-26T09:19:35Z</time>
      </trkpt>
      <trkpt lat="46.83571" lon="12.27271">
        <ele>1854.52</ele>
        <time>2017-02-26T09:19:48Z</time>
      </trkpt>
      <trkpt lat="46.83581" lon="12.27261">
        <ele>1855.48</ele>
        <time>2017-02-26T09:20:05Z</time>
      </trkpt>
      <trkpt lat="46.83594" lon="12.27252">
        <ele>1856.44</ele>
        <time>2017-02-26T09:20:23Z</time>
      </trkpt>
      <trkpt lat="46.83606" lon="12.27249">
        <ele>1857.4</ele>
        <time>2017-02-26T09:20:40Z</time>
      </trkpt>
      <trkpt lat="46.83617" lon="12.27242">
        <ele>1858.37</ele>
        <time>2017-02-26T09:20:53Z</time>
      </trkpt>
      <trkpt lat="46.83624" lon="12.27233">
        <ele>1859.33</ele>
        <time>2017-02-26T09:21:07Z</time>
      </trkpt>
      <trkpt lat="46.83636" lon="12.27223">
        <ele>1860.77</ele>
        <time>2017-02-26T09:21:24Z</time>
      </trkpt>
      <trkpt lat="46.83648" lon="12.27217">
        <ele>1862.21</ele>
        <time>2017-02-26T09:21:40Z</time>
      </trkpt>
      <trkpt lat="46.83655" lon="12.27213">
        <ele>1863.17</ele>
        <time>2017-02-26T09:21:55Z</time>
      </trkpt>
      <trkpt lat="46.83659" lon="12.272">
        <ele>1864.61</ele>
        <time>2017-02-26T09:22:10Z</time>
      </trkpt>
      <trkpt lat="46.83663" lon="12.2719">
        <ele>1865.09</ele>
        <time>2017-02-26T09:22:24Z</time>
      </trkpt>
      <trkpt lat="46.83673" lon="12.27185">
        <ele>1866.54</ele>
        <time>2017-02-26T09:22:38Z</time>
      </trkpt>
      <trkpt lat="46.83683" lon="12.27178">
        <ele>1867.98</ele>
        <time>2017-02-26T09:22:55Z</time>
      </trkpt>
      <trkpt lat="46.83693" lon="12.27166">
        <ele>1869.9</ele>
        <time>2017-02-26T09:23:12Z</time>
      </trkpt>
      <trkpt lat="46.83691" lon="12.27165">
        <ele>1869.9</ele>
        <time>2017-02-26T09:23:34Z</time>
      </trkpt>
      <trkpt lat="46.837" lon="12.27163">
        <ele>1871.34</ele>
        <time>2017-02-26T09:23:49Z</time>
      </trkpt>
      <trkpt lat="46.837" lon="12.27158">
        <ele>1871.34</ele>
        <time>2017-02-26T09:24:15Z</time>
      </trkpt>
      <trkpt lat="46.83707" lon="12.27141">
        <ele>1873.27</ele>
        <time>2017-02-26T09:24:34Z</time>
      </trkpt>
      <trkpt lat="46.83715" lon="12.27128">
        <ele>1875.19</ele>
        <time>2017-02-26T09:24:53Z</time>
      </trkpt>
      <trkpt lat="46.83719" lon="12.27122">
        <ele>1876.15</ele>
        <time>2017-02-26T09:25:08Z</time>
      </trkpt>
      <trkpt lat="46.83724" lon="12.27108">
        <ele>1877.59</ele>
        <time>2017-02-26T09:25:27Z</time>
      </trkpt>
      <trkpt lat="46.83726" lon="12.27094">
        <ele>1878.55</ele>
        <time>2017-02-26T09:25:45Z</time>
      </trkpt>
      <trkpt lat="46.83736" lon="12.27083">
        <ele>1880</ele>
        <time>2017-02-26T09:26:03Z</time>
      </trkpt>
      <trkpt lat="46.83744" lon="12.2707">
        <ele>1881.44</ele>
        <time>2017-02-26T09:26:22Z</time>
      </trkpt>
      <trkpt lat="46.83747" lon="12.27057">
        <ele>1882.4</ele>
        <time>2017-02-26T09:26:38Z</time>
      </trkpt>
      <trkpt lat="46.83751" lon="12.27042">
        <ele>1883.84</ele>
        <time>2017-02-26T09:26:57Z</time>
      </trkpt>
      <trkpt lat="46.8375" lon="12.27034">
        <ele>1884.32</ele>
        <time>2017-02-26T09:27:12Z</time>
      </trkpt>
      <trkpt lat="46.83756" lon="12.27017">
        <ele>1885.76</ele>
        <time>2017-02-26T09:27:31Z</time>
      </trkpt>
      <trkpt lat="46.83759" lon="12.27007">
        <ele>1887.21</ele>
        <time>2017-02-26T09:27:49Z</time>
      </trkpt>
      <trkpt lat="46.83764" lon="12.26991">
        <ele>1888.65</ele>
        <time>2017-02-26T09:28:08Z</time>
      </trkpt>
      <trkpt lat="46.83765" lon="12.26988">
        <ele>1889.61</ele>
        <time>2017-02-26T09:28:23Z</time>
      </trkpt>
      <trkpt lat="46.83772" lon="12.26977">
        <ele>1891.05</ele>
        <time>2017-02-26T09:28:39Z</time>
      </trkpt>
      <trkpt lat="46.83779" lon="12.26962">
        <ele>1893.45</ele>
        <time>2017-02-26T09:28:59Z</time>
      </trkpt>
      <trkpt lat="46.83783" lon="12.26942">
        <ele>1894.9</ele>
        <time>2017-02-26T09:29:17Z</time>
      </trkpt>
      <trkpt lat="46.83779" lon="12.26925">
        <ele>1897.3</ele>
        <time>2017-02-26T09:29:36Z</time>
      </trkpt>
      <trkpt lat="46.83781" lon="12.26905">
        <ele>1899.7</ele>
        <time>2017-02-26T09:29:57Z</time>
      </trkpt>
      <trkpt lat="46.83782" lon="12.26893">
        <ele>1901.63</ele>
        <time>2017-02-26T09:30:13Z</time>
      </trkpt>
      <trkpt lat="46.83777" lon="12.26882">
        <ele>1903.55</ele>
        <time>2017-02-26T09:30:29Z</time>
      </trkpt>
      <trkpt lat="46.83774" lon="12.2687">
        <ele>1904.99</ele>
        <time>2017-02-26T09:30:43Z</time>
      </trkpt>
      <trkpt lat="46.83777" lon="12.26854">
        <ele>1906.91</ele>
        <time>2017-02-26T09:31:00Z</time>
      </trkpt>
      <trkpt lat="46.83785" lon="12.2684">
        <ele>1909.32</ele>
        <time>2017-02-26T09:31:19Z</time>
      </trkpt>
      <trkpt lat="46.83797" lon="12.26835">
        <ele>1911.24</ele>
        <time>2017-02-26T09:31:39Z</time>
      </trkpt>
      <trkpt lat="46.83805" lon="12.26833">
        <ele>1913.64</ele>
        <time>2017-02-26T09:32:01Z</time>
      </trkpt>
      <trkpt lat="46.83814" lon="12.2682">
        <ele>1915.56</ele>
        <time>2017-02-26T09:32:19Z</time>
      </trkpt>
      <trkpt lat="46.83822" lon="12.26812">
        <ele>1917.49</ele>
        <time>2017-02-26T09:32:36Z</time>
      </trkpt>
      <trkpt lat="46.83827" lon="12.26806">
        <ele>1919.41</ele>
        <time>2017-02-26T09:32:55Z</time>
      </trkpt>
      <trkpt lat="46.83836" lon="12.26802">
        <ele>1921.33</ele>
        <time>2017-02-26T09:33:14Z</time>
      </trkpt>
      <trkpt lat="46.83842" lon="12.26794">
        <ele>1922.77</ele>
        <time>2017-02-26T09:33:28Z</time>
      </trkpt>
      <trkpt lat="46.83853" lon="12.26789">
        <ele>1924.22</ele>
        <time>2017-02-26T09:33:45Z</time>
      </trkpt>
      <trkpt lat="46.83858" lon="12.26792">
        <ele>1926.62</ele>
        <time>2017-02-26T09:34:06Z</time>
      </trkpt>
      <trkpt lat="46.83855" lon="12.26798">
        <ele>1927.1</ele>
        <time>2017-02-26T09:34:18Z</time>
      </trkpt>
      <trkpt lat="46.83856" lon="12.26801">
        <ele>1927.58</ele>
        <time>2017-02-26T09:34:35Z</time>
      </trkpt>
      <trkpt lat="46.83858" lon="12.26809">
        <ele>1928.54</ele>
        <time>2017-02-26T09:34:54Z</time>
      </trkpt>
      <trkpt lat="46.83857" lon="12.26826">
        <ele>1929.98</ele>
        <time>2017-02-26T09:35:11Z</time>
      </trkpt>
      <trkpt lat="46.83858" lon="12.26836">
        <ele>1930.95</ele>
        <time>2017-02-26T09:35:27Z</time>
      </trkpt>
      <trkpt lat="46.83863" lon="12.26841">
        <ele>1931.43</ele>
        <time>2017-02-26T09:35:47Z</time>
      </trkpt>
      <trkpt lat="46.83865" lon="12.26847">
        <ele>1931.91</ele>
        <time>2017-02-26T09:36:08Z</time>
      </trkpt>
      <trkpt lat="46.83864" lon="12.26864">
        <ele>1933.35</ele>
        <time>2017-02-26T09:36:23Z</time>
      </trkpt>
      <trkpt lat="46.83866" lon="12.26883">
        <ele>1934.79</ele>
        <time>2017-02-26T09:36:40Z</time>
      </trkpt>
      <trkpt lat="46.83867" lon="12.26885">
        <ele>1934.79</ele>
        <time>2017-02-26T09:36:42Z</time>
      </trkpt>
      <trkpt lat="46.83869" lon="12.26903">
        <ele>1935.75</ele>
        <time>2017-02-26T09:36:56Z</time>
      </trkpt>
      <trkpt lat="46.83871" lon="12.26913">
        <ele>1936.23</ele>
        <time>2017-02-26T09:37:09Z</time>
      </trkpt>
      <trkpt lat="46.83868" lon="12.26914">
        <ele>1936.23</ele>
        <time>2017-02-26T09:37:27Z</time>
      </trkpt>
      <trkpt lat="46.83871" lon="12.26924">
        <ele>1937.19</ele>
        <time>2017-02-26T09:37:49Z</time>
      </trkpt>
      <trkpt lat="46.83875" lon="12.26938">
        <ele>1938.64</ele>
        <time>2017-02-26T09:38:06Z</time>
      </trkpt>
      <trkpt lat="46.83876" lon="12.26957">
        <ele>1940.56</ele>
        <time>2017-02-26T09:38:24Z</time>
      </trkpt>
      <trkpt lat="46.83873" lon="12.26971">
        <ele>1941.52</ele>
        <time>2017-02-26T09:38:39Z</time>
      </trkpt>
      <trkpt lat="46.83872" lon="12.2699">
        <ele>1942.96</ele>
        <time>2017-02-26T09:38:57Z</time>
      </trkpt>
      <trkpt lat="46.83874" lon="12.27008">
        <ele>1943.92</ele>
        <time>2017-02-26T09:39:14Z</time>
      </trkpt>
      <trkpt lat="46.83882" lon="12.27017">
        <ele>1944.88</ele>
        <time>2017-02-26T09:39:31Z</time>
      </trkpt>
      <trkpt lat="46.83892" lon="12.27005">
        <ele>1946.81</ele>
        <time>2017-02-26T09:39:48Z</time>
      </trkpt>
      <trkpt lat="46.83897" lon="12.26994">
        <ele>1948.25</ele>
        <time>2017-02-26T09:40:07Z</time>
      </trkpt>
      <trkpt lat="46.83906" lon="12.26988">
        <ele>1950.17</ele>
        <time>2017-02-26T09:40:24Z</time>
      </trkpt>
      <trkpt lat="46.83914" lon="12.26993">
        <ele>1951.61</ele>
        <time>2017-02-26T09:40:41Z</time>
      </trkpt>
      <trkpt lat="46.83928" lon="12.26981">
        <ele>1953.06</ele>
        <time>2017-02-26T09:40:55Z</time>
      </trkpt>
      <trkpt lat="46.83936" lon="12.26977">
        <ele>1954.98</ele>
        <time>2017-02-26T09:41:13Z</time>
      </trkpt>
      <trkpt lat="46.8394" lon="12.26976">
        <ele>1955.94</ele>
        <time>2017-02-26T09:41:29Z</time>
      </trkpt>
      <trkpt lat="46.83937" lon="12.26983">
        <ele>1955.94</ele>
        <time>2017-02-26T09:41:43Z</time>
      </trkpt>
      <trkpt lat="46.83934" lon="12.26985">
        <ele>1955.94</ele>
        <time>2017-02-26T09:41:47Z</time>
      </trkpt>
      <trkpt lat="46.83928" lon="12.26996">
        <ele>1957.38</ele>
        <time>2017-02-26T09:42:01Z</time>
      </trkpt>
      <trkpt lat="46.83923" lon="12.27013">
        <ele>1958.82</ele>
        <time>2017-02-26T09:42:18Z</time>
      </trkpt>
      <trkpt lat="46.83917" lon="12.27031">
        <ele>1959.78</ele>
        <time>2017-02-26T09:42:36Z</time>
      </trkpt>
      <trkpt lat="46.83915" lon="12.27048">
        <ele>1960.75</ele>
        <time>2017-02-26T09:42:52Z</time>
      </trkpt>
      <trkpt lat="46.83916" lon="12.27058">
        <ele>1961.71</ele>
        <time>2017-02-26T09:43:02Z</time>
      </trkpt>
      <trkpt lat="46.83915" lon="12.27076">
        <ele>1962.19</ele>
        <time>2017-02-26T09:43:21Z</time>
      </trkpt>
      <trkpt lat="46.83912" lon="12.27091">
        <ele>1963.63</ele>
        <time>2017-02-26T09:43:37Z</time>
      </trkpt>
      <trkpt lat="46.83907" lon="12.27108">
        <ele>1964.59</ele>
        <time>2017-02-26T09:43:54Z</time>
      </trkpt>
      <trkpt lat="46.83904" lon="12.2712">
        <ele>1965.55</ele>
        <time>2017-02-26T09:44:07Z</time>
      </trkpt>
      <trkpt lat="46.83901" lon="12.27134">
        <ele>1966.51</ele>
        <time>2017-02-26T09:44:22Z</time>
      </trkpt>
      <trkpt lat="46.83902" lon="12.27146">
        <ele>1967.48</ele>
        <time>2017-02-26T09:44:38Z</time>
      </trkpt>
      <trkpt lat="46.839" lon="12.27161">
        <ele>1968.92</ele>
        <time>2017-02-26T09:44:52Z</time>
      </trkpt>
      <trkpt lat="46.83895" lon="12.27176">
        <ele>1970.84</ele>
        <time>2017-02-26T09:45:11Z</time>
      </trkpt>
      <trkpt lat="46.8389" lon="12.27188">
        <ele>1972.28</ele>
        <time>2017-02-26T09:45:27Z</time>
      </trkpt>
      <trkpt lat="46.83883" lon="12.27197">
        <ele>1973.72</ele>
        <time>2017-02-26T09:45:42Z</time>
      </trkpt>
      <trkpt lat="46.83877" lon="12.27207">
        <ele>1974.2</ele>
        <time>2017-02-26T09:45:56Z</time>
      </trkpt>
      <trkpt lat="46.83869" lon="12.27215">
        <ele>1975.17</ele>
        <time>2017-02-26T09:46:13Z</time>
      </trkpt>
      <trkpt lat="46.83862" lon="12.27222">
        <ele>1976.61</ele>
        <time>2017-02-26T09:46:28Z</time>
      </trkpt>
      <trkpt lat="46.83854" lon="12.27233">
        <ele>1977.09</ele>
        <time>2017-02-26T09:46:43Z</time>
      </trkpt>
      <trkpt lat="46.83846" lon="12.2724">
        <ele>1978.05</ele>
        <time>2017-02-26T09:46:57Z</time>
      </trkpt>
      <trkpt lat="46.83841" lon="12.27258">
        <ele>1979.49</ele>
        <time>2017-02-26T09:47:14Z</time>
      </trkpt>
      <trkpt lat="46.83838" lon="12.27266">
        <ele>1979.49</ele>
        <time>2017-02-26T09:47:22Z</time>
      </trkpt>
      <trkpt lat="46.83831" lon="12.27279">
        <ele>1980.93</ele>
        <time>2017-02-26T09:47:37Z</time>
      </trkpt>
      <trkpt lat="46.83828" lon="12.27293">
        <ele>1981.9</ele>
        <time>2017-02-26T09:47:50Z</time>
      </trkpt>
      <trkpt lat="46.83828" lon="12.27309">
        <ele>1983.34</ele>
        <time>2017-02-26T09:48:07Z</time>
      </trkpt>
      <trkpt lat="46.83826" lon="12.27315">
        <ele>1983.34</ele>
        <time>2017-02-26T09:48:24Z</time>
      </trkpt>
      <trkpt lat="46.83831" lon="12.2732">
        <ele>1983.82</ele>
        <time>2017-02-26T09:48:40Z</time>
      </trkpt>
      <trkpt lat="46.83842" lon="12.27318">
        <ele>1983.82</ele>
        <time>2017-02-26T09:48:57Z</time>
      </trkpt>
      <trkpt lat="46.83841" lon="12.27316">
        <ele>1984.3</ele>
        <time>2017-02-26T09:49:13Z</time>
      </trkpt>
      <trkpt lat="46.83843" lon="12.27307">
        <ele>1984.78</ele>
        <time>2017-02-26T09:49:24Z</time>
      </trkpt>
      <trkpt lat="46.83844" lon="12.27294">
        <ele>1985.74</ele>
        <time>2017-02-26T09:49:38Z</time>
      </trkpt>
      <trkpt lat="46.83847" lon="12.27288">
        <ele>1986.7</ele>
        <time>2017-02-26T09:49:54Z</time>
      </trkpt>
      <trkpt lat="46.8385" lon="12.27283">
        <ele>1987.18</ele>
        <time>2017-02-26T09:50:10Z</time>
      </trkpt>
      <trkpt lat="46.83861" lon="12.27274">
        <ele>1988.14</ele>
        <time>2017-02-26T09:50:23Z</time>
      </trkpt>
      <trkpt lat="46.83857" lon="12.27272">
        <ele>1988.62</ele>
        <time>2017-02-26T09:50:35Z</time>
      </trkpt>
      <trkpt lat="46.83863" lon="12.27278">
        <ele>1989.1</ele>
        <time>2017-02-26T09:50:59Z</time>
      </trkpt>
      <trkpt lat="46.83865" lon="12.27282">
        <ele>1989.1</ele>
        <time>2017-02-26T09:51:03Z</time>
      </trkpt>
      <trkpt lat="46.83867" lon="12.27283">
        <ele>1989.1</ele>
        <time>2017-02-26T09:51:05Z</time>
      </trkpt>
      <trkpt lat="46.83883" lon="12.27288">
        <ele>1989.1</ele>
        <time>2017-02-26T09:51:23Z</time>
      </trkpt>
      <trkpt lat="46.83889" lon="12.27286">
        <ele>1989.59</ele>
        <time>2017-02-26T09:51:36Z</time>
      </trkpt>
      <trkpt lat="46.83892" lon="12.27283">
        <ele>1989.59</ele>
        <time>2017-02-26T09:51:52Z</time>
      </trkpt>
      <trkpt lat="46.83905" lon="12.27278">
        <ele>1991.03</ele>
        <time>2017-02-26T09:52:07Z</time>
      </trkpt>
      <trkpt lat="46.83915" lon="12.27275">
        <ele>1991.51</ele>
        <time>2017-02-26T09:52:23Z</time>
      </trkpt>
      <trkpt lat="46.83924" lon="12.27278">
        <ele>1991.99</ele>
        <time>2017-02-26T09:52:39Z</time>
      </trkpt>
      <trkpt lat="46.83939" lon="12.27278">
        <ele>1992.47</ele>
        <time>2017-02-26T09:52:56Z</time>
      </trkpt>
      <trkpt lat="46.83954" lon="12.27278">
        <ele>1993.43</ele>
        <time>2017-02-26T09:53:13Z</time>
      </trkpt>
      <trkpt lat="46.83968" lon="12.27275">
        <ele>1994.39</ele>
        <time>2017-02-26T09:53:28Z</time>
      </trkpt>
      <trkpt lat="46.83979" lon="12.27269">
        <ele>1995.35</ele>
        <time>2017-02-26T09:53:41Z</time>
      </trkpt>
      <trkpt lat="46.83989" lon="12.27268">
        <ele>1996.32</ele>
        <time>2017-02-26T09:53:56Z</time>
      </trkpt>
      <trkpt lat="46.83999" lon="12.27272">
        <ele>1997.28</ele>
        <time>2017-02-26T09:54:15Z</time>
      </trkpt>
      <trkpt lat="46.84011" lon="12.27266">
        <ele>1998.72</ele>
        <time>2017-02-26T09:54:30Z</time>
      </trkpt>
      <trkpt lat="46.84014" lon="12.27264">
        <ele>1998.72</ele>
        <time>2017-02-26T09:54:34Z</time>
      </trkpt>
      <trkpt lat="46.84025" lon="12.27254">
        <ele>1999.68</ele>
        <time>2017-02-26T09:54:49Z</time>
      </trkpt>
      <trkpt lat="46.84028" lon="12.2725">
        <ele>2000.16</ele>
        <time>2017-02-26T09:54:53Z</time>
      </trkpt>
      <trkpt lat="46.84032" lon="12.27238">
        <ele>2001.12</ele>
        <time>2017-02-26T09:55:07Z</time>
      </trkpt>
      <trkpt lat="46.84037" lon="12.27223">
        <ele>2002.56</ele>
        <time>2017-02-26T09:55:22Z</time>
      </trkpt>
      <trkpt lat="46.84044" lon="12.27212">
        <ele>2003.52</ele>
        <time>2017-02-26T09:55:35Z</time>
      </trkpt>
      <trkpt lat="46.8405" lon="12.27206">
        <ele>2004.01</ele>
        <time>2017-02-26T09:55:44Z</time>
      </trkpt>
      <trkpt lat="46.84058" lon="12.27203">
        <ele>2004.01</ele>
        <time>2017-02-26T09:55:58Z</time>
      </trkpt>
      <trkpt lat="46.84058" lon="12.27205">
        <ele>2004.01</ele>
        <time>2017-02-26T09:56:14Z</time>
      </trkpt>
      <trkpt lat="46.84061" lon="12.27216">
        <ele>2003.52</ele>
        <time>2017-02-26T09:56:29Z</time>
      </trkpt>
      <trkpt lat="46.84067" lon="12.2722">
        <ele>2004.01</ele>
        <time>2017-02-26T09:56:44Z</time>
      </trkpt>
      <trkpt lat="46.84067" lon="12.27225">
        <ele>2004.97</ele>
        <time>2017-02-26T09:56:59Z</time>
      </trkpt>
      <trkpt lat="46.84066" lon="12.27239">
        <ele>2006.89</ele>
        <time>2017-02-26T09:57:14Z</time>
      </trkpt>
      <trkpt lat="46.84061" lon="12.27249">
        <ele>2008.81</ele>
        <time>2017-02-26T09:57:29Z</time>
      </trkpt>
      <trkpt lat="46.84059" lon="12.27252">
        <ele>2008.33</ele>
        <time>2017-02-26T09:57:43Z</time>
      </trkpt>
      <trkpt lat="46.84058" lon="12.27249">
        <ele>2008.81</ele>
        <time>2017-02-26T09:58:07Z</time>
      </trkpt>
      <trkpt lat="46.8406" lon="12.2725">
        <ele>2008.81</ele>
        <time>2017-02-26T09:58:37Z</time>
      </trkpt>
      <trkpt lat="46.84057" lon="12.27254">
        <ele>2009.77</ele>
        <time>2017-02-26T09:58:55Z</time>
      </trkpt>
      <trkpt lat="46.84056" lon="12.27251">
        <ele>2009.77</ele>
        <time>2017-02-26T09:59:14Z</time>
      </trkpt>
      <trkpt lat="46.84057" lon="12.27247">
        <ele>2009.77</ele>
        <time>2017-02-26T09:59:43Z</time>
      </trkpt>
      <trkpt lat="46.84056" lon="12.27256">
        <ele>2010.25</ele>
        <time>2017-02-26T09:59:54Z</time>
      </trkpt>
      <trkpt lat="46.84053" lon="12.27268">
        <ele>2012.18</ele>
        <time>2017-02-26T10:00:10Z</time>
      </trkpt>
      <trkpt lat="46.84051" lon="12.27279">
        <ele>2014.1</ele>
        <time>2017-02-26T10:00:25Z</time>
      </trkpt>
      <trkpt lat="46.84051" lon="12.27292">
        <ele>2016.02</ele>
        <time>2017-02-26T10:00:40Z</time>
      </trkpt>
      <trkpt lat="46.84049" lon="12.27304">
        <ele>2018.43</ele>
        <time>2017-02-26T10:01:00Z</time>
      </trkpt>
      <trkpt lat="46.84046" lon="12.2731">
        <ele>2020.83</ele>
        <time>2017-02-26T10:01:17Z</time>
      </trkpt>
      <trkpt lat="46.84042" lon="12.2732">
        <ele>2023.23</ele>
        <time>2017-02-26T10:01:35Z</time>
      </trkpt>
      <trkpt lat="46.8404" lon="12.27329">
        <ele>2025.15</ele>
        <time>2017-02-26T10:01:51Z</time>
      </trkpt>
      <trkpt lat="46.84037" lon="12.27338">
        <ele>2026.6</ele>
        <time>2017-02-26T10:02:06Z</time>
      </trkpt>
      <trkpt lat="46.84036" lon="12.27343">
        <ele>2027.08</ele>
        <time>2017-02-26T10:02:22Z</time>
      </trkpt>
      <trkpt lat="46.84044" lon="12.27351">
        <ele>2027.56</ele>
        <time>2017-02-26T10:02:38Z</time>
      </trkpt>
      <trkpt lat="46.8405" lon="12.27359">
        <ele>2028.52</ele>
        <time>2017-02-26T10:02:51Z</time>
      </trkpt>
      <trkpt lat="46.84053" lon="12.2737">
        <ele>2030.44</ele>
        <time>2017-02-26T10:03:06Z</time>
      </trkpt>
      <trkpt lat="46.84059" lon="12.27376">
        <ele>2031.88</ele>
        <time>2017-02-26T10:03:22Z</time>
      </trkpt>
      <trkpt lat="46.84062" lon="12.27382">
        <ele>2033.33</ele>
        <time>2017-02-26T10:03:36Z</time>
      </trkpt>
      <trkpt lat="46.84061" lon="12.27389">
        <ele>2035.73</ele>
        <time>2017-02-26T10:03:56Z</time>
      </trkpt>
      <trkpt lat="46.8406" lon="12.27398">
        <ele>2037.65</ele>
        <time>2017-02-26T10:04:13Z</time>
      </trkpt>
      <trkpt lat="46.8406" lon="12.27408">
        <ele>2040.05</ele>
        <time>2017-02-26T10:04:29Z</time>
      </trkpt>
      <trkpt lat="46.84066" lon="12.27415">
        <ele>2041.98</ele>
        <time>2017-02-26T10:04:46Z</time>
      </trkpt>
      <trkpt lat="46.8407" lon="12.27424">
        <ele>2043.42</ele>
        <time>2017-02-26T10:05:02Z</time>
      </trkpt>
      <trkpt lat="46.84072" lon="12.27427">
        <ele>2044.38</ele>
        <time>2017-02-26T10:05:18Z</time>
      </trkpt>
      <trkpt lat="46.84072" lon="12.27434">
        <ele>2046.3</ele>
        <time>2017-02-26T10:05:36Z</time>
      </trkpt>
      <trkpt lat="46.84076" lon="12.27446">
        <ele>2048.23</ele>
        <time>2017-02-26T10:05:51Z</time>
      </trkpt>
      <trkpt lat="46.84077" lon="12.27454">
        <ele>2049.67</ele>
        <time>2017-02-26T10:06:04Z</time>
      </trkpt>
      <trkpt lat="46.84078" lon="12.27466">
        <ele>2051.59</ele>
        <time>2017-02-26T10:06:20Z</time>
      </trkpt>
      <trkpt lat="46.84077" lon="12.27467">
        <ele>2053.51</ele>
        <time>2017-02-26T10:06:37Z</time>
      </trkpt>
      <trkpt lat="46.84073" lon="12.27475">
        <ele>2055.44</ele>
        <time>2017-02-26T10:06:52Z</time>
      </trkpt>
      <trkpt lat="46.84073" lon="12.27483">
        <ele>2057.36</ele>
        <time>2017-02-26T10:07:07Z</time>
      </trkpt>
      <trkpt lat="46.84066" lon="12.27483">
        <ele>2058.8</ele>
        <time>2017-02-26T10:07:22Z</time>
      </trkpt>
      <trkpt lat="46.84065" lon="12.27493">
        <ele>2061.2</ele>
        <time>2017-02-26T10:07:41Z</time>
      </trkpt>
      <trkpt lat="46.84071" lon="12.27503">
        <ele>2063.13</ele>
        <time>2017-02-26T10:07:58Z</time>
      </trkpt>
      <trkpt lat="46.84071" lon="12.27512">
        <ele>2064.57</ele>
        <time>2017-02-26T10:08:14Z</time>
      </trkpt>
      <trkpt lat="46.8407" lon="12.27524">
        <ele>2067.45</ele>
        <time>2017-02-26T10:08:34Z</time>
      </trkpt>
      <trkpt lat="46.8407" lon="12.27533">
        <ele>2069.38</ele>
        <time>2017-02-26T10:08:49Z</time>
      </trkpt>
      <trkpt lat="46.84068" lon="12.27541">
        <ele>2071.3</ele>
        <time>2017-02-26T10:09:05Z</time>
      </trkpt>
      <trkpt lat="46.84069" lon="12.27551">
        <ele>2074.18</ele>
        <time>2017-02-26T10:09:26Z</time>
      </trkpt>
      <trkpt lat="46.8407" lon="12.27552">
        <ele>2074.66</ele>
        <time>2017-02-26T10:09:47Z</time>
      </trkpt>
      <trkpt lat="46.84075" lon="12.27549">
        <ele>2074.18</ele>
        <time>2017-02-26T10:10:11Z</time>
      </trkpt>
      <trkpt lat="46.84082" lon="12.27551">
        <ele>2073.7</ele>
        <time>2017-02-26T10:10:24Z</time>
      </trkpt>
      <trkpt lat="46.8409" lon="12.27547">
        <ele>2075.14</ele>
        <time>2017-02-26T10:10:38Z</time>
      </trkpt>
      <trkpt lat="46.84094" lon="12.27542">
        <ele>2076.59</ele>
        <time>2017-02-26T10:10:56Z</time>
      </trkpt>
      <trkpt lat="46.84101" lon="12.27538">
        <ele>2078.03</ele>
        <time>2017-02-26T10:11:11Z</time>
      </trkpt>
      <trkpt lat="46.84106" lon="12.27542">
        <ele>2078.03</ele>
        <time>2017-02-26T10:11:25Z</time>
      </trkpt>
      <trkpt lat="46.84119" lon="12.27554">
        <ele>2078.51</ele>
        <time>2017-02-26T10:11:42Z</time>
      </trkpt>
      <trkpt lat="46.84125" lon="12.27564">
        <ele>2080.43</ele>
        <time>2017-02-26T10:11:56Z</time>
      </trkpt>
      <trkpt lat="46.84129" lon="12.27574">
        <ele>2082.35</ele>
        <time>2017-02-26T10:12:11Z</time>
      </trkpt>
      <trkpt lat="46.84135" lon="12.2758">
        <ele>2083.31</ele>
        <time>2017-02-26T10:12:26Z</time>
      </trkpt>
      <trkpt lat="46.84137" lon="12.27586">
        <ele>2084.76</ele>
        <time>2017-02-26T10:12:42Z</time>
      </trkpt>
      <trkpt lat="46.8414" lon="12.27593">
        <ele>2086.2</ele>
        <time>2017-02-26T10:12:53Z</time>
      </trkpt>
      <trkpt lat="46.84145" lon="12.27596">
        <ele>2087.16</ele>
        <time>2017-02-26T10:13:07Z</time>
      </trkpt>
      <trkpt lat="46.84139" lon="12.27595">
        <ele>2088.6</ele>
        <time>2017-02-26T10:13:20Z</time>
      </trkpt>
      <trkpt lat="46.84133" lon="12.276">
        <ele>2091</ele>
        <time>2017-02-26T10:13:39Z</time>
      </trkpt>
      <trkpt lat="46.84128" lon="12.276">
        <ele>2092.45</ele>
        <time>2017-02-26T10:13:53Z</time>
      </trkpt>
      <trkpt lat="46.84132" lon="12.27611">
        <ele>2093.89</ele>
        <time>2017-02-26T10:14:09Z</time>
      </trkpt>
      <trkpt lat="46.84131" lon="12.27614">
        <ele>2094.85</ele>
        <time>2017-02-26T10:14:24Z</time>
      </trkpt>
      <trkpt lat="46.84126" lon="12.27614">
        <ele>2096.77</ele>
        <time>2017-02-26T10:14:39Z</time>
      </trkpt>
      <trkpt lat="46.84121" lon="12.27615">
        <ele>2098.7</ele>
        <time>2017-02-26T10:14:53Z</time>
      </trkpt>
      <trkpt lat="46.84114" lon="12.27616">
        <ele>2100.14</ele>
        <time>2017-02-26T10:15:11Z</time>
      </trkpt>
      <trkpt lat="46.84106" lon="12.27617">
        <ele>2102.06</ele>
        <time>2017-02-26T10:15:26Z</time>
      </trkpt>
      <trkpt lat="46.841" lon="12.27621">
        <ele>2103.5</ele>
        <time>2017-02-26T10:15:41Z</time>
      </trkpt>
      <trkpt lat="46.84098" lon="12.27627">
        <ele>2104.94</ele>
        <time>2017-02-26T10:15:54Z</time>
      </trkpt>
      <trkpt lat="46.84088" lon="12.2763">
        <ele>2106.87</ele>
        <time>2017-02-26T10:16:13Z</time>
      </trkpt>
      <trkpt lat="46.84082" lon="12.27636">
        <ele>2108.79</ele>
        <time>2017-02-26T10:16:28Z</time>
      </trkpt>
      <trkpt lat="46.8408" lon="12.27647">
        <ele>2110.71</ele>
        <time>2017-02-26T10:16:44Z</time>
      </trkpt>
      <trkpt lat="46.84082" lon="12.27657">
        <ele>2112.63</ele>
        <time>2017-02-26T10:17:00Z</time>
      </trkpt>
      <trkpt lat="46.84084" lon="12.27666">
        <ele>2114.08</ele>
        <time>2017-02-26T10:17:17Z</time>
      </trkpt>
      <trkpt lat="46.84089" lon="12.27675">
        <ele>2116.48</ele>
        <time>2017-02-26T10:17:36Z</time>
      </trkpt>
      <trkpt lat="46.84091" lon="12.27686">
        <ele>2118.4</ele>
        <time>2017-02-26T10:17:51Z</time>
      </trkpt>
      <trkpt lat="46.84095" lon="12.27695">
        <ele>2119.84</ele>
        <time>2017-02-26T10:18:05Z</time>
      </trkpt>
      <trkpt lat="46.841" lon="12.27703">
        <ele>2121.29</ele>
        <time>2017-02-26T10:18:20Z</time>
      </trkpt>
      <trkpt lat="46.84104" lon="12.27715">
        <ele>2123.21</ele>
        <time>2017-02-26T10:18:35Z</time>
      </trkpt>
      <trkpt lat="46.84103" lon="12.27723">
        <ele>2123.69</ele>
        <time>2017-02-26T10:18:43Z</time>
      </trkpt>
      <trkpt lat="46.84108" lon="12.27732">
        <ele>2125.13</ele>
        <time>2017-02-26T10:18:59Z</time>
      </trkpt>
      <trkpt lat="46.84115" lon="12.27735">
        <ele>2126.57</ele>
        <time>2017-02-26T10:19:15Z</time>
      </trkpt>
      <trkpt lat="46.84118" lon="12.27741">
        <ele>2128.98</ele>
        <time>2017-02-26T10:19:30Z</time>
      </trkpt>
      <trkpt lat="46.84119" lon="12.27748">
        <ele>2131.38</ele>
        <time>2017-02-26T10:19:47Z</time>
      </trkpt>
      <trkpt lat="46.84126" lon="12.27755">
        <ele>2132.34</ele>
        <time>2017-02-26T10:20:00Z</time>
      </trkpt>
      <trkpt lat="46.84131" lon="12.27758">
        <ele>2134.26</ele>
        <time>2017-02-26T10:20:15Z</time>
      </trkpt>
      <trkpt lat="46.84136" lon="12.27759">
        <ele>2135.23</ele>
        <time>2017-02-26T10:20:30Z</time>
      </trkpt>
      <trkpt lat="46.84137" lon="12.27761">
        <ele>2135.71</ele>
        <time>2017-02-26T10:20:43Z</time>
      </trkpt>
      <trkpt lat="46.84138" lon="12.27758">
        <ele>2136.19</ele>
        <time>2017-02-26T10:21:00Z</time>
      </trkpt>
      <trkpt lat="46.84144" lon="12.27767">
        <ele>2137.63</ele>
        <time>2017-02-26T10:21:15Z</time>
      </trkpt>
      <trkpt lat="46.84141" lon="12.2777">
        <ele>2138.11</ele>
        <time>2017-02-26T10:21:31Z</time>
      </trkpt>
      <trkpt lat="46.84142" lon="12.2777">
        <ele>2138.59</ele>
        <time>2017-02-26T10:21:49Z</time>
      </trkpt>
      <trkpt lat="46.84148" lon="12.27772">
        <ele>2139.55</ele>
        <time>2017-02-26T10:22:03Z</time>
      </trkpt>
      <trkpt lat="46.84157" lon="12.27781">
        <ele>2141.47</ele>
        <time>2017-02-26T10:22:19Z</time>
      </trkpt>
      <trkpt lat="46.84159" lon="12.27788">
        <ele>2141.95</ele>
        <time>2017-02-26T10:22:24Z</time>
      </trkpt>
      <trkpt lat="46.84168" lon="12.27798">
        <ele>2143.4</ele>
        <time>2017-02-26T10:22:38Z</time>
      </trkpt>
      <trkpt lat="46.84174" lon="12.27806">
        <ele>2145.32</ele>
        <time>2017-02-26T10:22:52Z</time>
      </trkpt>
      <trkpt lat="46.84179" lon="12.27823">
        <ele>2146.28</ele>
        <time>2017-02-26T10:23:08Z</time>
      </trkpt>
      <trkpt lat="46.84185" lon="12.27838">
        <ele>2147.24</ele>
        <time>2017-02-26T10:23:24Z</time>
      </trkpt>
      <trkpt lat="46.8419" lon="12.27851">
        <ele>2148.68</ele>
        <time>2017-02-26T10:23:40Z</time>
      </trkpt>
      <trkpt lat="46.84193" lon="12.27859">
        <ele>2150.13</ele>
        <time>2017-02-26T10:23:54Z</time>
      </trkpt>
      <trkpt lat="46.84199" lon="12.27872">
        <ele>2152.53</ele>
        <time>2017-02-26T10:24:12Z</time>
      </trkpt>
      <trkpt lat="46.84205" lon="12.27881">
        <ele>2155.41</ele>
        <time>2017-02-26T10:24:31Z</time>
      </trkpt>
      <trkpt lat="46.84209" lon="12.27889">
        <ele>2157.34</ele>
        <time>2017-02-26T10:24:47Z</time>
      </trkpt>
      <trkpt lat="46.84214" lon="12.27899">
        <ele>2159.74</ele>
        <time>2017-02-26T10:25:04Z</time>
      </trkpt>
      <trkpt lat="46.84221" lon="12.2791">
        <ele>2160.7</ele>
        <time>2017-02-26T10:25:19Z</time>
      </trkpt>
      <trkpt lat="46.84222" lon="12.2792">
        <ele>2162.14</ele>
        <time>2017-02-26T10:25:34Z</time>
      </trkpt>
      <trkpt lat="46.84226" lon="12.27931">
        <ele>2164.06</ele>
        <time>2017-02-26T10:25:52Z</time>
      </trkpt>
      <trkpt lat="46.84228" lon="12.2794">
        <ele>2165.99</ele>
        <time>2017-02-26T10:26:07Z</time>
      </trkpt>
      <trkpt lat="46.84229" lon="12.27946">
        <ele>2167.91</ele>
        <time>2017-02-26T10:26:21Z</time>
      </trkpt>
      <trkpt lat="46.84231" lon="12.27958">
        <ele>2169.83</ele>
        <time>2017-02-26T10:26:38Z</time>
      </trkpt>
      <trkpt lat="46.84229" lon="12.27963">
        <ele>2169.35</ele>
        <time>2017-02-26T10:26:52Z</time>
      </trkpt>
      <trkpt lat="46.84233" lon="12.27974">
        <ele>2168.87</ele>
        <time>2017-02-26T10:27:04Z</time>
      </trkpt>
      <trkpt lat="46.84234" lon="12.27977">
        <ele>2168.87</ele>
        <time>2017-02-26T10:27:09Z</time>
      </trkpt>
      <trkpt lat="46.84235" lon="12.27988">
        <ele>2168.39</ele>
        <time>2017-02-26T10:27:22Z</time>
      </trkpt>
      <trkpt lat="46.84237" lon="12.27997">
        <ele>2168.39</ele>
        <time>2017-02-26T10:27:33Z</time>
      </trkpt>
      <trkpt lat="46.84237" lon="12.28005">
        <ele>2167.91</ele>
        <time>2017-02-26T10:27:46Z</time>
      </trkpt>
      <trkpt lat="46.84239" lon="12.28012">
        <ele>2168.39</ele>
        <time>2017-02-26T10:27:59Z</time>
      </trkpt>
      <trkpt lat="46.84241" lon="12.28023">
        <ele>2168.39</ele>
        <time>2017-02-26T10:28:16Z</time>
      </trkpt>
      <trkpt lat="46.84244" lon="12.28033">
        <ele>2170.31</ele>
        <time>2017-02-26T10:28:32Z</time>
      </trkpt>
      <trkpt lat="46.8425" lon="12.28044">
        <ele>2172.72</ele>
        <time>2017-02-26T10:28:50Z</time>
      </trkpt>
      <trkpt lat="46.8425" lon="12.28053">
        <ele>2174.64</ele>
        <time>2017-02-26T10:29:05Z</time>
      </trkpt>
      <trkpt lat="46.84251" lon="12.28061">
        <ele>2176.56</ele>
        <time>2017-02-26T10:29:19Z</time>
      </trkpt>
      <trkpt lat="46.84251" lon="12.28069">
        <ele>2178.48</ele>
        <time>2017-02-26T10:29:34Z</time>
      </trkpt>
      <trkpt lat="46.84249" lon="12.28076">
        <ele>2179.93</ele>
        <time>2017-02-26T10:29:46Z</time>
      </trkpt>
      <trkpt lat="46.84249" lon="12.28084">
        <ele>2181.85</ele>
        <time>2017-02-26T10:30:01Z</time>
      </trkpt>
      <trkpt lat="46.84251" lon="12.28089">
        <ele>2183.29</ele>
        <time>2017-02-26T10:30:15Z</time>
      </trkpt>
      <trkpt lat="46.84253" lon="12.28099">
        <ele>2184.73</ele>
        <time>2017-02-26T10:30:29Z</time>
      </trkpt>
      <trkpt lat="46.84254" lon="12.28105">
        <ele>2186.66</ele>
        <time>2017-02-26T10:30:44Z</time>
      </trkpt>
      <trkpt lat="46.84253" lon="12.28112">
        <ele>2188.1</ele>
        <time>2017-02-26T10:30:58Z</time>
      </trkpt>
      <trkpt lat="46.84255" lon="12.28118">
        <ele>2189.54</ele>
        <time>2017-02-26T10:31:11Z</time>
      </trkpt>
      <trkpt lat="46.84256" lon="12.28127">
        <ele>2190.98</ele>
        <time>2017-02-26T10:31:26Z</time>
      </trkpt>
      <trkpt lat="46.84261" lon="12.2813">
        <ele>2194.35</ele>
        <time>2017-02-26T10:31:40Z</time>
      </trkpt>
      <trkpt lat="46.84269" lon="12.28132">
        <ele>2194.83</ele>
        <time>2017-02-26T10:31:56Z</time>
      </trkpt>
      <trkpt lat="46.84275" lon="12.28134">
        <ele>2196.27</ele>
        <time>2017-02-26T10:32:11Z</time>
      </trkpt>
      <trkpt lat="46.84281" lon="12.28138">
        <ele>2198.19</ele>
        <time>2017-02-26T10:32:27Z</time>
      </trkpt>
      <trkpt lat="46.84285" lon="12.28142">
        <ele>2200.11</ele>
        <time>2017-02-26T10:32:43Z</time>
      </trkpt>
      <trkpt lat="46.84287" lon="12.2815">
        <ele>2201.56</ele>
        <time>2017-02-26T10:32:57Z</time>
      </trkpt>
      <trkpt lat="46.8429" lon="12.28157">
        <ele>2203.48</ele>
        <time>2017-02-26T10:33:14Z</time>
      </trkpt>
      <trkpt lat="46.84293" lon="12.28165">
        <ele>2205.4</ele>
        <time>2017-02-26T10:33:28Z</time>
      </trkpt>
      <trkpt lat="46.84299" lon="12.28166">
        <ele>2206.84</ele>
        <time>2017-02-26T10:33:44Z</time>
      </trkpt>
      <trkpt lat="46.84306" lon="12.28166">
        <ele>2209.25</ele>
        <time>2017-02-26T10:34:00Z</time>
      </trkpt>
      <trkpt lat="46.84309" lon="12.28173">
        <ele>2211.17</ele>
        <time>2017-02-26T10:34:17Z</time>
      </trkpt>
      <trkpt lat="46.84312" lon="12.28182">
        <ele>2212.13</ele>
        <time>2017-02-26T10:34:29Z</time>
      </trkpt>
      <trkpt lat="46.84314" lon="12.28192">
        <ele>2213.57</ele>
        <time>2017-02-26T10:34:44Z</time>
      </trkpt>
      <trkpt lat="46.84316" lon="12.28201">
        <ele>2215.01</ele>
        <time>2017-02-26T10:34:59Z</time>
      </trkpt>
      <trkpt lat="46.84319" lon="12.2821">
        <ele>2217.42</ele>
        <time>2017-02-26T10:35:15Z</time>
      </trkpt>
      <trkpt lat="46.84321" lon="12.2822">
        <ele>2218.38</ele>
        <time>2017-02-26T10:35:29Z</time>
      </trkpt>
      <trkpt lat="46.84323" lon="12.28229">
        <ele>2220.3</ele>
        <time>2017-02-26T10:35:45Z</time>
      </trkpt>
      <trkpt lat="46.84327" lon="12.28235">
        <ele>2222.22</ele>
        <time>2017-02-26T10:36:01Z</time>
      </trkpt>
      <trkpt lat="46.8433" lon="12.28243">
        <ele>2224.15</ele>
        <time>2017-02-26T10:36:17Z</time>
      </trkpt>
      <trkpt lat="46.84333" lon="12.2825">
        <ele>2226.07</ele>
        <time>2017-02-26T10:36:34Z</time>
      </trkpt>
      <trkpt lat="46.84338" lon="12.28256">
        <ele>2227.99</ele>
        <time>2017-02-26T10:36:50Z</time>
      </trkpt>
      <trkpt lat="46.84343" lon="12.28261">
        <ele>2229.92</ele>
        <time>2017-02-26T10:37:05Z</time>
      </trkpt>
      <trkpt lat="46.84347" lon="12.2827">
        <ele>2231.84</ele>
        <time>2017-02-26T10:37:22Z</time>
      </trkpt>
      <trkpt lat="46.84352" lon="12.28277">
        <ele>2233.76</ele>
        <time>2017-02-26T10:37:40Z</time>
      </trkpt>
      <trkpt lat="46.84355" lon="12.28285">
        <ele>2235.68</ele>
        <time>2017-02-26T10:37:56Z</time>
      </trkpt>
      <trkpt lat="46.84359" lon="12.28291">
        <ele>2237.13</ele>
        <time>2017-02-26T10:38:13Z</time>
      </trkpt>
      <trkpt lat="46.84364" lon="12.28296">
        <ele>2238.57</ele>
        <time>2017-02-26T10:38:30Z</time>
      </trkpt>
      <trkpt lat="46.84363" lon="12.28299">
        <ele>2239.05</ele>
        <time>2017-02-26T10:38:45Z</time>
      </trkpt>
      <trkpt lat="46.84364" lon="12.28299">
        <ele>2239.05</ele>
        <time>2017-02-26T10:38:55Z</time>
      </trkpt>
      <trkpt lat="46.84364" lon="12.28295">
        <ele>2238.09</ele>
        <time>2017-02-26T10:39:13Z</time>
      </trkpt>
      <trkpt lat="46.84364" lon="12.28298">
        <ele>2240.01</ele>
        <time>2017-02-26T10:39:43Z</time>
      </trkpt>
      <trkpt lat="46.84365" lon="12.28299">
        <ele>2239.05</ele>
        <time>2017-02-26T10:40:09Z</time>
      </trkpt>
      <trkpt lat="46.84365" lon="12.28301">
        <ele>2239.53</ele>
        <time>2017-02-26T10:40:30Z</time>
      </trkpt>
      <trkpt lat="46.84369" lon="12.28301">
        <ele>2240.49</ele>
        <time>2017-02-26T10:40:46Z</time>
      </trkpt>
      <trkpt lat="46.84377" lon="12.28305">
        <ele>2242.89</ele>
        <time>2017-02-26T10:41:08Z</time>
      </trkpt>
      <trkpt lat="46.84383" lon="12.28308">
        <ele>2245.3</ele>
        <time>2017-02-26T10:41:26Z</time>
      </trkpt>
      <trkpt lat="46.84387" lon="12.28312">
        <ele>2247.22</ele>
        <time>2017-02-26T10:41:43Z</time>
      </trkpt>
      <trkpt lat="46.84383" lon="12.28312">
        <ele>2248.18</ele>
        <time>2017-02-26T10:41:56Z</time>
      </trkpt>
      <trkpt lat="46.84381" lon="12.28317">
        <ele>2250.1</ele>
        <time>2017-02-26T10:42:10Z</time>
      </trkpt>
      <trkpt lat="46.84378" lon="12.28322">
        <ele>2252.03</ele>
        <time>2017-02-26T10:42:28Z</time>
      </trkpt>
      <trkpt lat="46.84374" lon="12.28328">
        <ele>2254.43</ele>
        <time>2017-02-26T10:42:45Z</time>
      </trkpt>
      <trkpt lat="46.84373" lon="12.28333">
        <ele>2255.39</ele>
        <time>2017-02-26T10:42:59Z</time>
      </trkpt>
      <trkpt lat="46.84377" lon="12.28336">
        <ele>2257.31</ele>
        <time>2017-02-26T10:43:12Z</time>
      </trkpt>
      <trkpt lat="46.8438" lon="12.28341">
        <ele>2258.75</ele>
        <time>2017-02-26T10:43:27Z</time>
      </trkpt>
      <trkpt lat="46.84383" lon="12.28347">
        <ele>2260.68</ele>
        <time>2017-02-26T10:43:44Z</time>
      </trkpt>
      <trkpt lat="46.84384" lon="12.28354">
        <ele>2262.12</ele>
        <time>2017-02-26T10:43:58Z</time>
      </trkpt>
      <trkpt lat="46.84386" lon="12.28361">
        <ele>2263.56</ele>
        <time>2017-02-26T10:44:15Z</time>
      </trkpt>
      <trkpt lat="46.84389" lon="12.28369">
        <ele>2265.96</ele>
        <time>2017-02-26T10:44:32Z</time>
      </trkpt>
      <trkpt lat="46.84391" lon="12.28375">
        <ele>2268.37</ele>
        <time>2017-02-26T10:44:49Z</time>
      </trkpt>
      <trkpt lat="46.84395" lon="12.28382">
        <ele>2270.29</ele>
        <time>2017-02-26T10:45:06Z</time>
      </trkpt>
      <trkpt lat="46.84399" lon="12.28387">
        <ele>2271.73</ele>
        <time>2017-02-26T10:45:21Z</time>
      </trkpt>
      <trkpt lat="46.84405" lon="12.28392">
        <ele>2273.66</ele>
        <time>2017-02-26T10:45:36Z</time>
      </trkpt>
      <trkpt lat="46.84408" lon="12.28396">
        <ele>2275.58</ele>
        <time>2017-02-26T10:45:52Z</time>
      </trkpt>
      <trkpt lat="46.84411" lon="12.28404">
        <ele>2277.5</ele>
        <time>2017-02-26T10:46:10Z</time>
      </trkpt>
      <trkpt lat="46.84413" lon="12.28413">
        <ele>2279.9</ele>
        <time>2017-02-26T10:46:28Z</time>
      </trkpt>
      <trkpt lat="46.84418" lon="12.28425">
        <ele>2281.35</ele>
        <time>2017-02-26T10:46:47Z</time>
      </trkpt>
      <trkpt lat="46.84424" lon="12.28433">
        <ele>2282.79</ele>
        <time>2017-02-26T10:47:03Z</time>
      </trkpt>
      <trkpt lat="46.84427" lon="12.28437">
        <ele>2284.23</ele>
        <time>2017-02-26T10:47:18Z</time>
      </trkpt>
      <trkpt lat="46.84428" lon="12.28443">
        <ele>2286.63</ele>
        <time>2017-02-26T10:47:35Z</time>
      </trkpt>
      <trkpt lat="46.8443" lon="12.28449">
        <ele>2288.56</ele>
        <time>2017-02-26T10:47:50Z</time>
      </trkpt>
      <trkpt lat="46.84434" lon="12.28456">
        <ele>2290</ele>
        <time>2017-02-26T10:48:06Z</time>
      </trkpt>
      <trkpt lat="46.84438" lon="12.28464">
        <ele>2291.92</ele>
        <time>2017-02-26T10:48:23Z</time>
      </trkpt>
      <trkpt lat="46.84441" lon="12.28473">
        <ele>2293.84</ele>
        <time>2017-02-26T10:48:40Z</time>
      </trkpt>
      <trkpt lat="46.84444" lon="12.28479">
        <ele>2295.77</ele>
        <time>2017-02-26T10:48:55Z</time>
      </trkpt>
      <trkpt lat="46.84445" lon="12.28485">
        <ele>2298.17</ele>
        <time>2017-02-26T10:49:15Z</time>
      </trkpt>
      <trkpt lat="46.8445" lon="12.28491">
        <ele>2300.09</ele>
        <time>2017-02-26T10:49:33Z</time>
      </trkpt>
      <trkpt lat="46.84453" lon="12.28498">
        <ele>2303.46</ele>
        <time>2017-02-26T10:49:48Z</time>
      </trkpt>
      <trkpt lat="46.84458" lon="12.28506">
        <ele>2303.46</ele>
        <time>2017-02-26T10:50:04Z</time>
      </trkpt>
      <trkpt lat="46.84461" lon="12.28511">
        <ele>2305.38</ele>
        <time>2017-02-26T10:50:20Z</time>
      </trkpt>
      <trkpt lat="46.84463" lon="12.28517">
        <ele>2307.3</ele>
        <time>2017-02-26T10:50:37Z</time>
      </trkpt>
      <trkpt lat="46.84463" lon="12.28522">
        <ele>2309.22</ele>
        <time>2017-02-26T10:50:53Z</time>
      </trkpt>
      <trkpt lat="46.84468" lon="12.28528">
        <ele>2311.15</ele>
        <time>2017-02-26T10:51:09Z</time>
      </trkpt>
      <trkpt lat="46.84471" lon="12.28535">
        <ele>2312.59</ele>
        <time>2017-02-26T10:51:23Z</time>
      </trkpt>
      <trkpt lat="46.84474" lon="12.28545">
        <ele>2314.03</ele>
        <time>2017-02-26T10:51:39Z</time>
      </trkpt>
      <trkpt lat="46.84476" lon="12.28553">
        <ele>2315.47</ele>
        <time>2017-02-26T10:51:55Z</time>
      </trkpt>
      <trkpt lat="46.84477" lon="12.28559">
        <ele>2317.88</ele>
        <time>2017-02-26T10:52:13Z</time>
      </trkpt>
      <trkpt lat="46.84479" lon="12.28564">
        <ele>2319.8</ele>
        <time>2017-02-26T10:52:31Z</time>
      </trkpt>
      <trkpt lat="46.84482" lon="12.28573">
        <ele>2321.72</ele>
        <time>2017-02-26T10:52:47Z</time>
      </trkpt>
      <trkpt lat="46.84486" lon="12.28582">
        <ele>2323.64</ele>
        <time>2017-02-26T10:53:02Z</time>
      </trkpt>
      <trkpt lat="46.84489" lon="12.28589">
        <ele>2325.09</ele>
        <time>2017-02-26T10:53:16Z</time>
      </trkpt>
      <trkpt lat="46.84489" lon="12.2859">
        <ele>2320.28</ele>
        <time>2017-02-26T10:53:19Z</time>
      </trkpt>
      <trkpt lat="46.84489" lon="12.28591">
        <ele>2329.41</ele>
        <time>2017-02-26T10:53:20Z</time>
      </trkpt>
      <trkpt lat="46.8449" lon="12.28592">
        <ele>2325.57</ele>
        <time>2017-02-26T10:53:21Z</time>
      </trkpt>
      <trkpt lat="46.84493" lon="12.28604">
        <ele>2326.53</ele>
        <time>2017-02-26T10:53:39Z</time>
      </trkpt>
      <trkpt lat="46.84495" lon="12.28611">
        <ele>2328.45</ele>
        <time>2017-02-26T10:53:55Z</time>
      </trkpt>
      <trkpt lat="46.84495" lon="12.28621">
        <ele>2329.89</ele>
        <time>2017-02-26T10:54:13Z</time>
      </trkpt>
      <trkpt lat="46.84496" lon="12.28633">
        <ele>2331.33</ele>
        <time>2017-02-26T10:54:31Z</time>
      </trkpt>
      <trkpt lat="46.84494" lon="12.2864">
        <ele>2333.26</ele>
        <time>2017-02-26T10:54:48Z</time>
      </trkpt>
      <trkpt lat="46.84494" lon="12.2865">
        <ele>2334.7</ele>
        <time>2017-02-26T10:55:04Z</time>
      </trkpt>
      <trkpt lat="46.84496" lon="12.28662">
        <ele>2337.1</ele>
        <time>2017-02-26T10:55:23Z</time>
      </trkpt>
      <trkpt lat="46.84497" lon="12.2867">
        <ele>2338.54</ele>
        <time>2017-02-26T10:55:39Z</time>
      </trkpt>
      <trkpt lat="46.84497" lon="12.28681">
        <ele>2339.51</ele>
        <time>2017-02-26T10:55:55Z</time>
      </trkpt>
      <trkpt lat="46.845" lon="12.28696">
        <ele>2340.95</ele>
        <time>2017-02-26T10:56:12Z</time>
      </trkpt>
      <trkpt lat="46.84504" lon="12.28703">
        <ele>2342.39</ele>
        <time>2017-02-26T10:56:27Z</time>
      </trkpt>
      <trkpt lat="46.84507" lon="12.28709">
        <ele>2344.79</ele>
        <time>2017-02-26T10:56:46Z</time>
      </trkpt>
      <trkpt lat="46.8451" lon="12.28716">
        <ele>2346.72</ele>
        <time>2017-02-26T10:57:02Z</time>
      </trkpt>
      <trkpt lat="46.84513" lon="12.28716">
        <ele>2347.2</ele>
        <time>2017-02-26T10:57:16Z</time>
      </trkpt>
      <trkpt lat="46.84509" lon="12.28712">
        <ele>2347.2</ele>
        <time>2017-02-26T10:57:35Z</time>
      </trkpt>
      <trkpt lat="46.8451" lon="12.28714">
        <ele>2348.64</ele>
        <time>2017-02-26T10:57:51Z</time>
      </trkpt>
      <trkpt lat="46.84514" lon="12.28727">
        <ele>2348.64</ele>
        <time>2017-02-26T10:58:08Z</time>
      </trkpt>
      <trkpt lat="46.84517" lon="12.28735">
        <ele>2351.04</ele>
        <time>2017-02-26T10:58:25Z</time>
      </trkpt>
      <trkpt lat="46.84521" lon="12.28743">
        <ele>2352.96</ele>
        <time>2017-02-26T10:58:44Z</time>
      </trkpt>
      <trkpt lat="46.84525" lon="12.2875">
        <ele>2354.41</ele>
        <time>2017-02-26T10:58:58Z</time>
      </trkpt>
      <trkpt lat="46.84531" lon="12.28758">
        <ele>2356.33</ele>
        <time>2017-02-26T10:59:13Z</time>
      </trkpt>
      <trkpt lat="46.84532" lon="12.28764">
        <ele>2357.77</ele>
        <time>2017-02-26T10:59:31Z</time>
      </trkpt>
      <trkpt lat="46.84538" lon="12.28774">
        <ele>2358.73</ele>
        <time>2017-02-26T10:59:50Z</time>
      </trkpt>
      <trkpt lat="46.84542" lon="12.28784">
        <ele>2360.65</ele>
        <time>2017-02-26T11:00:07Z</time>
      </trkpt>
      <trkpt lat="46.84545" lon="12.28792">
        <ele>2362.58</ele>
        <time>2017-02-26T11:00:26Z</time>
      </trkpt>
      <trkpt lat="46.84546" lon="12.28801">
        <ele>2364.5</ele>
        <time>2017-02-26T11:00:42Z</time>
      </trkpt>
      <trkpt lat="46.84547" lon="12.28808">
        <ele>2366.42</ele>
        <time>2017-02-26T11:00:57Z</time>
      </trkpt>
      <trkpt lat="46.84547" lon="12.28816">
        <ele>2368.35</ele>
        <time>2017-02-26T11:01:15Z</time>
      </trkpt>
      <trkpt lat="46.8455" lon="12.28823">
        <ele>2370.27</ele>
        <time>2017-02-26T11:01:29Z</time>
      </trkpt>
      <trkpt lat="46.84556" lon="12.28827">
        <ele>2372.19</ele>
        <time>2017-02-26T11:01:46Z</time>
      </trkpt>
      <trkpt lat="46.84559" lon="12.28828">
        <ele>2374.11</ele>
        <time>2017-02-26T11:01:59Z</time>
      </trkpt>
      <trkpt lat="46.84563" lon="12.28837">
        <ele>2375.55</ele>
        <time>2017-02-26T11:02:17Z</time>
      </trkpt>
      <trkpt lat="46.84566" lon="12.28844">
        <ele>2377</ele>
        <time>2017-02-26T11:02:33Z</time>
      </trkpt>
      <trkpt lat="46.8457" lon="12.28852">
        <ele>2378.44</ele>
        <time>2017-02-26T11:02:50Z</time>
      </trkpt>
      <trkpt lat="46.84573" lon="12.28862">
        <ele>2380.36</ele>
        <time>2017-02-26T11:03:07Z</time>
      </trkpt>
      <trkpt lat="46.84574" lon="12.2887">
        <ele>2382.28</ele>
        <time>2017-02-26T11:03:23Z</time>
      </trkpt>
      <trkpt lat="46.84577" lon="12.28877">
        <ele>2383.73</ele>
        <time>2017-02-26T11:03:38Z</time>
      </trkpt>
      <trkpt lat="46.8458" lon="12.28883">
        <ele>2384.69</ele>
        <time>2017-02-26T11:03:53Z</time>
      </trkpt>
      <trkpt lat="46.84584" lon="12.28888">
        <ele>2386.61</ele>
        <time>2017-02-26T11:04:09Z</time>
      </trkpt>
      <trkpt lat="46.84585" lon="12.28893">
        <ele>2389.01</ele>
        <time>2017-02-26T11:04:27Z</time>
      </trkpt>
      <trkpt lat="46.84589" lon="12.28898">
        <ele>2390.46</ele>
        <time>2017-02-26T11:04:42Z</time>
      </trkpt>
      <trkpt lat="46.84586" lon="12.289">
        <ele>2392.38</ele>
        <time>2017-02-26T11:04:57Z</time>
      </trkpt>
      <trkpt lat="46.84583" lon="12.28907">
        <ele>2393.82</ele>
        <time>2017-02-26T11:05:13Z</time>
      </trkpt>
      <trkpt lat="46.84584" lon="12.28912">
        <ele>2394.78</ele>
        <time>2017-02-26T11:05:26Z</time>
      </trkpt>
      <trkpt lat="46.84589" lon="12.28915">
        <ele>2396.22</ele>
        <time>2017-02-26T11:05:43Z</time>
      </trkpt>
      <trkpt lat="46.84589" lon="12.28916">
        <ele>2398.15</ele>
        <time>2017-02-26T11:05:58Z</time>
      </trkpt>
      <trkpt lat="46.84586" lon="12.2892">
        <ele>2399.59</ele>
        <time>2017-02-26T11:06:14Z</time>
      </trkpt>
      <trkpt lat="46.84589" lon="12.28926">
        <ele>2401.03</ele>
        <time>2017-02-26T11:06:29Z</time>
      </trkpt>
      <trkpt lat="46.84591" lon="12.28928">
        <ele>2401.99</ele>
        <time>2017-02-26T11:06:47Z</time>
      </trkpt>
      <trkpt lat="46.84595" lon="12.28931">
        <ele>2403.43</ele>
        <time>2017-02-26T11:07:06Z</time>
      </trkpt>
      <trkpt lat="46.84599" lon="12.28932">
        <ele>2405.36</ele>
        <time>2017-02-26T11:07:21Z</time>
      </trkpt>
      <trkpt lat="46.84599" lon="12.28933">
        <ele>2406.8</ele>
        <time>2017-02-26T11:07:34Z</time>
      </trkpt>
      <trkpt lat="46.84597" lon="12.28938">
        <ele>2408.24</ele>
        <time>2017-02-26T11:07:52Z</time>
      </trkpt>
      <trkpt lat="46.846" lon="12.28943">
        <ele>2410.16</ele>
        <time>2017-02-26T11:08:07Z</time>
      </trkpt>
      <trkpt lat="46.84603" lon="12.28945">
        <ele>2411.12</ele>
        <time>2017-02-26T11:08:23Z</time>
      </trkpt>
      <trkpt lat="46.84603" lon="12.28944">
        <ele>2406.8</ele>
        <time>2017-02-26T11:08:24Z</time>
      </trkpt>
      <trkpt lat="46.84603" lon="12.28944">
        <ele>2415.45</ele>
        <time>2017-02-26T11:08:25Z</time>
      </trkpt>
      <trkpt lat="46.84603" lon="12.28944">
        <ele>2411.6</ele>
        <time>2017-02-26T11:08:26Z</time>
      </trkpt>
      <trkpt lat="46.84603" lon="12.28945">
        <ele>2411.6</ele>
        <time>2017-02-26T11:08:50Z</time>
      </trkpt>
      <trkpt lat="46.84606" lon="12.2895">
        <ele>2413.05</ele>
        <time>2017-02-26T11:09:07Z</time>
      </trkpt>
      <trkpt lat="46.84609" lon="12.28957">
        <ele>2414.49</ele>
        <time>2017-02-26T11:09:25Z</time>
      </trkpt>
      <trkpt lat="46.84613" lon="12.28964">
        <ele>2415.93</ele>
        <time>2017-02-26T11:09:41Z</time>
      </trkpt>
      <trkpt lat="46.84614" lon="12.28965">
        <ele>2417.85</ele>
        <time>2017-02-26T11:09:56Z</time>
      </trkpt>
      <trkpt lat="46.8462" lon="12.28967">
        <ele>2419.78</ele>
        <time>2017-02-26T11:10:16Z</time>
      </trkpt>
      <trkpt lat="46.84625" lon="12.28973">
        <ele>2422.18</ele>
        <time>2017-02-26T11:10:34Z</time>
      </trkpt>
      <trkpt lat="46.8463" lon="12.2898">
        <ele>2424.1</ele>
        <time>2017-02-26T11:10:52Z</time>
      </trkpt>
      <trkpt lat="46.84634" lon="12.28983">
        <ele>2425.54</ele>
        <time>2017-02-26T11:11:08Z</time>
      </trkpt>
      <trkpt lat="46.84638" lon="12.28989">
        <ele>2426.99</ele>
        <time>2017-02-26T11:11:23Z</time>
      </trkpt>
      <trkpt lat="46.84642" lon="12.28993">
        <ele>2428.91</ele>
        <time>2017-02-26T11:11:37Z</time>
      </trkpt>
      <trkpt lat="46.84644" lon="12.28999">
        <ele>2430.35</ele>
        <time>2017-02-26T11:11:52Z</time>
      </trkpt>
      <trkpt lat="46.84649" lon="12.29003">
        <ele>2431.79</ele>
        <time>2017-02-26T11:12:07Z</time>
      </trkpt>
      <trkpt lat="46.84652" lon="12.29008">
        <ele>2433.71</ele>
        <time>2017-02-26T11:12:24Z</time>
      </trkpt>
      <trkpt lat="46.84655" lon="12.29015">
        <ele>2435.16</ele>
        <time>2017-02-26T11:12:40Z</time>
      </trkpt>
      <trkpt lat="46.84657" lon="12.29018">
        <ele>2437.08</ele>
        <time>2017-02-26T11:12:56Z</time>
      </trkpt>
      <trkpt lat="46.84659" lon="12.29025">
        <ele>2438.52</ele>
        <time>2017-02-26T11:13:12Z</time>
      </trkpt>
      <trkpt lat="46.84664" lon="12.29025">
        <ele>2440.44</ele>
        <time>2017-02-26T11:13:27Z</time>
      </trkpt>
      <trkpt lat="46.84667" lon="12.29028">
        <ele>2441.89</ele>
        <time>2017-02-26T11:13:44Z</time>
      </trkpt>
      <trkpt lat="46.84671" lon="12.2903">
        <ele>2443.81</ele>
        <time>2017-02-26T11:14:00Z</time>
      </trkpt>
      <trkpt lat="46.84675" lon="12.29033">
        <ele>2445.25</ele>
        <time>2017-02-26T11:14:16Z</time>
      </trkpt>
      <trkpt lat="46.84678" lon="12.29037">
        <ele>2447.17</ele>
        <time>2017-02-26T11:14:32Z</time>
      </trkpt>
      <trkpt lat="46.84681" lon="12.29038">
        <ele>2449.1</ele>
        <time>2017-02-26T11:14:46Z</time>
      </trkpt>
      <trkpt lat="46.84683" lon="12.29041">
        <ele>2450.54</ele>
        <time>2017-02-26T11:15:00Z</time>
      </trkpt>
      <trkpt lat="46.84686" lon="12.29045">
        <ele>2452.46</ele>
        <time>2017-02-26T11:15:14Z</time>
      </trkpt>
      <trkpt lat="46.8469" lon="12.29046">
        <ele>2453.9</ele>
        <time>2017-02-26T11:15:28Z</time>
      </trkpt>
      <trkpt lat="46.8469" lon="12.2905">
        <ele>2455.82</ele>
        <time>2017-02-26T11:15:43Z</time>
      </trkpt>
      <trkpt lat="46.84692" lon="12.29053">
        <ele>2457.75</ele>
        <time>2017-02-26T11:15:58Z</time>
      </trkpt>
      <trkpt lat="46.84695" lon="12.29057">
        <ele>2459.19</ele>
        <time>2017-02-26T11:16:13Z</time>
      </trkpt>
      <trkpt lat="46.84698" lon="12.29063">
        <ele>2461.11</ele>
        <time>2017-02-26T11:16:29Z</time>
      </trkpt>
      <trkpt lat="46.84699" lon="12.29069">
        <ele>2462.55</ele>
        <time>2017-02-26T11:16:45Z</time>
      </trkpt>
      <trkpt lat="46.84701" lon="12.29073">
        <ele>2464</ele>
        <time>2017-02-26T11:17:01Z</time>
      </trkpt>
      <trkpt lat="46.847" lon="12.29076">
        <ele>2464.48</ele>
        <time>2017-02-26T11:17:21Z</time>
      </trkpt>
      <trkpt lat="46.847" lon="12.29075">
        <ele>2463.52</ele>
        <time>2017-02-26T11:17:36Z</time>
      </trkpt>
      <trkpt lat="46.84703" lon="12.29074">
        <ele>2464</ele>
        <time>2017-02-26T11:18:08Z</time>
      </trkpt>
      <trkpt lat="46.84704" lon="12.29073">
        <ele>2464</ele>
        <time>2017-02-26T11:18:41Z</time>
      </trkpt>
      <trkpt lat="46.84702" lon="12.29077">
        <ele>2464</ele>
        <time>2017-02-26T11:19:14Z</time>
      </trkpt>
      <trkpt lat="46.84704" lon="12.29075">
        <ele>2464.96</ele>
        <time>2017-02-26T11:19:59Z</time>
      </trkpt>
      <trkpt lat="46.84701" lon="12.29077">
        <ele>2464.48</ele>
        <time>2017-02-26T11:20:24Z</time>
      </trkpt>
      <trkpt lat="46.84702" lon="12.29072">
        <ele>2464.96</ele>
        <time>2017-02-26T11:21:01Z</time>
      </trkpt>
      <trkpt lat="46.84703" lon="12.29075">
        <ele>2464.96</ele>
        <time>2017-02-26T11:21:38Z</time>
      </trkpt>
      <trkpt lat="46.847" lon="12.29076">
        <ele>2464.96</ele>
        <time>2017-02-26T11:22:18Z</time>
      </trkpt>
      <trkpt lat="46.84702" lon="12.29076">
        <ele>2464.96</ele>
        <time>2017-02-26T11:22:55Z</time>
      </trkpt>
      <trkpt lat="46.84697" lon="12.29075">
        <ele>2465.92</ele>
        <time>2017-02-26T11:23:19Z</time>
      </trkpt>
      <trkpt lat="46.84697" lon="12.29075">
        <ele>2466.4</ele>
        <time>2017-02-26T11:23:35Z</time>
      </trkpt>
      <trkpt lat="46.84696" lon="12.29074">
        <ele>2466.88</ele>
        <time>2017-02-26T11:23:58Z</time>
      </trkpt>
      <trkpt lat="46.84701" lon="12.29079">
        <ele>2467.84</ele>
        <time>2017-02-26T11:24:12Z</time>
      </trkpt>
      <trkpt lat="46.84703" lon="12.29082">
        <ele>2469.76</ele>
        <time>2017-02-26T11:24:28Z</time>
      </trkpt>
      <trkpt lat="46.84705" lon="12.29094">
        <ele>2471.21</ele>
        <time>2017-02-26T11:24:45Z</time>
      </trkpt>
      <trkpt lat="46.84705" lon="12.29101">
        <ele>2472.17</ele>
        <time>2017-02-26T11:25:00Z</time>
      </trkpt>
      <trkpt lat="46.84707" lon="12.29108">
        <ele>2473.61</ele>
        <time>2017-02-26T11:25:14Z</time>
      </trkpt>
      <trkpt lat="46.84708" lon="12.29114">
        <ele>2475.05</ele>
        <time>2017-02-26T11:25:28Z</time>
      </trkpt>
      <trkpt lat="46.84708" lon="12.29121">
        <ele>2476.49</ele>
        <time>2017-02-26T11:25:42Z</time>
      </trkpt>
      <trkpt lat="46.84708" lon="12.29125">
        <ele>2477.94</ele>
        <time>2017-02-26T11:25:58Z</time>
      </trkpt>
      <trkpt lat="46.84708" lon="12.29131">
        <ele>2479.38</ele>
        <time>2017-02-26T11:26:14Z</time>
      </trkpt>
      <trkpt lat="46.84708" lon="12.29135">
        <ele>2480.34</ele>
        <time>2017-02-26T11:26:31Z</time>
      </trkpt>
      <trkpt lat="46.84707" lon="12.29138">
        <ele>2482.26</ele>
        <time>2017-02-26T11:26:45Z</time>
      </trkpt>
      <trkpt lat="46.84707" lon="12.29142">
        <ele>2482.74</ele>
        <time>2017-02-26T11:27:04Z</time>
      </trkpt>
      <trkpt lat="46.84707" lon="12.29151">
        <ele>2484.66</ele>
        <time>2017-02-26T11:27:20Z</time>
      </trkpt>
      <trkpt lat="46.84704" lon="12.29158">
        <ele>2486.11</ele>
        <time>2017-02-26T11:27:37Z</time>
      </trkpt>
      <trkpt lat="46.84704" lon="12.29164">
        <ele>2487.55</ele>
        <time>2017-02-26T11:27:52Z</time>
      </trkpt>
      <trkpt lat="46.84704" lon="12.2917">
        <ele>2488.51</ele>
        <time>2017-02-26T11:28:06Z</time>
      </trkpt>
      <trkpt lat="46.84705" lon="12.29177">
        <ele>2489.95</ele>
        <time>2017-02-26T11:28:21Z</time>
      </trkpt>
      <trkpt lat="46.84707" lon="12.29184">
        <ele>2491.39</ele>
        <time>2017-02-26T11:28:36Z</time>
      </trkpt>
      <trkpt lat="46.84707" lon="12.29189">
        <ele>2492.84</ele>
        <time>2017-02-26T11:28:52Z</time>
      </trkpt>
      <trkpt lat="46.84707" lon="12.29195">
        <ele>2494.28</ele>
        <time>2017-02-26T11:29:06Z</time>
      </trkpt>
      <trkpt lat="46.84708" lon="12.29202">
        <ele>2495.72</ele>
        <time>2017-02-26T11:29:21Z</time>
      </trkpt>
      <trkpt lat="46.8471" lon="12.29206">
        <ele>2497.16</ele>
        <time>2017-02-26T11:29:35Z</time>
      </trkpt>
      <trkpt lat="46.84713" lon="12.29202">
        <ele>2498.6</ele>
        <time>2017-02-26T11:29:50Z</time>
      </trkpt>
      <trkpt lat="46.84717" lon="12.29201">
        <ele>2500.05</ele>
        <time>2017-02-26T11:30:05Z</time>
      </trkpt>
      <trkpt lat="46.84723" lon="12.292">
        <ele>2501.49</ele>
        <time>2017-02-26T11:30:21Z</time>
      </trkpt>
      <trkpt lat="46.84726" lon="12.29199">
        <ele>2502.93</ele>
        <time>2017-02-26T11:30:37Z</time>
      </trkpt>
      <trkpt lat="46.84731" lon="12.29198">
        <ele>2504.37</ele>
        <time>2017-02-26T11:30:53Z</time>
      </trkpt>
      <trkpt lat="46.84733" lon="12.29197">
        <ele>2505.33</ele>
        <time>2017-02-26T11:31:07Z</time>
      </trkpt>
      <trkpt lat="46.8473" lon="12.29202">
        <ele>2507.26</ele>
        <time>2017-02-26T11:31:21Z</time>
      </trkpt>
      <trkpt lat="46.84728" lon="12.29208">
        <ele>2508.22</ele>
        <time>2017-02-26T11:31:37Z</time>
      </trkpt>
      <trkpt lat="46.84725" lon="12.29217">
        <ele>2509.18</ele>
        <time>2017-02-26T11:31:52Z</time>
      </trkpt>
      <trkpt lat="46.84724" lon="12.29223">
        <ele>2510.62</ele>
        <time>2017-02-26T11:32:08Z</time>
      </trkpt>
      <trkpt lat="46.84723" lon="12.29226">
        <ele>2512.06</ele>
        <time>2017-02-26T11:32:21Z</time>
      </trkpt>
      <trkpt lat="46.84722" lon="12.29232">
        <ele>2513.02</ele>
        <time>2017-02-26T11:32:36Z</time>
      </trkpt>
      <trkpt lat="46.84725" lon="12.29233">
        <ele>2513.98</ele>
        <time>2017-02-26T11:32:48Z</time>
      </trkpt>
      <trkpt lat="46.84729" lon="12.29233">
        <ele>2515.91</ele>
        <time>2017-02-26T11:33:04Z</time>
      </trkpt>
      <trkpt lat="46.84732" lon="12.29232">
        <ele>2516.87</ele>
        <time>2017-02-26T11:33:17Z</time>
      </trkpt>
      <trkpt lat="46.84736" lon="12.29228">
        <ele>2517.83</ele>
        <time>2017-02-26T11:33:32Z</time>
      </trkpt>
      <trkpt lat="46.8474" lon="12.29227">
        <ele>2519.27</ele>
        <time>2017-02-26T11:33:46Z</time>
      </trkpt>
      <trkpt lat="46.84741" lon="12.29227">
        <ele>2520.71</ele>
        <time>2017-02-26T11:34:02Z</time>
      </trkpt>
      <trkpt lat="46.8474" lon="12.2923">
        <ele>2521.19</ele>
        <time>2017-02-26T11:34:16Z</time>
      </trkpt>
      <trkpt lat="46.8474" lon="12.29237">
        <ele>2522.64</ele>
        <time>2017-02-26T11:34:30Z</time>
      </trkpt>
      <trkpt lat="46.84744" lon="12.29236">
        <ele>2524.08</ele>
        <time>2017-02-26T11:34:44Z</time>
      </trkpt>
      <trkpt lat="46.84748" lon="12.29235">
        <ele>2525.04</ele>
        <time>2017-02-26T11:34:59Z</time>
      </trkpt>
      <trkpt lat="46.84751" lon="12.29232">
        <ele>2526.96</ele>
        <time>2017-02-26T11:35:15Z</time>
      </trkpt>
      <trkpt lat="46.8475" lon="12.29238">
        <ele>2527.92</ele>
        <time>2017-02-26T11:35:28Z</time>
      </trkpt>
      <trkpt lat="46.84747" lon="12.29242">
        <ele>2528.89</ele>
        <time>2017-02-26T11:35:43Z</time>
      </trkpt>
      <trkpt lat="46.84746" lon="12.29247">
        <ele>2529.85</ele>
        <time>2017-02-26T11:35:56Z</time>
      </trkpt>
      <trkpt lat="46.84745" lon="12.29254">
        <ele>2531.29</ele>
        <time>2017-02-26T11:36:10Z</time>
      </trkpt>
      <trkpt lat="46.84747" lon="12.2926">
        <ele>2532.73</ele>
        <time>2017-02-26T11:36:24Z</time>
      </trkpt>
      <trkpt lat="46.84749" lon="12.29264">
        <ele>2534.17</ele>
        <time>2017-02-26T11:36:39Z</time>
      </trkpt>
      <trkpt lat="46.8475" lon="12.29268">
        <ele>2535.13</ele>
        <time>2017-02-26T11:36:53Z</time>
      </trkpt>
      <trkpt lat="46.84752" lon="12.29272">
        <ele>2536.58</ele>
        <time>2017-02-26T11:37:04Z</time>
      </trkpt>
      <trkpt lat="46.84755" lon="12.29274">
        <ele>2537.54</ele>
        <time>2017-02-26T11:37:17Z</time>
      </trkpt>
      <trkpt lat="46.84757" lon="12.29273">
        <ele>2538.98</ele>
        <time>2017-02-26T11:37:35Z</time>
      </trkpt>
      <trkpt lat="46.84761" lon="12.29271">
        <ele>2540.42</ele>
        <time>2017-02-26T11:37:50Z</time>
      </trkpt>
      <trkpt lat="46.84765" lon="12.2927">
        <ele>2541.38</ele>
        <time>2017-02-26T11:38:06Z</time>
      </trkpt>
      <trkpt lat="46.8477" lon="12.29268">
        <ele>2543.31</ele>
        <time>2017-02-26T11:38:20Z</time>
      </trkpt>
      <trkpt lat="46.84772" lon="12.29267">
        <ele>2544.75</ele>
        <time>2017-02-26T11:38:36Z</time>
      </trkpt>
      <trkpt lat="46.84774" lon="12.29268">
        <ele>2546.19</ele>
        <time>2017-02-26T11:38:50Z</time>
      </trkpt>
      <trkpt lat="46.84777" lon="12.29267">
        <ele>2547.63</ele>
        <time>2017-02-26T11:39:03Z</time>
      </trkpt>
      <trkpt lat="46.84781" lon="12.29267">
        <ele>2549.07</ele>
        <time>2017-02-26T11:39:19Z</time>
      </trkpt>
      <trkpt lat="46.84783" lon="12.29265">
        <ele>2550.51</ele>
        <time>2017-02-26T11:39:34Z</time>
      </trkpt>
      <trkpt lat="46.84789" lon="12.2926">
        <ele>2551.96</ele>
        <time>2017-02-26T11:39:51Z</time>
      </trkpt>
      <trkpt lat="46.84794" lon="12.29255">
        <ele>2552.92</ele>
        <time>2017-02-26T11:40:05Z</time>
      </trkpt>
      <trkpt lat="46.84796" lon="12.29252">
        <ele>2554.84</ele>
        <time>2017-02-26T11:40:20Z</time>
      </trkpt>
      <trkpt lat="46.84799" lon="12.29248">
        <ele>2556.28</ele>
        <time>2017-02-26T11:40:36Z</time>
      </trkpt>
      <trkpt lat="46.848" lon="12.29248">
        <ele>2556.76</ele>
        <time>2017-02-26T11:40:48Z</time>
      </trkpt>
      <trkpt lat="46.848" lon="12.29255">
        <ele>2557.73</ele>
        <time>2017-02-26T11:41:05Z</time>
      </trkpt>
      <trkpt lat="46.84801" lon="12.29263">
        <ele>2559.17</ele>
        <time>2017-02-26T11:41:21Z</time>
      </trkpt>
      <trkpt lat="46.84802" lon="12.29267">
        <ele>2560.13</ele>
        <time>2017-02-26T11:41:35Z</time>
      </trkpt>
      <trkpt lat="46.84802" lon="12.29274">
        <ele>2562.05</ele>
        <time>2017-02-26T11:41:51Z</time>
      </trkpt>
      <trkpt lat="46.84802" lon="12.2928">
        <ele>2563.01</ele>
        <time>2017-02-26T11:42:06Z</time>
      </trkpt>
      <trkpt lat="46.84803" lon="12.29282">
        <ele>2563.97</ele>
        <time>2017-02-26T11:42:20Z</time>
      </trkpt>
      <trkpt lat="46.84804" lon="12.29285">
        <ele>2565.9</ele>
        <time>2017-02-26T11:42:36Z</time>
      </trkpt>
      <trkpt lat="46.84803" lon="12.29291">
        <ele>2566.86</ele>
        <time>2017-02-26T11:42:51Z</time>
      </trkpt>
      <trkpt lat="46.84805" lon="12.29296">
        <ele>2568.3</ele>
        <time>2017-02-26T11:43:06Z</time>
      </trkpt>
      <trkpt lat="46.84804" lon="12.29301">
        <ele>2569.26</ele>
        <time>2017-02-26T11:43:20Z</time>
      </trkpt>
      <trkpt lat="46.84808" lon="12.29306">
        <ele>2570.7</ele>
        <time>2017-02-26T11:43:37Z</time>
      </trkpt>
      <trkpt lat="46.84813" lon="12.2931">
        <ele>2571.66</ele>
        <time>2017-02-26T11:43:59Z</time>
      </trkpt>
      <trkpt lat="46.84815" lon="12.29307">
        <ele>2572.63</ele>
        <time>2017-02-26T11:44:12Z</time>
      </trkpt>
      <trkpt lat="46.84819" lon="12.29302">
        <ele>2574.07</ele>
        <time>2017-02-26T11:44:26Z</time>
      </trkpt>
      <trkpt lat="46.8482" lon="12.29299">
        <ele>2575.99</ele>
        <time>2017-02-26T11:44:39Z</time>
      </trkpt>
      <trkpt lat="46.84824" lon="12.29297">
        <ele>2577.43</ele>
        <time>2017-02-26T11:44:52Z</time>
      </trkpt>
      <trkpt lat="46.84823" lon="12.29297">
        <ele>2578.39</ele>
        <time>2017-02-26T11:45:07Z</time>
      </trkpt>
      <trkpt lat="46.84823" lon="12.29304">
        <ele>2579.84</ele>
        <time>2017-02-26T11:45:24Z</time>
      </trkpt>
      <trkpt lat="46.84825" lon="12.29305">
        <ele>2581.76</ele>
        <time>2017-02-26T11:45:40Z</time>
      </trkpt>
      <trkpt lat="46.84824" lon="12.29313">
        <ele>2583.2</ele>
        <time>2017-02-26T11:45:55Z</time>
      </trkpt>
      <trkpt lat="46.84824" lon="12.2932">
        <ele>2584.16</ele>
        <time>2017-02-26T11:46:09Z</time>
      </trkpt>
      <trkpt lat="46.84823" lon="12.29327">
        <ele>2585.6</ele>
        <time>2017-02-26T11:46:24Z</time>
      </trkpt>
      <trkpt lat="46.84823" lon="12.29331">
        <ele>2587.04</ele>
        <time>2017-02-26T11:46:39Z</time>
      </trkpt>
      <trkpt lat="46.84823" lon="12.29336">
        <ele>2587.53</ele>
        <time>2017-02-26T11:46:57Z</time>
      </trkpt>
      <trkpt lat="46.84826" lon="12.29332">
        <ele>2588.49</ele>
        <time>2017-02-26T11:47:17Z</time>
      </trkpt>
      <trkpt lat="46.8483" lon="12.29329">
        <ele>2590.41</ele>
        <time>2017-02-26T11:47:32Z</time>
      </trkpt>
      <trkpt lat="46.84833" lon="12.29325">
        <ele>2591.37</ele>
        <time>2017-02-26T11:47:47Z</time>
      </trkpt>
      <trkpt lat="46.84838" lon="12.29322">
        <ele>2593.29</ele>
        <time>2017-02-26T11:48:02Z</time>
      </trkpt>
      <trkpt lat="46.84842" lon="12.29318">
        <ele>2593.77</ele>
        <time>2017-02-26T11:48:14Z</time>
      </trkpt>
      <trkpt lat="46.84844" lon="12.29316">
        <ele>2594.74</ele>
        <time>2017-02-26T11:48:29Z</time>
      </trkpt>
      <trkpt lat="46.84843" lon="12.29318">
        <ele>2595.22</ele>
        <time>2017-02-26T11:48:42Z</time>
      </trkpt>
      <trkpt lat="46.84842" lon="12.29326">
        <ele>2596.66</ele>
        <time>2017-02-26T11:48:59Z</time>
      </trkpt>
      <trkpt lat="46.84845" lon="12.29318">
        <ele>2597.62</ele>
        <time>2017-02-26T11:49:11Z</time>
      </trkpt>
      <trkpt lat="46.84846" lon="12.29321">
        <ele>2598.58</ele>
        <time>2017-02-26T11:49:26Z</time>
      </trkpt>
      <trkpt lat="46.84846" lon="12.29325">
        <ele>2599.54</ele>
        <time>2017-02-26T11:49:42Z</time>
      </trkpt>
      <trkpt lat="46.84843" lon="12.29326">
        <ele>2600.98</ele>
        <time>2017-02-26T11:49:59Z</time>
      </trkpt>
      <trkpt lat="46.84845" lon="12.2933">
        <ele>2601.95</ele>
        <time>2017-02-26T11:50:19Z</time>
      </trkpt>
      <trkpt lat="46.84848" lon="12.29332">
        <ele>2602.91</ele>
        <time>2017-02-26T11:50:35Z</time>
      </trkpt>
      <trkpt lat="46.84846" lon="12.29334">
        <ele>2603.39</ele>
        <time>2017-02-26T11:50:57Z</time>
      </trkpt>
      <trkpt lat="46.84847" lon="12.29333">
        <ele>2604.35</ele>
        <time>2017-02-26T11:51:12Z</time>
      </trkpt>
      <trkpt lat="46.84847" lon="12.2933">
        <ele>2604.83</ele>
        <time>2017-02-26T11:51:28Z</time>
      </trkpt>
      <trkpt lat="46.84856" lon="12.29334">
        <ele>2605.31</ele>
        <time>2017-02-26T11:51:47Z</time>
      </trkpt>
      <trkpt lat="46.84855" lon="12.29331">
        <ele>2605.79</ele>
        <time>2017-02-26T11:52:04Z</time>
      </trkpt>
      <trkpt lat="46.84853" lon="12.29332">
        <ele>2606.75</ele>
        <time>2017-02-26T11:52:21Z</time>
      </trkpt>
      <trkpt lat="46.84851" lon="12.29338">
        <ele>2608.19</ele>
        <time>2017-02-26T11:52:37Z</time>
      </trkpt>
      <trkpt lat="46.84848" lon="12.29345">
        <ele>2610.6</ele>
        <time>2017-02-26T11:52:55Z</time>
      </trkpt>
      <trkpt lat="46.8485" lon="12.29346">
        <ele>2610.6</ele>
        <time>2017-02-26T11:53:14Z</time>
      </trkpt>
      <trkpt lat="46.84856" lon="12.29341">
        <ele>2611.56</ele>
        <time>2017-02-26T11:53:26Z</time>
      </trkpt>
      <trkpt lat="46.84859" lon="12.29341">
        <ele>2613</ele>
        <time>2017-02-26T11:53:40Z</time>
      </trkpt>
      <trkpt lat="46.84862" lon="12.29339">
        <ele>2614.92</ele>
        <time>2017-02-26T11:53:57Z</time>
      </trkpt>
      <trkpt lat="46.84863" lon="12.2934">
        <ele>2615.4</ele>
        <time>2017-02-26T11:54:13Z</time>
      </trkpt>
      <trkpt lat="46.84862" lon="12.29343">
        <ele>2615.88</ele>
        <time>2017-02-26T11:54:35Z</time>
      </trkpt>
      <trkpt lat="46.84859" lon="12.29347">
        <ele>2617.33</ele>
        <time>2017-02-26T11:54:51Z</time>
      </trkpt>
      <trkpt lat="46.84858" lon="12.29348">
        <ele>2617.81</ele>
        <time>2017-02-26T11:55:10Z</time>
      </trkpt>
      <trkpt lat="46.84863" lon="12.29347">
        <ele>2618.77</ele>
        <time>2017-02-26T11:55:28Z</time>
      </trkpt>
      <trkpt lat="46.84868" lon="12.29347">
        <ele>2619.25</ele>
        <time>2017-02-26T11:55:47Z</time>
      </trkpt>
      <trkpt lat="46.84869" lon="12.29342">
        <ele>2621.17</ele>
        <time>2017-02-26T11:56:01Z</time>
      </trkpt>
      <trkpt lat="46.8487" lon="12.29343">
        <ele>2622.13</ele>
        <time>2017-02-26T11:56:14Z</time>
      </trkpt>
      <trkpt lat="46.84869" lon="12.29348">
        <ele>2626.46</ele>
        <time>2017-02-26T11:56:28Z</time>
      </trkpt>
      <trkpt lat="46.84869" lon="12.29348">
        <ele>2623.09</ele>
        <time>2017-02-26T11:56:29Z</time>
      </trkpt>
      <trkpt lat="46.84869" lon="12.29353">
        <ele>2624.06</ele>
        <time>2017-02-26T11:56:46Z</time>
      </trkpt>
      <trkpt lat="46.84868" lon="12.29358">
        <ele>2625.5</ele>
        <time>2017-02-26T11:57:02Z</time>
      </trkpt>
      <trkpt lat="46.84868" lon="12.29359">
        <ele>2626.94</ele>
        <time>2017-02-26T11:57:18Z</time>
      </trkpt>
      <trkpt lat="46.84871" lon="12.2936">
        <ele>2627.9</ele>
        <time>2017-02-26T11:57:35Z</time>
      </trkpt>
      <trkpt lat="46.84877" lon="12.29357">
        <ele>2629.34</ele>
        <time>2017-02-26T11:57:49Z</time>
      </trkpt>
      <trkpt lat="46.84875" lon="12.29357">
        <ele>2629.82</ele>
        <time>2017-02-26T11:58:05Z</time>
      </trkpt>
      <trkpt lat="46.84876" lon="12.29359">
        <ele>2630.79</ele>
        <time>2017-02-26T11:58:30Z</time>
      </trkpt>
      <trkpt lat="46.84876" lon="12.29364">
        <ele>2631.75</ele>
        <time>2017-02-26T11:58:43Z</time>
      </trkpt>
      <trkpt lat="46.84879" lon="12.29364">
        <ele>2632.71</ele>
        <time>2017-02-26T11:59:02Z</time>
      </trkpt>
      <trkpt lat="46.84876" lon="12.29365">
        <ele>2633.19</ele>
        <time>2017-02-26T11:59:16Z</time>
      </trkpt>
      <trkpt lat="46.84876" lon="12.29371">
        <ele>2634.15</ele>
        <time>2017-02-26T11:59:32Z</time>
      </trkpt>
      <trkpt lat="46.84875" lon="12.29376">
        <ele>2635.59</ele>
        <time>2017-02-26T11:59:49Z</time>
      </trkpt>
      <trkpt lat="46.84876" lon="12.2938">
        <ele>2636.55</ele>
        <time>2017-02-26T12:00:05Z</time>
      </trkpt>
      <trkpt lat="46.84874" lon="12.29385">
        <ele>2637.51</ele>
        <time>2017-02-26T12:00:19Z</time>
      </trkpt>
      <trkpt lat="46.84873" lon="12.29391">
        <ele>2638.96</ele>
        <time>2017-02-26T12:00:35Z</time>
      </trkpt>
      <trkpt lat="46.84872" lon="12.29394">
        <ele>2640.4</ele>
        <time>2017-02-26T12:00:51Z</time>
      </trkpt>
      <trkpt lat="46.84871" lon="12.294">
        <ele>2641.84</ele>
        <time>2017-02-26T12:01:06Z</time>
      </trkpt>
      <trkpt lat="46.84872" lon="12.29403">
        <ele>2642.8</ele>
        <time>2017-02-26T12:01:26Z</time>
      </trkpt>
      <trkpt lat="46.84875" lon="12.29403">
        <ele>2642.8</ele>
        <time>2017-02-26T12:01:50Z</time>
      </trkpt>
      <trkpt lat="46.84878" lon="12.29399">
        <ele>2643.76</ele>
        <time>2017-02-26T12:02:05Z</time>
      </trkpt>
      <trkpt lat="46.8488" lon="12.29396">
        <ele>2644.72</ele>
        <time>2017-02-26T12:02:21Z</time>
      </trkpt>
      <trkpt lat="46.84885" lon="12.29392">
        <ele>2646.17</ele>
        <time>2017-02-26T12:02:38Z</time>
      </trkpt>
      <trkpt lat="46.84887" lon="12.29386">
        <ele>2647.13</ele>
        <time>2017-02-26T12:02:53Z</time>
      </trkpt>
      <trkpt lat="46.84891" lon="12.29383">
        <ele>2648.09</ele>
        <time>2017-02-26T12:03:08Z</time>
      </trkpt>
      <trkpt lat="46.84894" lon="12.29381">
        <ele>2649.05</ele>
        <time>2017-02-26T12:03:23Z</time>
      </trkpt>
      <trkpt lat="46.84888" lon="12.29384">
        <ele>2649.53</ele>
        <time>2017-02-26T12:03:45Z</time>
      </trkpt>
      <trkpt lat="46.84892" lon="12.2938">
        <ele>2649.53</ele>
        <time>2017-02-26T12:04:15Z</time>
      </trkpt>
      <trkpt lat="46.84891" lon="12.29386">
        <ele>2649.53</ele>
        <time>2017-02-26T12:04:30Z</time>
      </trkpt>
      <trkpt lat="46.8489" lon="12.29385">
        <ele>2649.53</ele>
        <time>2017-02-26T12:04:53Z</time>
      </trkpt>
      <trkpt lat="46.8489" lon="12.29389">
        <ele>2649.53</ele>
        <time>2017-02-26T12:05:22Z</time>
      </trkpt>
      <trkpt lat="46.84887" lon="12.29384">
        <ele>2649.53</ele>
        <time>2017-02-26T12:06:01Z</time>
      </trkpt>
      <trkpt lat="46.84888" lon="12.29387">
        <ele>2650.01</ele>
        <time>2017-02-26T12:06:25Z</time>
      </trkpt>
      <trkpt lat="46.84892" lon="12.29389">
        <ele>2650.97</ele>
        <time>2017-02-26T12:06:39Z</time>
      </trkpt>
      <trkpt lat="46.84896" lon="12.29385">
        <ele>2652.42</ele>
        <time>2017-02-26T12:06:52Z</time>
      </trkpt>
      <trkpt lat="46.84893" lon="12.29381">
        <ele>2652.9</ele>
        <time>2017-02-26T12:07:05Z</time>
      </trkpt>
      <trkpt lat="46.84897" lon="12.2938">
        <ele>2653.86</ele>
        <time>2017-02-26T12:07:20Z</time>
      </trkpt>
      <trkpt lat="46.84898" lon="12.29382">
        <ele>2653.86</ele>
        <time>2017-02-26T12:07:36Z</time>
      </trkpt>
      <trkpt lat="46.84897" lon="12.29385">
        <ele>2655.3</ele>
        <time>2017-02-26T12:07:56Z</time>
      </trkpt>
      <trkpt lat="46.84896" lon="12.29386">
        <ele>2655.78</ele>
        <time>2017-02-26T12:08:21Z</time>
      </trkpt>
      <trkpt lat="46.84896" lon="12.2939">
        <ele>2656.74</ele>
        <time>2017-02-26T12:08:37Z</time>
      </trkpt>
      <trkpt lat="46.84897" lon="12.29388">
        <ele>2657.7</ele>
        <time>2017-02-26T12:08:53Z</time>
      </trkpt>
      <trkpt lat="46.84898" lon="12.29389">
        <ele>2657.7</ele>
        <time>2017-02-26T12:09:10Z</time>
      </trkpt>
      <trkpt lat="46.849" lon="12.29388">
        <ele>2659.14</ele>
        <time>2017-02-26T12:09:25Z</time>
      </trkpt>
      <trkpt lat="46.84904" lon="12.29386">
        <ele>2660.11</ele>
        <time>2017-02-26T12:09:43Z</time>
      </trkpt>
      <trkpt lat="46.84908" lon="12.29382">
        <ele>2661.55</ele>
        <time>2017-02-26T12:09:59Z</time>
      </trkpt>
      <trkpt lat="46.84912" lon="12.29376">
        <ele>2663.47</ele>
        <time>2017-02-26T12:10:20Z</time>
      </trkpt>
      <trkpt lat="46.84915" lon="12.29373">
        <ele>2664.91</ele>
        <time>2017-02-26T12:10:36Z</time>
      </trkpt>
      <trkpt lat="46.84919" lon="12.2937">
        <ele>2666.83</ele>
        <time>2017-02-26T12:10:53Z</time>
      </trkpt>
      <trkpt lat="46.8492" lon="12.29369">
        <ele>2669.24</ele>
        <time>2017-02-26T12:11:06Z</time>
      </trkpt>
      <trkpt lat="46.8492" lon="12.29369">
        <ele>2667.8</ele>
        <time>2017-02-26T12:11:07Z</time>
      </trkpt>
      <trkpt lat="46.8492" lon="12.29369">
        <ele>2667.31</ele>
        <time>2017-02-26T12:11:26Z</time>
      </trkpt>
      <trkpt lat="46.84918" lon="12.29374">
        <ele>2668.28</ele>
        <time>2017-02-26T12:11:41Z</time>
      </trkpt>
      <trkpt lat="46.84918" lon="12.29381">
        <ele>2669.72</ele>
        <time>2017-02-26T12:11:58Z</time>
      </trkpt>
      <trkpt lat="46.84917" lon="12.29387">
        <ele>2671.16</ele>
        <time>2017-02-26T12:12:13Z</time>
      </trkpt>
      <trkpt lat="46.84918" lon="12.29393">
        <ele>2672.6</ele>
        <time>2017-02-26T12:12:27Z</time>
      </trkpt>
      <trkpt lat="46.84921" lon="12.29392">
        <ele>2674.04</ele>
        <time>2017-02-26T12:12:42Z</time>
      </trkpt>
      <trkpt lat="46.84918" lon="12.29393">
        <ele>2674.04</ele>
        <time>2017-02-26T12:13:03Z</time>
      </trkpt>
      <trkpt lat="46.84921" lon="12.29389">
        <ele>2675.01</ele>
        <time>2017-02-26T12:13:19Z</time>
      </trkpt>
      <trkpt lat="46.84924" lon="12.29385">
        <ele>2676.45</ele>
        <time>2017-02-26T12:13:32Z</time>
      </trkpt>
      <trkpt lat="46.84926" lon="12.29384">
        <ele>2676.45</ele>
        <time>2017-02-26T12:13:48Z</time>
      </trkpt>
      <trkpt lat="46.84926" lon="12.29389">
        <ele>2677.41</ele>
        <time>2017-02-26T12:14:05Z</time>
      </trkpt>
      <trkpt lat="46.84925" lon="12.29392">
        <ele>2677.41</ele>
        <time>2017-02-26T12:14:22Z</time>
      </trkpt>
      <trkpt lat="46.84926" lon="12.29391">
        <ele>2678.37</ele>
        <time>2017-02-26T12:14:39Z</time>
      </trkpt>
      <trkpt lat="46.8493" lon="12.2939">
        <ele>2679.81</ele>
        <time>2017-02-26T12:14:59Z</time>
      </trkpt>
      <trkpt lat="46.84932" lon="12.29387">
        <ele>2681.25</ele>
        <time>2017-02-26T12:15:09Z</time>
      </trkpt>
      <trkpt lat="46.84935" lon="12.29384">
        <ele>2680.77</ele>
        <time>2017-02-26T12:15:23Z</time>
      </trkpt>
      <trkpt lat="46.84934" lon="12.29382">
        <ele>2682.7</ele>
        <time>2017-02-26T12:15:36Z</time>
      </trkpt>
      <trkpt lat="46.84934" lon="12.29385">
        <ele>2682.7</ele>
        <time>2017-02-26T12:15:51Z</time>
      </trkpt>
      <trkpt lat="46.84934" lon="12.29387">
        <ele>2682.7</ele>
        <time>2017-02-26T12:16:07Z</time>
      </trkpt>
      <trkpt lat="46.84934" lon="12.29394">
        <ele>2684.14</ele>
        <time>2017-02-26T12:16:22Z</time>
      </trkpt>
      <trkpt lat="46.84934" lon="12.29399">
        <ele>2685.1</ele>
        <time>2017-02-26T12:16:36Z</time>
      </trkpt>
      <trkpt lat="46.84933" lon="12.29405">
        <ele>2686.54</ele>
        <time>2017-02-26T12:16:53Z</time>
      </trkpt>
      <trkpt lat="46.84931" lon="12.2941">
        <ele>2687.5</ele>
        <time>2017-02-26T12:17:07Z</time>
      </trkpt>
      <trkpt lat="46.8493" lon="12.29413">
        <ele>2688.94</ele>
        <time>2017-02-26T12:17:21Z</time>
      </trkpt>
      <trkpt lat="46.84929" lon="12.29417">
        <ele>2689.91</ele>
        <time>2017-02-26T12:17:36Z</time>
      </trkpt>
      <trkpt lat="46.84925" lon="12.29422">
        <ele>2691.35</ele>
        <time>2017-02-26T12:17:50Z</time>
      </trkpt>
      <trkpt lat="46.84927" lon="12.29427">
        <ele>2692.31</ele>
        <time>2017-02-26T12:18:08Z</time>
      </trkpt>
      <trkpt lat="46.84927" lon="12.29433">
        <ele>2693.75</ele>
        <time>2017-02-26T12:18:24Z</time>
      </trkpt>
      <trkpt lat="46.84927" lon="12.29438">
        <ele>2695.19</ele>
        <time>2017-02-26T12:18:39Z</time>
      </trkpt>
      <trkpt lat="46.84928" lon="12.29444">
        <ele>2696.64</ele>
        <time>2017-02-26T12:18:54Z</time>
      </trkpt>
      <trkpt lat="46.84927" lon="12.29449">
        <ele>2698.08</ele>
        <time>2017-02-26T12:19:10Z</time>
      </trkpt>
      <trkpt lat="46.84926" lon="12.29451">
        <ele>2698.56</ele>
        <time>2017-02-26T12:19:25Z</time>
      </trkpt>
      <trkpt lat="46.84925" lon="12.29457">
        <ele>2700</ele>
        <time>2017-02-26T12:19:40Z</time>
      </trkpt>
      <trkpt lat="46.84923" lon="12.2946">
        <ele>2700.96</ele>
        <time>2017-02-26T12:19:53Z</time>
      </trkpt>
      <trkpt lat="46.84921" lon="12.29465">
        <ele>2702.88</ele>
        <time>2017-02-26T12:20:08Z</time>
      </trkpt>
      <trkpt lat="46.84918" lon="12.29472">
        <ele>2703.36</ele>
        <time>2017-02-26T12:20:23Z</time>
      </trkpt>
      <trkpt lat="46.84916" lon="12.29473">
        <ele>2703.85</ele>
        <time>2017-02-26T12:20:42Z</time>
      </trkpt>
      <trkpt lat="46.84908" lon="12.29478">
        <ele>2703.36</ele>
        <time>2017-02-26T12:20:59Z</time>
      </trkpt>
      <trkpt lat="46.84902" lon="12.2948">
        <ele>2704.33</ele>
        <time>2017-02-26T12:21:12Z</time>
      </trkpt>
      <trkpt lat="46.84895" lon="12.29482">
        <ele>2704.33</ele>
        <time>2017-02-26T12:21:31Z</time>
      </trkpt>
      <trkpt lat="46.84892" lon="12.29488">
        <ele>2706.25</ele>
        <time>2017-02-26T12:21:49Z</time>
      </trkpt>
      <trkpt lat="46.84889" lon="12.29496">
        <ele>2705.77</ele>
        <time>2017-02-26T12:22:08Z</time>
      </trkpt>
      <trkpt lat="46.84883" lon="12.29502">
        <ele>2706.73</ele>
        <time>2017-02-26T12:22:26Z</time>
      </trkpt>
      <trkpt lat="46.8488" lon="12.2951">
        <ele>2707.21</ele>
        <time>2017-02-26T12:22:39Z</time>
      </trkpt>
      <trkpt lat="46.84877" lon="12.29515">
        <ele>2707.21</ele>
        <time>2017-02-26T12:22:54Z</time>
      </trkpt>
      <trkpt lat="46.84874" lon="12.2952">
        <ele>2708.17</ele>
        <time>2017-02-26T12:23:07Z</time>
      </trkpt>
      <trkpt lat="46.8487" lon="12.29523">
        <ele>2710.09</ele>
        <time>2017-02-26T12:23:24Z</time>
      </trkpt>
      <trkpt lat="46.84865" lon="12.29525">
        <ele>2711.54</ele>
        <time>2017-02-26T12:23:44Z</time>
      </trkpt>
      <trkpt lat="46.84859" lon="12.29527">
        <ele>2713.46</ele>
        <time>2017-02-26T12:24:03Z</time>
      </trkpt>
      <trkpt lat="46.84856" lon="12.29534">
        <ele>2714.9</ele>
        <time>2017-02-26T12:24:21Z</time>
      </trkpt>
      <trkpt lat="46.84853" lon="12.29538">
        <ele>2715.38</ele>
        <time>2017-02-26T12:24:35Z</time>
      </trkpt>
      <trkpt lat="46.84847" lon="12.29542">
        <ele>2716.34</ele>
        <time>2017-02-26T12:24:52Z</time>
      </trkpt>
      <trkpt lat="46.84844" lon="12.29548">
        <ele>2717.78</ele>
        <time>2017-02-26T12:25:08Z</time>
      </trkpt>
      <trkpt lat="46.8484" lon="12.29553">
        <ele>2719.23</ele>
        <time>2017-02-26T12:25:25Z</time>
      </trkpt>
      <trkpt lat="46.84837" lon="12.29557">
        <ele>2720.67</ele>
        <time>2017-02-26T12:25:40Z</time>
      </trkpt>
      <trkpt lat="46.84834" lon="12.2956">
        <ele>2722.11</ele>
        <time>2017-02-26T12:25:54Z</time>
      </trkpt>
      <trkpt lat="46.84831" lon="12.2956">
        <ele>2724.03</ele>
        <time>2017-02-26T12:26:09Z</time>
      </trkpt>
      <trkpt lat="46.84831" lon="12.2956">
        <ele>2723.55</ele>
        <time>2017-02-26T12:26:29Z</time>
      </trkpt>
      <trkpt lat="46.8483" lon="12.2956">
        <ele>2723.55</ele>
        <time>2017-02-26T12:26:56Z</time>
      </trkpt>
      <trkpt lat="46.8483" lon="12.29567">
        <ele>2724.03</ele>
        <time>2017-02-26T12:27:13Z</time>
      </trkpt>
      <trkpt lat="46.84829" lon="12.29572">
        <ele>2725.48</ele>
        <time>2017-02-26T12:27:29Z</time>
      </trkpt>
      <trkpt lat="46.84828" lon="12.29575">
        <ele>2726.44</ele>
        <time>2017-02-26T12:27:53Z</time>
      </trkpt>
      <trkpt lat="46.84827" lon="12.29575">
        <ele>2727.4</ele>
        <time>2017-02-26T12:28:09Z</time>
      </trkpt>
      <trkpt lat="46.84825" lon="12.29572">
        <ele>2728.36</ele>
        <time>2017-02-26T12:28:29Z</time>
      </trkpt>
      <trkpt lat="46.84821" lon="12.2957">
        <ele>2729.32</ele>
        <time>2017-02-26T12:28:44Z</time>
      </trkpt>
      <trkpt lat="46.84822" lon="12.29582">
        <ele>2730.28</ele>
        <time>2017-02-26T12:29:00Z</time>
      </trkpt>
      <trkpt lat="46.8482" lon="12.29586">
        <ele>2733.17</ele>
        <time>2017-02-26T12:29:17Z</time>
      </trkpt>
      <trkpt lat="46.84817" lon="12.29582">
        <ele>2733.17</ele>
        <time>2017-02-26T12:29:31Z</time>
      </trkpt>
      <trkpt lat="46.84815" lon="12.29578">
        <ele>2734.61</ele>
        <time>2017-02-26T12:29:47Z</time>
      </trkpt>
      <trkpt lat="46.84813" lon="12.29576">
        <ele>2735.09</ele>
        <time>2017-02-26T12:30:03Z</time>
      </trkpt>
      <trkpt lat="46.84811" lon="12.2958">
        <ele>2736.53</ele>
        <time>2017-02-26T12:30:20Z</time>
      </trkpt>
      <trkpt lat="46.8481" lon="12.29584">
        <ele>2737.49</ele>
        <time>2017-02-26T12:30:35Z</time>
      </trkpt>
      <trkpt lat="46.84809" lon="12.29589">
        <ele>2738.45</ele>
        <time>2017-02-26T12:30:53Z</time>
      </trkpt>
      <trkpt lat="46.84807" lon="12.29594">
        <ele>2739.89</ele>
        <time>2017-02-26T12:31:07Z</time>
      </trkpt>
      <trkpt lat="46.84807" lon="12.29599">
        <ele>2740.86</ele>
        <time>2017-02-26T12:31:23Z</time>
      </trkpt>
      <trkpt lat="46.84804" lon="12.29595">
        <ele>2741.82</ele>
        <time>2017-02-26T12:31:39Z</time>
      </trkpt>
      <trkpt lat="46.84803" lon="12.29592">
        <ele>2742.3</ele>
        <time>2017-02-26T12:31:57Z</time>
      </trkpt>
      <trkpt lat="46.848" lon="12.29591">
        <ele>2743.26</ele>
        <time>2017-02-26T12:32:13Z</time>
      </trkpt>
      <trkpt lat="46.848" lon="12.29598">
        <ele>2744.22</ele>
        <time>2017-02-26T12:32:26Z</time>
      </trkpt>
      <trkpt lat="46.848" lon="12.29602">
        <ele>2744.22</ele>
        <time>2017-02-26T12:32:41Z</time>
      </trkpt>
      <trkpt lat="46.848" lon="12.296">
        <ele>2744.7</ele>
        <time>2017-02-26T12:32:55Z</time>
      </trkpt>
      <trkpt lat="46.84798" lon="12.29596">
        <ele>2744.22</ele>
        <time>2017-02-26T12:33:09Z</time>
      </trkpt>
      <trkpt lat="46.84798" lon="12.29594">
        <ele>2744.7</ele>
        <time>2017-02-26T12:33:29Z</time>
      </trkpt>
      <trkpt lat="46.84797" lon="12.29594">
        <ele>2744.7</ele>
        <time>2017-02-26T12:33:52Z</time>
      </trkpt>
      <trkpt lat="46.84797" lon="12.29596">
        <ele>2745.18</ele>
        <time>2017-02-26T12:34:08Z</time>
      </trkpt>
      <trkpt lat="46.84798" lon="12.29597">
        <ele>2744.22</ele>
        <time>2017-02-26T12:34:23Z</time>
      </trkpt>
      <trkpt lat="46.84798" lon="12.29596">
        <ele>2743.74</ele>
        <time>2017-02-26T12:35:01Z</time>
      </trkpt>
      <trkpt lat="46.84799" lon="12.29596">
        <ele>2743.74</ele>
        <time>2017-02-26T12:35:42Z</time>
      </trkpt>
      <trkpt lat="46.84799" lon="12.29595">
        <ele>2744.22</ele>
        <time>2017-02-26T12:36:03Z</time>
      </trkpt>
      <trkpt lat="46.84799" lon="12.29594">
        <ele>2743.74</ele>
        <time>2017-02-26T12:36:42Z</time>
      </trkpt>
      <trkpt lat="46.84802" lon="12.29595">
        <ele>2743.74</ele>
        <time>2017-02-26T12:37:06Z</time>
      </trkpt>
      <trkpt lat="46.84806" lon="12.29597">
        <ele>2743.74</ele>
        <time>2017-02-26T12:37:26Z</time>
      </trkpt>
      <trkpt lat="46.84808" lon="12.29598">
        <ele>2743.74</ele>
        <time>2017-02-26T12:37:56Z</time>
      </trkpt>
      <trkpt lat="46.84805" lon="12.29595">
        <ele>2744.22</ele>
        <time>2017-02-26T12:38:35Z</time>
      </trkpt>
      <trkpt lat="46.84803" lon="12.29593">
        <ele>2744.22</ele>
        <time>2017-02-26T12:39:11Z</time>
      </trkpt>
      <trkpt lat="46.84801" lon="12.29594">
        <ele>2744.22</ele>
        <time>2017-02-26T12:39:26Z</time>
      </trkpt>
      <trkpt lat="46.848" lon="12.29595">
        <ele>2744.7</ele>
        <time>2017-02-26T12:39:50Z</time>
      </trkpt>
      <trkpt lat="46.84801" lon="12.29595">
        <ele>2744.22</ele>
        <time>2017-02-26T12:40:23Z</time>
      </trkpt>
      <trkpt lat="46.84799" lon="12.29595">
        <ele>2744.7</ele>
        <time>2017-02-26T12:40:49Z</time>
      </trkpt>
      <trkpt lat="46.84799" lon="12.29594">
        <ele>2745.18</ele>
        <time>2017-02-26T12:41:15Z</time>
      </trkpt>
      <trkpt lat="46.84799" lon="12.29593">
        <ele>2745.18</ele>
        <time>2017-02-26T12:41:57Z</time>
      </trkpt>
      <trkpt lat="46.848" lon="12.29594">
        <ele>2745.18</ele>
        <time>2017-02-26T12:42:39Z</time>
      </trkpt>
      <trkpt lat="46.84799" lon="12.29594">
        <ele>2745.66</ele>
        <time>2017-02-26T12:43:17Z</time>
      </trkpt>
      <trkpt lat="46.84799" lon="12.29593">
        <ele>2745.66</ele>
        <time>2017-02-26T12:43:49Z</time>
      </trkpt>
      <trkpt lat="46.848" lon="12.29593">
        <ele>2745.66</ele>
        <time>2017-02-26T12:44:30Z</time>
      </trkpt>
      <trkpt lat="46.84799" lon="12.29594">
        <ele>2746.62</ele>
        <time>2017-02-26T12:45:10Z</time>
      </trkpt>
      <trkpt lat="46.84797" lon="12.29595">
        <ele>2747.59</ele>
        <time>2017-02-26T12:45:27Z</time>
      </trkpt>
      <trkpt lat="46.84797" lon="12.29596">
        <ele>2748.07</ele>
        <time>2017-02-26T12:45:44Z</time>
      </trkpt>
      <trkpt lat="46.84796" lon="12.29598">
        <ele>2749.51</ele>
        <time>2017-02-26T12:45:59Z</time>
      </trkpt>
      <trkpt lat="46.84798" lon="12.29601">
        <ele>2749.99</ele>
        <time>2017-02-26T12:46:12Z</time>
      </trkpt>
      <trkpt lat="46.84798" lon="12.29603">
        <ele>2750.47</ele>
        <time>2017-02-26T12:46:30Z</time>
      </trkpt>
      <trkpt lat="46.84798" lon="12.29607">
        <ele>2750.95</ele>
        <time>2017-02-26T12:46:42Z</time>
      </trkpt>
      <trkpt lat="46.84798" lon="12.29611">
        <ele>2752.39</ele>
        <time>2017-02-26T12:46:54Z</time>
      </trkpt>
      <trkpt lat="46.848" lon="12.29611">
        <ele>2752.39</ele>
        <time>2017-02-26T12:47:13Z</time>
      </trkpt>
      <trkpt lat="46.84804" lon="12.29613">
        <ele>2753.35</ele>
        <time>2017-02-26T12:47:38Z</time>
      </trkpt>
      <trkpt lat="46.84808" lon="12.29612">
        <ele>2753.35</ele>
        <time>2017-02-26T12:48:04Z</time>
      </trkpt>
      <trkpt lat="46.84806" lon="12.29613">
        <ele>2754.31</ele>
        <time>2017-02-26T12:48:21Z</time>
      </trkpt>
      <trkpt lat="46.84805" lon="12.29615">
        <ele>2755.76</ele>
        <time>2017-02-26T12:48:32Z</time>
      </trkpt>
      <trkpt lat="46.84808" lon="12.29614">
        <ele>2755.76</ele>
        <time>2017-02-26T12:48:49Z</time>
      </trkpt>
      <trkpt lat="46.84803" lon="12.29613">
        <ele>2756.24</ele>
        <time>2017-02-26T12:49:15Z</time>
      </trkpt>
      <trkpt lat="46.84801" lon="12.29614">
        <ele>2756.72</ele>
        <time>2017-02-26T12:49:31Z</time>
      </trkpt>
      <trkpt lat="46.848" lon="12.29615">
        <ele>2758.16</ele>
        <time>2017-02-26T12:49:51Z</time>
      </trkpt>
      <trkpt lat="46.848" lon="12.29617">
        <ele>2758.64</ele>
        <time>2017-02-26T12:50:06Z</time>
      </trkpt>
      <trkpt lat="46.84799" lon="12.2962">
        <ele>2759.6</ele>
        <time>2017-02-26T12:50:16Z</time>
      </trkpt>
      <trkpt lat="46.848" lon="12.29622">
        <ele>2760.08</ele>
        <time>2017-02-26T12:50:27Z</time>
      </trkpt>
      <trkpt lat="46.84797" lon="12.29625">
        <ele>2761.04</ele>
        <time>2017-02-26T12:50:39Z</time>
      </trkpt>
      <trkpt lat="46.84796" lon="12.29628">
        <ele>2762.49</ele>
        <time>2017-02-26T12:50:51Z</time>
      </trkpt>
      <trkpt lat="46.84794" lon="12.2963">
        <ele>2762.49</ele>
        <time>2017-02-26T12:51:03Z</time>
      </trkpt>
      <trkpt lat="46.84792" lon="12.2963">
        <ele>2762.97</ele>
        <time>2017-02-26T12:51:20Z</time>
      </trkpt>
      <trkpt lat="46.84791" lon="12.29634">
        <ele>2763.45</ele>
        <time>2017-02-26T12:51:33Z</time>
      </trkpt>
      <trkpt lat="46.84789" lon="12.29637">
        <ele>2764.89</ele>
        <time>2017-02-26T12:51:44Z</time>
      </trkpt>
      <trkpt lat="46.84789" lon="12.29641">
        <ele>2765.37</ele>
        <time>2017-02-26T12:51:56Z</time>
      </trkpt>
      <trkpt lat="46.8479" lon="12.29642">
        <ele>2765.85</ele>
        <time>2017-02-26T12:52:08Z</time>
      </trkpt>
      <trkpt lat="46.84789" lon="12.29643">
        <ele>2766.33</ele>
        <time>2017-02-26T12:52:22Z</time>
      </trkpt>
      <trkpt lat="46.84787" lon="12.29646">
        <ele>2767.29</ele>
        <time>2017-02-26T12:52:35Z</time>
      </trkpt>
      <trkpt lat="46.84786" lon="12.29647">
        <ele>2767.77</ele>
        <time>2017-02-26T12:52:55Z</time>
      </trkpt>
      <trkpt lat="46.84784" lon="12.29648">
        <ele>2768.73</ele>
        <time>2017-02-26T12:53:10Z</time>
      </trkpt>
      <trkpt lat="46.84786" lon="12.29647">
        <ele>2768.73</ele>
        <time>2017-02-26T12:53:30Z</time>
      </trkpt>
      <trkpt lat="46.84785" lon="12.29651">
        <ele>2769.7</ele>
        <time>2017-02-26T12:53:45Z</time>
      </trkpt>
      <trkpt lat="46.84781" lon="12.29651">
        <ele>2771.62</ele>
        <time>2017-02-26T12:53:57Z</time>
      </trkpt>
      <trkpt lat="46.84781" lon="12.29652">
        <ele>2772.58</ele>
        <time>2017-02-26T12:54:10Z</time>
      </trkpt>
      <trkpt lat="46.84778" lon="12.29654">
        <ele>2774.02</ele>
        <time>2017-02-26T12:54:29Z</time>
      </trkpt>
      <trkpt lat="46.84775" lon="12.29653">
        <ele>2775.46</ele>
        <time>2017-02-26T12:54:44Z</time>
      </trkpt>
      <trkpt lat="46.84777" lon="12.29653">
        <ele>2777.39</ele>
        <time>2017-02-26T12:54:57Z</time>
      </trkpt>
      <trkpt lat="46.84778" lon="12.29655">
        <ele>2776.91</ele>
        <time>2017-02-26T12:55:21Z</time>
      </trkpt>
      <trkpt lat="46.84776" lon="12.29658">
        <ele>2778.35</ele>
        <time>2017-02-26T12:55:43Z</time>
      </trkpt>
      <trkpt lat="46.84779" lon="12.29662">
        <ele>2779.31</ele>
        <time>2017-02-26T12:55:55Z</time>
      </trkpt>
      <trkpt lat="46.84776" lon="12.29667">
        <ele>2780.27</ele>
        <time>2017-02-26T12:56:08Z</time>
      </trkpt>
      <trkpt lat="46.84774" lon="12.29669">
        <ele>2780.75</ele>
        <time>2017-02-26T12:56:28Z</time>
      </trkpt>
      <trkpt lat="46.84774" lon="12.29668">
        <ele>2780.75</ele>
        <time>2017-02-26T12:56:44Z</time>
      </trkpt>
      <trkpt lat="46.84773" lon="12.29669">
        <ele>2780.75</ele>
        <time>2017-02-26T12:57:05Z</time>
      </trkpt>
      <trkpt lat="46.84772" lon="12.29668">
        <ele>2780.75</ele>
        <time>2017-02-26T12:57:26Z</time>
      </trkpt>
      <trkpt lat="46.84772" lon="12.2967">
        <ele>2778.83</ele>
        <time>2017-02-26T12:57:36Z</time>
      </trkpt>
      <trkpt lat="46.84772" lon="12.29671">
        <ele>2780.75</ele>
        <time>2017-02-26T12:57:41Z</time>
      </trkpt>
      <trkpt lat="46.84772" lon="12.29667">
        <ele>2780.75</ele>
        <time>2017-02-26T12:58:03Z</time>
      </trkpt>
      <trkpt lat="46.84772" lon="12.29669">
        <ele>2781.23</ele>
        <time>2017-02-26T12:58:14Z</time>
      </trkpt>
      <trkpt lat="46.84775" lon="12.29669">
        <ele>2781.23</ele>
        <time>2017-02-26T12:58:27Z</time>
      </trkpt>
      <trkpt lat="46.84774" lon="12.29668">
        <ele>2781.23</ele>
        <time>2017-02-26T12:58:42Z</time>
      </trkpt>
      <trkpt lat="46.84775" lon="12.29669">
        <ele>2781.23</ele>
        <time>2017-02-26T12:59:01Z</time>
      </trkpt>
      <trkpt lat="46.84774" lon="12.29668">
        <ele>2781.71</ele>
        <time>2017-02-26T12:59:20Z</time>
      </trkpt>
      <trkpt lat="46.84774" lon="12.29669">
        <ele>2781.71</ele>
        <time>2017-02-26T12:59:37Z</time>
      </trkpt>
      <trkpt lat="46.84774" lon="12.29671">
        <ele>2781.71</ele>
        <time>2017-02-26T13:00:13Z</time>
      </trkpt>
      <trkpt lat="46.84775" lon="12.29668">
        <ele>2781.71</ele>
        <time>2017-02-26T13:00:29Z</time>
      </trkpt>
      <trkpt lat="46.84774" lon="12.29668">
        <ele>2781.71</ele>
        <time>2017-02-26T13:00:47Z</time>
      </trkpt>
      <trkpt lat="46.84774" lon="12.29669">
        <ele>2781.23</ele>
        <time>2017-02-26T13:01:05Z</time>
      </trkpt>
      <trkpt lat="46.84774" lon="12.29669">
        <ele>2781.71</ele>
        <time>2017-02-26T13:01:29Z</time>
      </trkpt>
      <trkpt lat="46.84774" lon="12.29668">
        <ele>2781.23</ele>
        <time>2017-02-26T13:01:51Z</time>
      </trkpt>
      <trkpt lat="46.84773" lon="12.2967">
        <ele>2781.71</ele>
        <time>2017-02-26T13:02:14Z</time>
      </trkpt>
      <trkpt lat="46.84772" lon="12.29674">
        <ele>2781.71</ele>
        <time>2017-02-26T13:02:31Z</time>
      </trkpt>
      <trkpt lat="46.84771" lon="12.29672">
        <ele>2781.71</ele>
        <time>2017-02-26T13:02:45Z</time>
      </trkpt>
      <trkpt lat="46.84771" lon="12.29672">
        <ele>2781.71</ele>
        <time>2017-02-26T13:03:00Z</time>
      </trkpt>
      <trkpt lat="46.84773" lon="12.29671">
        <ele>2781.71</ele>
        <time>2017-02-26T13:03:21Z</time>
      </trkpt>
      <trkpt lat="46.84773" lon="12.29671">
        <ele>2781.71</ele>
        <time>2017-02-26T13:03:40Z</time>
      </trkpt>
      <trkpt lat="46.84772" lon="12.2967">
        <ele>2781.71</ele>
        <time>2017-02-26T13:04:08Z</time>
      </trkpt>
      <trkpt lat="46.84772" lon="12.2967">
        <ele>2781.71</ele>
        <time>2017-02-26T13:04:10Z</time>
      </trkpt>
      <trkpt lat="46.84771" lon="12.29671">
        <ele>2781.23</ele>
        <time>2017-02-26T13:04:24Z</time>
      </trkpt>
      <trkpt lat="46.84771" lon="12.29673">
        <ele>2781.23</ele>
        <time>2017-02-26T13:04:42Z</time>
      </trkpt>
      <trkpt lat="46.8477" lon="12.29672">
        <ele>2781.23</ele>
        <time>2017-02-26T13:05:05Z</time>
      </trkpt>
      <trkpt lat="46.84772" lon="12.29674">
        <ele>2781.23</ele>
        <time>2017-02-26T13:05:29Z</time>
      </trkpt>
      <trkpt lat="46.8477" lon="12.29674">
        <ele>2781.71</ele>
        <time>2017-02-26T13:05:45Z</time>
      </trkpt>
      <trkpt lat="46.84772" lon="12.29672">
        <ele>2781.71</ele>
        <time>2017-02-26T13:06:01Z</time>
      </trkpt>
      <trkpt lat="46.84772" lon="12.29673">
        <ele>2781.71</ele>
        <time>2017-02-26T13:06:32Z</time>
      </trkpt>
      <trkpt lat="46.84773" lon="12.29671">
        <ele>2780.75</ele>
        <time>2017-02-26T13:06:59Z</time>
      </trkpt>
      <trkpt lat="46.84773" lon="12.29668">
        <ele>2781.23</ele>
        <time>2017-02-26T13:07:21Z</time>
      </trkpt>
      <trkpt lat="46.84774" lon="12.2967">
        <ele>2781.71</ele>
        <time>2017-02-26T13:07:36Z</time>
      </trkpt>
      <trkpt lat="46.84773" lon="12.29671">
        <ele>2781.23</ele>
        <time>2017-02-26T13:07:56Z</time>
      </trkpt>
      <trkpt lat="46.84769" lon="12.29673">
        <ele>2781.23</ele>
        <time>2017-02-26T13:08:15Z</time>
      </trkpt>
      <trkpt lat="46.84769" lon="12.29675">
        <ele>2781.23</ele>
        <time>2017-02-26T13:08:32Z</time>
      </trkpt>
      <trkpt lat="46.84769" lon="12.29674">
        <ele>2781.71</ele>
        <time>2017-02-26T13:09:06Z</time>
      </trkpt>
      <trkpt lat="46.84771" lon="12.29673">
        <ele>2782.19</ele>
        <time>2017-02-26T13:09:25Z</time>
      </trkpt>
      <trkpt lat="46.8477" lon="12.29673">
        <ele>2781.23</ele>
        <time>2017-02-26T13:09:46Z</time>
      </trkpt>
      <trkpt lat="46.8477" lon="12.29674">
        <ele>2781.71</ele>
        <time>2017-02-26T13:10:14Z</time>
      </trkpt>
      <trkpt lat="46.84769" lon="12.29673">
        <ele>2782.19</ele>
        <time>2017-02-26T13:10:36Z</time>
      </trkpt>
      <trkpt lat="46.8477" lon="12.29673">
        <ele>2781.71</ele>
        <time>2017-02-26T13:11:00Z</time>
      </trkpt>
      <trkpt lat="46.84772" lon="12.29672">
        <ele>2781.23</ele>
        <time>2017-02-26T13:11:20Z</time>
      </trkpt>
      <trkpt lat="46.84772" lon="12.29674">
        <ele>2781.71</ele>
        <time>2017-02-26T13:11:32Z</time>
      </trkpt>
      <trkpt lat="46.84771" lon="12.29675">
        <ele>2781.71</ele>
        <time>2017-02-26T13:11:51Z</time>
      </trkpt>
      <trkpt lat="46.84771" lon="12.29673">
        <ele>2781.71</ele>
        <time>2017-02-26T13:12:09Z</time>
      </trkpt>
      <trkpt lat="46.8477" lon="12.29675">
        <ele>2781.23</ele>
        <time>2017-02-26T13:12:24Z</time>
      </trkpt>
      <trkpt lat="46.84771" lon="12.29672">
        <ele>2781.23</ele>
        <time>2017-02-26T13:12:39Z</time>
      </trkpt>
      <trkpt lat="46.84771" lon="12.29672">
        <ele>2781.23</ele>
        <time>2017-02-26T13:12:54Z</time>
      </trkpt>
      <trkpt lat="46.84773" lon="12.29671">
        <ele>2781.71</ele>
        <time>2017-02-26T13:13:07Z</time>
      </trkpt>
      <trkpt lat="46.84773" lon="12.2967">
        <ele>2779.79</ele>
        <time>2017-02-26T13:13:24Z</time>
      </trkpt>
      <trkpt lat="46.84774" lon="12.29667">
        <ele>2779.79</ele>
        <time>2017-02-26T13:13:37Z</time>
      </trkpt>
      <trkpt lat="46.84775" lon="12.29663">
        <ele>2778.83</ele>
        <time>2017-02-26T13:13:54Z</time>
      </trkpt>
      <trkpt lat="46.84775" lon="12.29658">
        <ele>2777.87</ele>
        <time>2017-02-26T13:14:11Z</time>
      </trkpt>
      <trkpt lat="46.84776" lon="12.29651">
        <ele>2774.98</ele>
        <time>2017-02-26T13:14:24Z</time>
      </trkpt>
      <trkpt lat="46.84777" lon="12.29649">
        <ele>2774.5</ele>
        <time>2017-02-26T13:14:40Z</time>
      </trkpt>
      <trkpt lat="46.84778" lon="12.29644">
        <ele>2773.06</ele>
        <time>2017-02-26T13:14:55Z</time>
      </trkpt>
      <trkpt lat="46.84779" lon="12.2964">
        <ele>2772.58</ele>
        <time>2017-02-26T13:15:12Z</time>
      </trkpt>
      <trkpt lat="46.8478" lon="12.29633">
        <ele>2770.66</ele>
        <time>2017-02-26T13:15:31Z</time>
      </trkpt>
      <trkpt lat="46.84782" lon="12.29635">
        <ele>2769.7</ele>
        <time>2017-02-26T13:15:45Z</time>
      </trkpt>
      <trkpt lat="46.84785" lon="12.29633">
        <ele>2766.81</ele>
        <time>2017-02-26T13:15:59Z</time>
      </trkpt>
      <trkpt lat="46.8479" lon="12.29632">
        <ele>2763.93</ele>
        <time>2017-02-26T13:16:16Z</time>
      </trkpt>
      <trkpt lat="46.84791" lon="12.29629">
        <ele>2762.97</ele>
        <time>2017-02-26T13:16:37Z</time>
      </trkpt>
      <trkpt lat="46.84792" lon="12.29625">
        <ele>2762.49</ele>
        <time>2017-02-26T13:16:53Z</time>
      </trkpt>
      <trkpt lat="46.84792" lon="12.29621">
        <ele>2761.04</ele>
        <time>2017-02-26T13:17:13Z</time>
      </trkpt>
      <trkpt lat="46.84791" lon="12.2962">
        <ele>2761.52</ele>
        <time>2017-02-26T13:17:32Z</time>
      </trkpt>
      <trkpt lat="46.84794" lon="12.2962">
        <ele>2760.56</ele>
        <time>2017-02-26T13:17:52Z</time>
      </trkpt>
      <trkpt lat="46.84793" lon="12.29618">
        <ele>2760.08</ele>
        <time>2017-02-26T13:18:12Z</time>
      </trkpt>
      <trkpt lat="46.84794" lon="12.29616">
        <ele>2760.08</ele>
        <time>2017-02-26T13:18:34Z</time>
      </trkpt>
      <trkpt lat="46.84793" lon="12.29617">
        <ele>2759.6</ele>
        <time>2017-02-26T13:19:02Z</time>
      </trkpt>
      <trkpt lat="46.84798" lon="12.29616">
        <ele>2759.12</ele>
        <time>2017-02-26T13:19:26Z</time>
      </trkpt>
      <trkpt lat="46.84796" lon="12.29614">
        <ele>2758.16</ele>
        <time>2017-02-26T13:19:52Z</time>
      </trkpt>
      <trkpt lat="46.84795" lon="12.29617">
        <ele>2757.68</ele>
        <time>2017-02-26T13:20:08Z</time>
      </trkpt>
      <trkpt lat="46.84796" lon="12.29616">
        <ele>2757.2</ele>
        <time>2017-02-26T13:20:28Z</time>
      </trkpt>
      <trkpt lat="46.84797" lon="12.2961">
        <ele>2754.8</ele>
        <time>2017-02-26T13:20:45Z</time>
      </trkpt>
      <trkpt lat="46.84797" lon="12.29609">
        <ele>2754.31</ele>
        <time>2017-02-26T13:21:00Z</time>
      </trkpt>
      <trkpt lat="46.84798" lon="12.29609">
        <ele>2752.87</ele>
        <time>2017-02-26T13:21:16Z</time>
      </trkpt>
      <trkpt lat="46.84797" lon="12.29606">
        <ele>2752.87</ele>
        <time>2017-02-26T13:21:33Z</time>
      </trkpt>
      <trkpt lat="46.84796" lon="12.29602">
        <ele>2751.43</ele>
        <time>2017-02-26T13:21:47Z</time>
      </trkpt>
      <trkpt lat="46.84794" lon="12.29599">
        <ele>2749.99</ele>
        <time>2017-02-26T13:22:03Z</time>
      </trkpt>
      <trkpt lat="46.84798" lon="12.29594">
        <ele>2747.59</ele>
        <time>2017-02-26T13:22:16Z</time>
      </trkpt>
      <trkpt lat="46.84797" lon="12.29594">
        <ele>2747.59</ele>
        <time>2017-02-26T13:22:31Z</time>
      </trkpt>
      <trkpt lat="46.84798" lon="12.29596">
        <ele>2747.59</ele>
        <time>2017-02-26T13:22:50Z</time>
      </trkpt>
      <trkpt lat="46.84801" lon="12.29595">
        <ele>2747.1</ele>
        <time>2017-02-26T13:23:18Z</time>
      </trkpt>
      <trkpt lat="46.848" lon="12.29596">
        <ele>2747.1</ele>
        <time>2017-02-26T13:23:52Z</time>
      </trkpt>
      <trkpt lat="46.84797" lon="12.29594">
        <ele>2747.1</ele>
        <time>2017-02-26T13:24:36Z</time>
      </trkpt>
      <trkpt lat="46.84799" lon="12.29595">
        <ele>2747.59</ele>
        <time>2017-02-26T13:25:14Z</time>
      </trkpt>
      <trkpt lat="46.84798" lon="12.29593">
        <ele>2747.59</ele>
        <time>2017-02-26T13:25:53Z</time>
      </trkpt>
      <trkpt lat="46.84798" lon="12.29594">
        <ele>2747.59</ele>
        <time>2017-02-26T13:26:27Z</time>
      </trkpt>
      <trkpt lat="46.84798" lon="12.29595">
        <ele>2748.07</ele>
        <time>2017-02-26T13:26:59Z</time>
      </trkpt>
      <trkpt lat="46.84798" lon="12.29591">
        <ele>2748.07</ele>
        <time>2017-02-26T13:27:30Z</time>
      </trkpt>
      <trkpt lat="46.84798" lon="12.29595">
        <ele>2748.07</ele>
        <time>2017-02-26T13:27:56Z</time>
      </trkpt>
      <trkpt lat="46.84799" lon="12.29596">
        <ele>2748.55</ele>
        <time>2017-02-26T13:28:32Z</time>
      </trkpt>
      <trkpt lat="46.84799" lon="12.29596">
        <ele>2748.55</ele>
        <time>2017-02-26T13:29:06Z</time>
      </trkpt>
      <trkpt lat="46.84799" lon="12.29596">
        <ele>2748.55</ele>
        <time>2017-02-26T13:29:26Z</time>
      </trkpt>
      <trkpt lat="46.84798" lon="12.29596">
        <ele>2749.51</ele>
        <time>2017-02-26T13:29:47Z</time>
      </trkpt>
      <trkpt lat="46.848" lon="12.29594">
        <ele>2749.51</ele>
        <time>2017-02-26T13:30:09Z</time>
      </trkpt>
      <trkpt lat="46.84799" lon="12.29595">
        <ele>2749.51</ele>
        <time>2017-02-26T13:30:25Z</time>
      </trkpt>
      <trkpt lat="46.84798" lon="12.29596">
        <ele>2749.51</ele>
        <time>2017-02-26T13:30:44Z</time>
      </trkpt>
      <trkpt lat="46.84798" lon="12.29596">
        <ele>2749.51</ele>
        <time>2017-02-26T13:31:02Z</time>
      </trkpt>
      <trkpt lat="46.84798" lon="12.29597">
        <ele>2749.03</ele>
        <time>2017-02-26T13:31:23Z</time>
      </trkpt>
      <trkpt lat="46.848" lon="12.29598">
        <ele>2748.55</ele>
        <time>2017-02-26T13:31:34Z</time>
      </trkpt>
      <trkpt lat="46.84803" lon="12.29591">
        <ele>2745.18</ele>
        <time>2017-02-26T13:31:38Z</time>
      </trkpt>
      <trkpt lat="46.84804" lon="12.29589">
        <ele>2745.18</ele>
        <time>2017-02-26T13:31:53Z</time>
      </trkpt>
      <trkpt lat="46.84807" lon="12.29591">
        <ele>2743.74</ele>
        <time>2017-02-26T13:31:56Z</time>
      </trkpt>
      <trkpt lat="46.84808" lon="12.29586">
        <ele>2742.3</ele>
        <time>2017-02-26T13:32:00Z</time>
      </trkpt>
      <trkpt lat="46.84808" lon="12.29588">
        <ele>2742.3</ele>
        <time>2017-02-26T13:32:24Z</time>
      </trkpt>
      <trkpt lat="46.84809" lon="12.29586">
        <ele>2741.82</ele>
        <time>2017-02-26T13:32:51Z</time>
      </trkpt>
      <trkpt lat="46.84811" lon="12.29581">
        <ele>2741.82</ele>
        <time>2017-02-26T13:33:16Z</time>
      </trkpt>
      <trkpt lat="46.8481" lon="12.29584">
        <ele>2742.3</ele>
        <time>2017-02-26T13:33:42Z</time>
      </trkpt>
      <trkpt lat="46.84809" lon="12.29585">
        <ele>2741.82</ele>
        <time>2017-02-26T13:34:10Z</time>
      </trkpt>
      <trkpt lat="46.84809" lon="12.29589">
        <ele>2741.82</ele>
        <time>2017-02-26T13:34:45Z</time>
      </trkpt>
      <trkpt lat="46.84809" lon="12.29587">
        <ele>2742.3</ele>
        <time>2017-02-26T13:35:15Z</time>
      </trkpt>
      <trkpt lat="46.84809" lon="12.29584">
        <ele>2741.82</ele>
        <time>2017-02-26T13:35:49Z</time>
      </trkpt>
      <trkpt lat="46.84809" lon="12.29583">
        <ele>2741.82</ele>
        <time>2017-02-26T13:36:20Z</time>
      </trkpt>
      <trkpt lat="46.8481" lon="12.29585">
        <ele>2741.82</ele>
        <time>2017-02-26T13:36:52Z</time>
      </trkpt>
      <trkpt lat="46.84809" lon="12.29586">
        <ele>2741.82</ele>
        <time>2017-02-26T13:37:17Z</time>
      </trkpt>
      <trkpt lat="46.84809" lon="12.29584">
        <ele>2741.82</ele>
        <time>2017-02-26T13:37:45Z</time>
      </trkpt>
      <trkpt lat="46.8481" lon="12.29585">
        <ele>2741.82</ele>
        <time>2017-02-26T13:38:15Z</time>
      </trkpt>
      <trkpt lat="46.84809" lon="12.29585">
        <ele>2741.82</ele>
        <time>2017-02-26T13:38:36Z</time>
      </trkpt>
      <trkpt lat="46.84808" lon="12.29586">
        <ele>2741.82</ele>
        <time>2017-02-26T13:39:00Z</time>
      </trkpt>
      <trkpt lat="46.84809" lon="12.29585">
        <ele>2741.34</ele>
        <time>2017-02-26T13:39:29Z</time>
      </trkpt>
      <trkpt lat="46.84809" lon="12.29585">
        <ele>2741.34</ele>
        <time>2017-02-26T13:39:31Z</time>
      </trkpt>
      <trkpt lat="46.84811" lon="12.2958">
        <ele>2739.89</ele>
        <time>2017-02-26T13:39:35Z</time>
      </trkpt>
      <trkpt lat="46.84811" lon="12.29579">
        <ele>2738.45</ele>
        <time>2017-02-26T13:39:49Z</time>
      </trkpt>
      <trkpt lat="46.84812" lon="12.29579">
        <ele>2738.93</ele>
        <time>2017-02-26T13:40:12Z</time>
      </trkpt>
      <trkpt lat="46.84813" lon="12.29578">
        <ele>2738.93</ele>
        <time>2017-02-26T13:40:33Z</time>
      </trkpt>
      <trkpt lat="46.84812" lon="12.2958">
        <ele>2738.45</ele>
        <time>2017-02-26T13:40:53Z</time>
      </trkpt>
      <trkpt lat="46.84813" lon="12.29583">
        <ele>2738.93</ele>
        <time>2017-02-26T13:41:10Z</time>
      </trkpt>
      <trkpt lat="46.84818" lon="12.29587">
        <ele>2736.53</ele>
        <time>2017-02-26T13:41:14Z</time>
      </trkpt>
      <trkpt lat="46.84823" lon="12.29577">
        <ele>2733.17</ele>
        <time>2017-02-26T13:41:18Z</time>
      </trkpt>
      <trkpt lat="46.84823" lon="12.29575">
        <ele>2732.68</ele>
        <time>2017-02-26T13:41:20Z</time>
      </trkpt>
      <trkpt lat="46.84822" lon="12.29572">
        <ele>2732.2</ele>
        <time>2017-02-26T13:41:41Z</time>
      </trkpt>
      <trkpt lat="46.84822" lon="12.29572">
        <ele>2732.2</ele>
        <time>2017-02-26T13:41:42Z</time>
      </trkpt>
      <trkpt lat="46.8483" lon="12.29566">
        <ele>2727.88</ele>
        <time>2017-02-26T13:41:48Z</time>
      </trkpt>
      <trkpt lat="46.84834" lon="12.29557">
        <ele>2725.96</ele>
        <time>2017-02-26T13:41:51Z</time>
      </trkpt>
      <trkpt lat="46.84837" lon="12.29554">
        <ele>2724.99</ele>
        <time>2017-02-26T13:41:53Z</time>
      </trkpt>
      <trkpt lat="46.84844" lon="12.29556">
        <ele>2721.15</ele>
        <time>2017-02-26T13:41:56Z</time>
      </trkpt>
      <trkpt lat="46.84846" lon="12.29552">
        <ele>2720.19</ele>
        <time>2017-02-26T13:41:57Z</time>
      </trkpt>
      <trkpt lat="46.84848" lon="12.29548">
        <ele>2720.19</ele>
        <time>2017-02-26T13:41:58Z</time>
      </trkpt>
      <trkpt lat="46.84851" lon="12.29543">
        <ele>2719.71</ele>
        <time>2017-02-26T13:41:59Z</time>
      </trkpt>
      <trkpt lat="46.84856" lon="12.29534">
        <ele>2717.3</ele>
        <time>2017-02-26T13:42:02Z</time>
      </trkpt>
      <trkpt lat="46.84858" lon="12.29528">
        <ele>2716.82</ele>
        <time>2017-02-26T13:42:06Z</time>
      </trkpt>
      <trkpt lat="46.8486" lon="12.29522">
        <ele>2715.86</ele>
        <time>2017-02-26T13:42:13Z</time>
      </trkpt>
      <trkpt lat="46.84861" lon="12.29527">
        <ele>2714.9</ele>
        <time>2017-02-26T13:42:25Z</time>
      </trkpt>
      <trkpt lat="46.84863" lon="12.2953">
        <ele>2714.9</ele>
        <time>2017-02-26T13:42:33Z</time>
      </trkpt>
      <trkpt lat="46.84863" lon="12.29532">
        <ele>2714.9</ele>
        <time>2017-02-26T13:42:34Z</time>
      </trkpt>
      <trkpt lat="46.8487" lon="12.29529">
        <ele>2713.46</ele>
        <time>2017-02-26T13:42:38Z</time>
      </trkpt>
      <trkpt lat="46.84882" lon="12.29508">
        <ele>2712.02</ele>
        <time>2017-02-26T13:42:42Z</time>
      </trkpt>
      <trkpt lat="46.84884" lon="12.29503">
        <ele>2710.09</ele>
        <time>2017-02-26T13:42:43Z</time>
      </trkpt>
      <trkpt lat="46.84888" lon="12.29492">
        <ele>2708.17</ele>
        <time>2017-02-26T13:42:51Z</time>
      </trkpt>
      <trkpt lat="46.84889" lon="12.29491">
        <ele>2708.17</ele>
        <time>2017-02-26T13:42:53Z</time>
      </trkpt>
      <trkpt lat="46.84903" lon="12.29483">
        <ele>2706.73</ele>
        <time>2017-02-26T13:42:57Z</time>
      </trkpt>
      <trkpt lat="46.84914" lon="12.29478">
        <ele>2704.81</ele>
        <time>2017-02-26T13:43:00Z</time>
      </trkpt>
      <trkpt lat="46.84918" lon="12.29473">
        <ele>2705.29</ele>
        <time>2017-02-26T13:43:11Z</time>
      </trkpt>
      <trkpt lat="46.84917" lon="12.29473">
        <ele>2705.77</ele>
        <time>2017-02-26T13:43:30Z</time>
      </trkpt>
      <trkpt lat="46.84918" lon="12.29474">
        <ele>2705.77</ele>
        <time>2017-02-26T13:43:52Z</time>
      </trkpt>
      <trkpt lat="46.84921" lon="12.29467">
        <ele>2704.81</ele>
        <time>2017-02-26T13:44:07Z</time>
      </trkpt>
      <trkpt lat="46.84928" lon="12.29452">
        <ele>2702.4</ele>
        <time>2017-02-26T13:44:17Z</time>
      </trkpt>
      <trkpt lat="46.8493" lon="12.29447">
        <ele>2700</ele>
        <time>2017-02-26T13:44:19Z</time>
      </trkpt>
      <trkpt lat="46.84929" lon="12.29444">
        <ele>2699.52</ele>
        <time>2017-02-26T13:44:20Z</time>
      </trkpt>
      <trkpt lat="46.84929" lon="12.29441">
        <ele>2699.04</ele>
        <time>2017-02-26T13:44:21Z</time>
      </trkpt>
      <trkpt lat="46.84928" lon="12.29433">
        <ele>2696.15</ele>
        <time>2017-02-26T13:44:25Z</time>
      </trkpt>
      <trkpt lat="46.84928" lon="12.29427">
        <ele>2694.71</ele>
        <time>2017-02-26T13:44:36Z</time>
      </trkpt>
      <trkpt lat="46.8493" lon="12.29423">
        <ele>2693.75</ele>
        <time>2017-02-26T13:44:52Z</time>
      </trkpt>
      <trkpt lat="46.84929" lon="12.29423">
        <ele>2692.79</ele>
        <time>2017-02-26T13:45:07Z</time>
      </trkpt>
      <trkpt lat="46.8493" lon="12.2942">
        <ele>2692.79</ele>
        <time>2017-02-26T13:45:24Z</time>
      </trkpt>
      <trkpt lat="46.84937" lon="12.29399">
        <ele>2689.43</ele>
        <time>2017-02-26T13:45:30Z</time>
      </trkpt>
      <trkpt lat="46.84937" lon="12.29392">
        <ele>2687.98</ele>
        <time>2017-02-26T13:45:31Z</time>
      </trkpt>
      <trkpt lat="46.84938" lon="12.29365">
        <ele>2684.14</ele>
        <time>2017-02-26T13:45:35Z</time>
      </trkpt>
      <trkpt lat="46.8494" lon="12.29338">
        <ele>2679.81</ele>
        <time>2017-02-26T13:45:40Z</time>
      </trkpt>
      <trkpt lat="46.8494" lon="12.29334">
        <ele>2679.81</ele>
        <time>2017-02-26T13:45:41Z</time>
      </trkpt>
      <trkpt lat="46.8494" lon="12.2933">
        <ele>2678.85</ele>
        <time>2017-02-26T13:45:42Z</time>
      </trkpt>
      <trkpt lat="46.84928" lon="12.29335">
        <ele>2674.04</ele>
        <time>2017-02-26T13:45:45Z</time>
      </trkpt>
      <trkpt lat="46.84924" lon="12.29341">
        <ele>2672.12</ele>
        <time>2017-02-26T13:45:46Z</time>
      </trkpt>
      <trkpt lat="46.84912" lon="12.29361">
        <ele>2666.83</ele>
        <time>2017-02-26T13:45:50Z</time>
      </trkpt>
      <trkpt lat="46.84908" lon="12.29371">
        <ele>2662.99</ele>
        <time>2017-02-26T13:45:55Z</time>
      </trkpt>
      <trkpt lat="46.84908" lon="12.29371">
        <ele>2666.35</ele>
        <time>2017-02-26T13:45:57Z</time>
      </trkpt>
      <trkpt lat="46.84908" lon="12.29371">
        <ele>2665.39</ele>
        <time>2017-02-26T13:45:58Z</time>
      </trkpt>
      <trkpt lat="46.84908" lon="12.29372">
        <ele>2664.43</ele>
        <time>2017-02-26T13:46:17Z</time>
      </trkpt>
      <trkpt lat="46.84908" lon="12.29372">
        <ele>2664.91</ele>
        <time>2017-02-26T13:46:42Z</time>
      </trkpt>
      <trkpt lat="46.84904" lon="12.29378">
        <ele>2661.55</ele>
        <time>2017-02-26T13:47:04Z</time>
      </trkpt>
      <trkpt lat="46.84903" lon="12.29378">
        <ele>2660.11</ele>
        <time>2017-02-26T13:47:23Z</time>
      </trkpt>
      <trkpt lat="46.84901" lon="12.29379">
        <ele>2659.14</ele>
        <time>2017-02-26T13:47:40Z</time>
      </trkpt>
      <trkpt lat="46.84899" lon="12.29378">
        <ele>2656.74</ele>
        <time>2017-02-26T13:47:51Z</time>
      </trkpt>
      <trkpt lat="46.84893" lon="12.2937">
        <ele>2653.86</ele>
        <time>2017-02-26T13:47:56Z</time>
      </trkpt>
      <trkpt lat="46.84892" lon="12.29371">
        <ele>2651.45</ele>
        <time>2017-02-26T13:47:59Z</time>
      </trkpt>
      <trkpt lat="46.84894" lon="12.29373">
        <ele>2650.97</ele>
        <time>2017-02-26T13:48:23Z</time>
      </trkpt>
      <trkpt lat="46.84894" lon="12.29375">
        <ele>2650.97</ele>
        <time>2017-02-26T13:48:47Z</time>
      </trkpt>
      <trkpt lat="46.84895" lon="12.29373">
        <ele>2650.49</ele>
        <time>2017-02-26T13:49:06Z</time>
      </trkpt>
      <trkpt lat="46.84894" lon="12.29372">
        <ele>2650.01</ele>
        <time>2017-02-26T13:49:10Z</time>
      </trkpt>
      <trkpt lat="46.84889" lon="12.29367">
        <ele>2646.65</ele>
        <time>2017-02-26T13:49:13Z</time>
      </trkpt>
      <trkpt lat="46.84887" lon="12.29361">
        <ele>2644.72</ele>
        <time>2017-02-26T13:49:15Z</time>
      </trkpt>
      <trkpt lat="46.84877" lon="12.29362">
        <ele>2638.96</ele>
        <time>2017-02-26T13:49:19Z</time>
      </trkpt>
      <trkpt lat="46.84874" lon="12.29356">
        <ele>2635.59</ele>
        <time>2017-02-26T13:49:22Z</time>
      </trkpt>
      <trkpt lat="46.84868" lon="12.29358">
        <ele>2631.75</ele>
        <time>2017-02-26T13:49:24Z</time>
      </trkpt>
      <trkpt lat="46.84864" lon="12.2935">
        <ele>2628.38</ele>
        <time>2017-02-26T13:49:27Z</time>
      </trkpt>
      <trkpt lat="46.8486" lon="12.29351">
        <ele>2624.06</ele>
        <time>2017-02-26T13:49:29Z</time>
      </trkpt>
      <trkpt lat="46.84859" lon="12.29341">
        <ele>2620.21</ele>
        <time>2017-02-26T13:49:32Z</time>
      </trkpt>
      <trkpt lat="46.84859" lon="12.29341">
        <ele>2618.29</ele>
        <time>2017-02-26T13:49:35Z</time>
      </trkpt>
      <trkpt lat="46.84851" lon="12.29339">
        <ele>2615.4</ele>
        <time>2017-02-26T13:49:39Z</time>
      </trkpt>
      <trkpt lat="46.84853" lon="12.2934">
        <ele>2614.92</ele>
        <time>2017-02-26T13:49:48Z</time>
      </trkpt>
      <trkpt lat="46.84848" lon="12.29329">
        <ele>2611.08</ele>
        <time>2017-02-26T13:49:53Z</time>
      </trkpt>
      <trkpt lat="46.84847" lon="12.29332">
        <ele>2608.67</ele>
        <time>2017-02-26T13:49:56Z</time>
      </trkpt>
      <trkpt lat="46.84848" lon="12.29334">
        <ele>2608.19</ele>
        <time>2017-02-26T13:50:13Z</time>
      </trkpt>
      <trkpt lat="46.84848" lon="12.29332">
        <ele>2608.19</ele>
        <time>2017-02-26T13:50:27Z</time>
      </trkpt>
      <trkpt lat="46.84843" lon="12.29333">
        <ele>2605.31</ele>
        <time>2017-02-26T13:50:34Z</time>
      </trkpt>
      <trkpt lat="46.84841" lon="12.29323">
        <ele>2601.95</ele>
        <time>2017-02-26T13:50:38Z</time>
      </trkpt>
      <trkpt lat="46.84842" lon="12.29316">
        <ele>2599.06</ele>
        <time>2017-02-26T13:50:42Z</time>
      </trkpt>
      <trkpt lat="46.84836" lon="12.2931">
        <ele>2594.25</ele>
        <time>2017-02-26T13:50:47Z</time>
      </trkpt>
      <trkpt lat="46.84835" lon="12.29311">
        <ele>2593.77</ele>
        <time>2017-02-26T13:50:48Z</time>
      </trkpt>
      <trkpt lat="46.8483" lon="12.2931">
        <ele>2590.89</ele>
        <time>2017-02-26T13:50:52Z</time>
      </trkpt>
      <trkpt lat="46.84829" lon="12.29306">
        <ele>2588.01</ele>
        <time>2017-02-26T13:50:55Z</time>
      </trkpt>
      <trkpt lat="46.84823" lon="12.29303">
        <ele>2584.64</ele>
        <time>2017-02-26T13:50:59Z</time>
      </trkpt>
      <trkpt lat="46.84821" lon="12.29294">
        <ele>2581.28</ele>
        <time>2017-02-26T13:51:02Z</time>
      </trkpt>
      <trkpt lat="46.8482" lon="12.29289">
        <ele>2580.8</ele>
        <time>2017-02-26T13:51:04Z</time>
      </trkpt>
      <trkpt lat="46.84813" lon="12.29292">
        <ele>2576.47</ele>
        <time>2017-02-26T13:51:07Z</time>
      </trkpt>
      <trkpt lat="46.84813" lon="12.29286">
        <ele>2573.11</ele>
        <time>2017-02-26T13:51:10Z</time>
      </trkpt>
      <trkpt lat="46.84814" lon="12.29286">
        <ele>2573.11</ele>
        <time>2017-02-26T13:51:11Z</time>
      </trkpt>
      <trkpt lat="46.84814" lon="12.29287">
        <ele>2573.11</ele>
        <time>2017-02-26T13:51:34Z</time>
      </trkpt>
      <trkpt lat="46.84814" lon="12.29286">
        <ele>2573.11</ele>
        <time>2017-02-26T13:51:51Z</time>
      </trkpt>
      <trkpt lat="46.84804" lon="12.2928">
        <ele>2569.26</ele>
        <time>2017-02-26T13:51:55Z</time>
      </trkpt>
      <trkpt lat="46.84801" lon="12.29271">
        <ele>2566.38</ele>
        <time>2017-02-26T13:51:57Z</time>
      </trkpt>
      <trkpt lat="46.84798" lon="12.29264">
        <ele>2564.93</ele>
        <time>2017-02-26T13:52:00Z</time>
      </trkpt>
      <trkpt lat="46.84793" lon="12.29262">
        <ele>2559.65</ele>
        <time>2017-02-26T13:52:02Z</time>
      </trkpt>
      <trkpt lat="46.84784" lon="12.29258">
        <ele>2555.32</ele>
        <time>2017-02-26T13:52:05Z</time>
      </trkpt>
      <trkpt lat="46.84779" lon="12.29267">
        <ele>2553.4</ele>
        <time>2017-02-26T13:52:07Z</time>
      </trkpt>
      <trkpt lat="46.84771" lon="12.29263">
        <ele>2548.59</ele>
        <time>2017-02-26T13:52:11Z</time>
      </trkpt>
      <trkpt lat="46.84766" lon="12.29267">
        <ele>2546.67</ele>
        <time>2017-02-26T13:52:13Z</time>
      </trkpt>
      <trkpt lat="46.84758" lon="12.29279">
        <ele>2544.75</ele>
        <time>2017-02-26T13:52:16Z</time>
      </trkpt>
      <trkpt lat="46.84751" lon="12.29278">
        <ele>2542.82</ele>
        <time>2017-02-26T13:52:18Z</time>
      </trkpt>
      <trkpt lat="46.84748" lon="12.29275">
        <ele>2540.9</ele>
        <time>2017-02-26T13:52:19Z</time>
      </trkpt>
      <trkpt lat="46.84735" lon="12.29283">
        <ele>2538.02</ele>
        <time>2017-02-26T13:52:22Z</time>
      </trkpt>
      <trkpt lat="46.84721" lon="12.29301">
        <ele>2534.65</ele>
        <time>2017-02-26T13:52:27Z</time>
      </trkpt>
      <trkpt lat="46.84716" lon="12.29301">
        <ele>2533.21</ele>
        <time>2017-02-26T13:52:29Z</time>
      </trkpt>
      <trkpt lat="46.84716" lon="12.29297">
        <ele>2530.81</ele>
        <time>2017-02-26T13:52:30Z</time>
      </trkpt>
      <trkpt lat="46.84716" lon="12.29293">
        <ele>2529.85</ele>
        <time>2017-02-26T13:52:31Z</time>
      </trkpt>
      <trkpt lat="46.84713" lon="12.29289">
        <ele>2528.89</ele>
        <time>2017-02-26T13:52:32Z</time>
      </trkpt>
      <trkpt lat="46.84709" lon="12.29288">
        <ele>2527.44</ele>
        <time>2017-02-26T13:52:33Z</time>
      </trkpt>
      <trkpt lat="46.84701" lon="12.29288">
        <ele>2523.6</ele>
        <time>2017-02-26T13:52:36Z</time>
      </trkpt>
      <trkpt lat="46.84703" lon="12.29286">
        <ele>2520.23</ele>
        <time>2017-02-26T13:52:38Z</time>
      </trkpt>
      <trkpt lat="46.84704" lon="12.29287">
        <ele>2520.23</ele>
        <time>2017-02-26T13:52:43Z</time>
      </trkpt>
      <trkpt lat="46.84706" lon="12.29274">
        <ele>2517.83</ele>
        <time>2017-02-26T13:52:46Z</time>
      </trkpt>
      <trkpt lat="46.84701" lon="12.29272">
        <ele>2516.39</ele>
        <time>2017-02-26T13:52:47Z</time>
      </trkpt>
      <trkpt lat="46.84698" lon="12.29272">
        <ele>2514.47</ele>
        <time>2017-02-26T13:52:48Z</time>
      </trkpt>
      <trkpt lat="46.84696" lon="12.29272">
        <ele>2513.5</ele>
        <time>2017-02-26T13:52:49Z</time>
      </trkpt>
      <trkpt lat="46.84695" lon="12.29269">
        <ele>2512.54</ele>
        <time>2017-02-26T13:52:50Z</time>
      </trkpt>
      <trkpt lat="46.847" lon="12.2926">
        <ele>2509.18</ele>
        <time>2017-02-26T13:52:52Z</time>
      </trkpt>
      <trkpt lat="46.84699" lon="12.29255">
        <ele>2508.22</ele>
        <time>2017-02-26T13:52:53Z</time>
      </trkpt>
      <trkpt lat="46.84694" lon="12.29251">
        <ele>2506.29</ele>
        <time>2017-02-26T13:52:54Z</time>
      </trkpt>
      <trkpt lat="46.84689" lon="12.2925">
        <ele>2504.37</ele>
        <time>2017-02-26T13:52:55Z</time>
      </trkpt>
      <trkpt lat="46.84686" lon="12.29247">
        <ele>2503.41</ele>
        <time>2017-02-26T13:52:56Z</time>
      </trkpt>
      <trkpt lat="46.84685" lon="12.29241">
        <ele>2501.97</ele>
        <time>2017-02-26T13:52:57Z</time>
      </trkpt>
      <trkpt lat="46.8469" lon="12.29226">
        <ele>2498.12</ele>
        <time>2017-02-26T13:52:59Z</time>
      </trkpt>
      <trkpt lat="46.84691" lon="12.29213">
        <ele>2494.28</ele>
        <time>2017-02-26T13:53:02Z</time>
      </trkpt>
      <trkpt lat="46.84688" lon="12.29212">
        <ele>2492.84</ele>
        <time>2017-02-26T13:53:03Z</time>
      </trkpt>
      <trkpt lat="46.84685" lon="12.29212">
        <ele>2491.39</ele>
        <time>2017-02-26T13:53:04Z</time>
      </trkpt>
      <trkpt lat="46.84683" lon="12.2921">
        <ele>2490.91</ele>
        <time>2017-02-26T13:53:05Z</time>
      </trkpt>
      <trkpt lat="46.8468" lon="12.29205">
        <ele>2489.95</ele>
        <time>2017-02-26T13:53:15Z</time>
      </trkpt>
      <trkpt lat="46.8468" lon="12.29204">
        <ele>2488.99</ele>
        <time>2017-02-26T13:53:34Z</time>
      </trkpt>
      <trkpt lat="46.84681" lon="12.29202">
        <ele>2490.43</ele>
        <time>2017-02-26T13:54:01Z</time>
      </trkpt>
      <trkpt lat="46.84681" lon="12.29205">
        <ele>2488.99</ele>
        <time>2017-02-26T13:54:32Z</time>
      </trkpt>
      <trkpt lat="46.84683" lon="12.29201">
        <ele>2488.99</ele>
        <time>2017-02-26T13:54:58Z</time>
      </trkpt>
      <trkpt lat="46.84684" lon="12.292">
        <ele>2489.47</ele>
        <time>2017-02-26T13:55:29Z</time>
      </trkpt>
      <trkpt lat="46.84686" lon="12.29199">
        <ele>2489.47</ele>
        <time>2017-02-26T13:55:48Z</time>
      </trkpt>
      <trkpt lat="46.84684" lon="12.29196">
        <ele>2489.47</ele>
        <time>2017-02-26T13:56:11Z</time>
      </trkpt>
      <trkpt lat="46.84686" lon="12.29178">
        <ele>2487.55</ele>
        <time>2017-02-26T13:56:29Z</time>
      </trkpt>
      <trkpt lat="46.84687" lon="12.29177">
        <ele>2487.55</ele>
        <time>2017-02-26T13:56:45Z</time>
      </trkpt>
      <trkpt lat="46.84687" lon="12.29177">
        <ele>2487.55</ele>
        <time>2017-02-26T13:56:53Z</time>
      </trkpt>
      <trkpt lat="46.84667" lon="12.29179">
        <ele>2485.63</ele>
        <time>2017-02-26T13:56:58Z</time>
      </trkpt>
      <trkpt lat="46.84654" lon="12.29186">
        <ele>2483.22</ele>
        <time>2017-02-26T13:57:00Z</time>
      </trkpt>
      <trkpt lat="46.84642" lon="12.29186">
        <ele>2481.3</ele>
        <time>2017-02-26T13:57:02Z</time>
      </trkpt>
      <trkpt lat="46.84641" lon="12.29174">
        <ele>2477.94</ele>
        <time>2017-02-26T13:57:04Z</time>
      </trkpt>
      <trkpt lat="46.84644" lon="12.29161">
        <ele>2476.49</ele>
        <time>2017-02-26T13:57:06Z</time>
      </trkpt>
      <trkpt lat="46.84643" lon="12.29155">
        <ele>2476.49</ele>
        <time>2017-02-26T13:57:07Z</time>
      </trkpt>
      <trkpt lat="46.84641" lon="12.2915">
        <ele>2475.53</ele>
        <time>2017-02-26T13:57:08Z</time>
      </trkpt>
      <trkpt lat="46.84635" lon="12.2915">
        <ele>2473.13</ele>
        <time>2017-02-26T13:57:10Z</time>
      </trkpt>
      <trkpt lat="46.84632" lon="12.29155">
        <ele>2472.65</ele>
        <time>2017-02-26T13:57:21Z</time>
      </trkpt>
      <trkpt lat="46.84634" lon="12.29156">
        <ele>2472.65</ele>
        <time>2017-02-26T13:57:40Z</time>
      </trkpt>
      <trkpt lat="46.84632" lon="12.29157">
        <ele>2472.17</ele>
        <time>2017-02-26T13:57:55Z</time>
      </trkpt>
      <trkpt lat="46.84629" lon="12.2916">
        <ele>2471.21</ele>
        <time>2017-02-26T13:58:09Z</time>
      </trkpt>
      <trkpt lat="46.84616" lon="12.29167">
        <ele>2469.28</ele>
        <time>2017-02-26T13:58:21Z</time>
      </trkpt>
      <trkpt lat="46.84613" lon="12.29167">
        <ele>2469.28</ele>
        <time>2017-02-26T13:58:31Z</time>
      </trkpt>
      <trkpt lat="46.84608" lon="12.29141">
        <ele>2464.96</ele>
        <time>2017-02-26T13:58:37Z</time>
      </trkpt>
      <trkpt lat="46.84605" lon="12.29129">
        <ele>2461.11</ele>
        <time>2017-02-26T13:58:39Z</time>
      </trkpt>
      <trkpt lat="46.84606" lon="12.29122">
        <ele>2457.75</ele>
        <time>2017-02-26T13:58:40Z</time>
      </trkpt>
      <trkpt lat="46.84605" lon="12.29072">
        <ele>2451.98</ele>
        <time>2017-02-26T13:58:47Z</time>
      </trkpt>
      <trkpt lat="46.846" lon="12.29067">
        <ele>2451.02</ele>
        <time>2017-02-26T13:58:48Z</time>
      </trkpt>
      <trkpt lat="46.8458" lon="12.29042">
        <ele>2447.17</ele>
        <time>2017-02-26T13:58:52Z</time>
      </trkpt>
      <trkpt lat="46.84576" lon="12.29021">
        <ele>2442.85</ele>
        <time>2017-02-26T13:58:55Z</time>
      </trkpt>
      <trkpt lat="46.84576" lon="12.29017">
        <ele>2442.37</ele>
        <time>2017-02-26T13:58:56Z</time>
      </trkpt>
      <trkpt lat="46.84574" lon="12.29011">
        <ele>2440.92</ele>
        <time>2017-02-26T13:58:58Z</time>
      </trkpt>
      <trkpt lat="46.84572" lon="12.2901">
        <ele>2440.92</ele>
        <time>2017-02-26T13:58:59Z</time>
      </trkpt>
      <trkpt lat="46.84568" lon="12.2901">
        <ele>2440.44</ele>
        <time>2017-02-26T13:59:00Z</time>
      </trkpt>
      <trkpt lat="46.84565" lon="12.29012">
        <ele>2439.96</ele>
        <time>2017-02-26T13:59:01Z</time>
      </trkpt>
      <trkpt lat="46.84558" lon="12.29012">
        <ele>2439</ele>
        <time>2017-02-26T13:59:03Z</time>
      </trkpt>
      <trkpt lat="46.84557" lon="12.29005">
        <ele>2437.56</ele>
        <time>2017-02-26T13:59:05Z</time>
      </trkpt>
      <trkpt lat="46.84559" lon="12.29">
        <ele>2437.08</ele>
        <time>2017-02-26T13:59:06Z</time>
      </trkpt>
      <trkpt lat="46.84561" lon="12.28997">
        <ele>2437.08</ele>
        <time>2017-02-26T13:59:07Z</time>
      </trkpt>
      <trkpt lat="46.84554" lon="12.2899">
        <ele>2434.68</ele>
        <time>2017-02-26T13:59:10Z</time>
      </trkpt>
      <trkpt lat="46.84552" lon="12.28992">
        <ele>2434.68</ele>
        <time>2017-02-26T13:59:11Z</time>
      </trkpt>
      <trkpt lat="46.8455" lon="12.28995">
        <ele>2434.2</ele>
        <time>2017-02-26T13:59:12Z</time>
      </trkpt>
      <trkpt lat="46.84547" lon="12.29005">
        <ele>2433.23</ele>
        <time>2017-02-26T13:59:23Z</time>
      </trkpt>
      <trkpt lat="46.84547" lon="12.29004">
        <ele>2433.23</ele>
        <time>2017-02-26T13:59:40Z</time>
      </trkpt>
      <trkpt lat="46.84548" lon="12.29004">
        <ele>2433.23</ele>
        <time>2017-02-26T14:00:03Z</time>
      </trkpt>
      <trkpt lat="46.84547" lon="12.29005">
        <ele>2432.75</ele>
        <time>2017-02-26T14:00:12Z</time>
      </trkpt>
      <trkpt lat="46.84546" lon="12.29007">
        <ele>2432.75</ele>
        <time>2017-02-26T14:00:13Z</time>
      </trkpt>
      <trkpt lat="46.84545" lon="12.29009">
        <ele>2432.75</ele>
        <time>2017-02-26T14:00:14Z</time>
      </trkpt>
      <trkpt lat="46.84543" lon="12.29012">
        <ele>2432.27</ele>
        <time>2017-02-26T14:00:15Z</time>
      </trkpt>
      <trkpt lat="46.84541" lon="12.29014">
        <ele>2431.79</ele>
        <time>2017-02-26T14:00:16Z</time>
      </trkpt>
      <trkpt lat="46.84531" lon="12.29015">
        <ele>2430.83</ele>
        <time>2017-02-26T14:00:18Z</time>
      </trkpt>
      <trkpt lat="46.84525" lon="12.29012">
        <ele>2428.43</ele>
        <time>2017-02-26T14:00:19Z</time>
      </trkpt>
      <trkpt lat="46.8452" lon="12.29006">
        <ele>2426.99</ele>
        <time>2017-02-26T14:00:20Z</time>
      </trkpt>
      <trkpt lat="46.84517" lon="12.28998">
        <ele>2425.54</ele>
        <time>2017-02-26T14:00:21Z</time>
      </trkpt>
      <trkpt lat="46.84517" lon="12.28988">
        <ele>2424.1</ele>
        <time>2017-02-26T14:00:22Z</time>
      </trkpt>
      <trkpt lat="46.84516" lon="12.28979">
        <ele>2422.66</ele>
        <time>2017-02-26T14:00:23Z</time>
      </trkpt>
      <trkpt lat="46.84514" lon="12.28969">
        <ele>2421.22</ele>
        <time>2017-02-26T14:00:24Z</time>
      </trkpt>
      <trkpt lat="46.84513" lon="12.28961">
        <ele>2420.26</ele>
        <time>2017-02-26T14:00:25Z</time>
      </trkpt>
      <trkpt lat="46.84513" lon="12.28953">
        <ele>2419.3</ele>
        <time>2017-02-26T14:00:26Z</time>
      </trkpt>
      <trkpt lat="46.84512" lon="12.28946">
        <ele>2417.37</ele>
        <time>2017-02-26T14:00:27Z</time>
      </trkpt>
      <trkpt lat="46.84506" lon="12.28922">
        <ele>2414.49</ele>
        <time>2017-02-26T14:00:32Z</time>
      </trkpt>
      <trkpt lat="46.84509" lon="12.28913">
        <ele>2413.05</ele>
        <time>2017-02-26T14:00:34Z</time>
      </trkpt>
      <trkpt lat="46.84508" lon="12.28907">
        <ele>2412.09</ele>
        <time>2017-02-26T14:00:36Z</time>
      </trkpt>
      <trkpt lat="46.84508" lon="12.2891">
        <ele>2412.09</ele>
        <time>2017-02-26T14:00:46Z</time>
      </trkpt>
      <trkpt lat="46.84507" lon="12.28911">
        <ele>2411.6</ele>
        <time>2017-02-26T14:01:04Z</time>
      </trkpt>
      <trkpt lat="46.84506" lon="12.28911">
        <ele>2411.6</ele>
        <time>2017-02-26T14:01:27Z</time>
      </trkpt>
      <trkpt lat="46.84505" lon="12.28909">
        <ele>2411.6</ele>
        <time>2017-02-26T14:01:39Z</time>
      </trkpt>
      <trkpt lat="46.84497" lon="12.28887">
        <ele>2409.2</ele>
        <time>2017-02-26T14:01:45Z</time>
      </trkpt>
      <trkpt lat="46.84485" lon="12.28865">
        <ele>2405.84</ele>
        <time>2017-02-26T14:01:55Z</time>
      </trkpt>
      <trkpt lat="46.84483" lon="12.28865">
        <ele>2405.84</ele>
        <time>2017-02-26T14:01:58Z</time>
      </trkpt>
      <trkpt lat="46.84488" lon="12.28855">
        <ele>2403.91</ele>
        <time>2017-02-26T14:02:02Z</time>
      </trkpt>
      <trkpt lat="46.84493" lon="12.28857">
        <ele>2402.95</ele>
        <time>2017-02-26T14:02:15Z</time>
      </trkpt>
      <trkpt lat="46.84496" lon="12.28857">
        <ele>2402.47</ele>
        <time>2017-02-26T14:02:33Z</time>
      </trkpt>
      <trkpt lat="46.84499" lon="12.28857">
        <ele>2401.99</ele>
        <time>2017-02-26T14:02:44Z</time>
      </trkpt>
      <trkpt lat="46.84499" lon="12.28858">
        <ele>2401.99</ele>
        <time>2017-02-26T14:02:49Z</time>
      </trkpt>
      <trkpt lat="46.84506" lon="12.28848">
        <ele>2397.67</ele>
        <time>2017-02-26T14:02:55Z</time>
      </trkpt>
      <trkpt lat="46.84504" lon="12.28843">
        <ele>2396.22</ele>
        <time>2017-02-26T14:02:56Z</time>
      </trkpt>
      <trkpt lat="46.84501" lon="12.28838">
        <ele>2395.26</ele>
        <time>2017-02-26T14:02:57Z</time>
      </trkpt>
      <trkpt lat="46.84499" lon="12.28833">
        <ele>2394.3</ele>
        <time>2017-02-26T14:02:58Z</time>
      </trkpt>
      <trkpt lat="46.8449" lon="12.28822">
        <ele>2391.42</ele>
        <time>2017-02-26T14:03:03Z</time>
      </trkpt>
      <trkpt lat="46.84489" lon="12.28819">
        <ele>2390.46</ele>
        <time>2017-02-26T14:03:08Z</time>
      </trkpt>
      <trkpt lat="46.845" lon="12.2882">
        <ele>2387.57</ele>
        <time>2017-02-26T14:03:18Z</time>
      </trkpt>
      <trkpt lat="46.84508" lon="12.28817">
        <ele>2385.17</ele>
        <time>2017-02-26T14:03:23Z</time>
      </trkpt>
      <trkpt lat="46.84511" lon="12.28819">
        <ele>2384.69</ele>
        <time>2017-02-26T14:03:41Z</time>
      </trkpt>
      <trkpt lat="46.84515" lon="12.28818">
        <ele>2384.21</ele>
        <time>2017-02-26T14:03:42Z</time>
      </trkpt>
      <trkpt lat="46.84523" lon="12.28817">
        <ele>2380.36</ele>
        <time>2017-02-26T14:03:44Z</time>
      </trkpt>
      <trkpt lat="46.84537" lon="12.28815">
        <ele>2376.52</ele>
        <time>2017-02-26T14:03:47Z</time>
      </trkpt>
      <trkpt lat="46.84545" lon="12.28813">
        <ele>2374.59</ele>
        <time>2017-02-26T14:03:49Z</time>
      </trkpt>
      <trkpt lat="46.84547" lon="12.28808">
        <ele>2374.11</ele>
        <time>2017-02-26T14:03:50Z</time>
      </trkpt>
      <trkpt lat="46.84548" lon="12.28801">
        <ele>2372.67</ele>
        <time>2017-02-26T14:03:51Z</time>
      </trkpt>
      <trkpt lat="46.84548" lon="12.28793">
        <ele>2371.23</ele>
        <time>2017-02-26T14:03:52Z</time>
      </trkpt>
      <trkpt lat="46.84548" lon="12.28783">
        <ele>2370.27</ele>
        <time>2017-02-26T14:03:53Z</time>
      </trkpt>
      <trkpt lat="46.84545" lon="12.28775">
        <ele>2368.83</ele>
        <time>2017-02-26T14:03:54Z</time>
      </trkpt>
      <trkpt lat="46.84542" lon="12.28769">
        <ele>2367.38</ele>
        <time>2017-02-26T14:03:55Z</time>
      </trkpt>
      <trkpt lat="46.8454" lon="12.28762">
        <ele>2366.42</ele>
        <time>2017-02-26T14:03:56Z</time>
      </trkpt>
      <trkpt lat="46.84539" lon="12.28756">
        <ele>2365.46</ele>
        <time>2017-02-26T14:03:57Z</time>
      </trkpt>
      <trkpt lat="46.84536" lon="12.2875">
        <ele>2364.02</ele>
        <time>2017-02-26T14:03:58Z</time>
      </trkpt>
      <trkpt lat="46.84533" lon="12.28747">
        <ele>2363.06</ele>
        <time>2017-02-26T14:03:59Z</time>
      </trkpt>
      <trkpt lat="46.84529" lon="12.28746">
        <ele>2362.58</ele>
        <time>2017-02-26T14:04:00Z</time>
      </trkpt>
      <trkpt lat="46.84526" lon="12.28745">
        <ele>2362.1</ele>
        <time>2017-02-26T14:04:01Z</time>
      </trkpt>
      <trkpt lat="46.84522" lon="12.28745">
        <ele>2361.62</ele>
        <time>2017-02-26T14:04:02Z</time>
      </trkpt>
      <trkpt lat="46.84515" lon="12.28742">
        <ele>2361.14</ele>
        <time>2017-02-26T14:04:08Z</time>
      </trkpt>
      <trkpt lat="46.84511" lon="12.28727">
        <ele>2357.29</ele>
        <time>2017-02-26T14:04:13Z</time>
      </trkpt>
      <trkpt lat="46.84509" lon="12.28723">
        <ele>2356.33</ele>
        <time>2017-02-26T14:04:14Z</time>
      </trkpt>
      <trkpt lat="46.84509" lon="12.28718">
        <ele>2355.37</ele>
        <time>2017-02-26T14:04:15Z</time>
      </trkpt>
      <trkpt lat="46.84511" lon="12.28715">
        <ele>2354.89</ele>
        <time>2017-02-26T14:04:16Z</time>
      </trkpt>
      <trkpt lat="46.84514" lon="12.28708">
        <ele>2353.93</ele>
        <time>2017-02-26T14:04:18Z</time>
      </trkpt>
      <trkpt lat="46.84513" lon="12.28704">
        <ele>2352.96</ele>
        <time>2017-02-26T14:04:19Z</time>
      </trkpt>
      <trkpt lat="46.84512" lon="12.28704">
        <ele>2352.48</ele>
        <time>2017-02-26T14:04:21Z</time>
      </trkpt>
      <trkpt lat="46.8451" lon="12.28707">
        <ele>2352</ele>
        <time>2017-02-26T14:04:29Z</time>
      </trkpt>
      <trkpt lat="46.84492" lon="12.28687">
        <ele>2348.16</ele>
        <time>2017-02-26T14:04:35Z</time>
      </trkpt>
      <trkpt lat="46.84488" lon="12.28684">
        <ele>2347.2</ele>
        <time>2017-02-26T14:04:36Z</time>
      </trkpt>
      <trkpt lat="46.84473" lon="12.28655">
        <ele>2342.39</ele>
        <time>2017-02-26T14:04:41Z</time>
      </trkpt>
      <trkpt lat="46.84478" lon="12.28628">
        <ele>2339.02</ele>
        <time>2017-02-26T14:04:45Z</time>
      </trkpt>
      <trkpt lat="46.84479" lon="12.28626">
        <ele>2338.54</ele>
        <time>2017-02-26T14:04:46Z</time>
      </trkpt>
      <trkpt lat="46.84477" lon="12.28623">
        <ele>2338.54</ele>
        <time>2017-02-26T14:04:56Z</time>
      </trkpt>
      <trkpt lat="46.84477" lon="12.28624">
        <ele>2338.06</ele>
        <time>2017-02-26T14:05:15Z</time>
      </trkpt>
      <trkpt lat="46.84479" lon="12.28624">
        <ele>2338.06</ele>
        <time>2017-02-26T14:05:37Z</time>
      </trkpt>
      <trkpt lat="46.84478" lon="12.28626">
        <ele>2338.06</ele>
        <time>2017-02-26T14:05:58Z</time>
      </trkpt>
      <trkpt lat="46.84476" lon="12.28624">
        <ele>2337.1</ele>
        <time>2017-02-26T14:06:22Z</time>
      </trkpt>
      <trkpt lat="46.84477" lon="12.28623">
        <ele>2335.66</ele>
        <time>2017-02-26T14:06:46Z</time>
      </trkpt>
      <trkpt lat="46.84477" lon="12.28623">
        <ele>2339.51</ele>
        <time>2017-02-26T14:06:47Z</time>
      </trkpt>
      <trkpt lat="46.84477" lon="12.28623">
        <ele>2337.58</ele>
        <time>2017-02-26T14:07:11Z</time>
      </trkpt>
      <trkpt lat="46.84477" lon="12.28621">
        <ele>2337.58</ele>
        <time>2017-02-26T14:07:40Z</time>
      </trkpt>
      <trkpt lat="46.84477" lon="12.28621">
        <ele>2337.58</ele>
        <time>2017-02-26T14:07:41Z</time>
      </trkpt>
      <trkpt lat="46.84461" lon="12.28613">
        <ele>2333.74</ele>
        <time>2017-02-26T14:07:48Z</time>
      </trkpt>
      <trkpt lat="46.84459" lon="12.28609">
        <ele>2333.26</ele>
        <time>2017-02-26T14:07:49Z</time>
      </trkpt>
      <trkpt lat="46.84457" lon="12.28599">
        <ele>2331.33</ele>
        <time>2017-02-26T14:07:51Z</time>
      </trkpt>
      <trkpt lat="46.84455" lon="12.28594">
        <ele>2329.41</ele>
        <time>2017-02-26T14:07:52Z</time>
      </trkpt>
      <trkpt lat="46.8445" lon="12.28583">
        <ele>2326.53</ele>
        <time>2017-02-26T14:07:55Z</time>
      </trkpt>
      <trkpt lat="46.84446" lon="12.28568">
        <ele>2322.2</ele>
        <time>2017-02-26T14:07:59Z</time>
      </trkpt>
      <trkpt lat="46.84444" lon="12.28555">
        <ele>2318.84</ele>
        <time>2017-02-26T14:08:02Z</time>
      </trkpt>
      <trkpt lat="46.84435" lon="12.28538">
        <ele>2314.51</ele>
        <time>2017-02-26T14:08:06Z</time>
      </trkpt>
      <trkpt lat="46.8443" lon="12.28527">
        <ele>2313.55</ele>
        <time>2017-02-26T14:08:08Z</time>
      </trkpt>
      <trkpt lat="46.8443" lon="12.28515">
        <ele>2310.19</ele>
        <time>2017-02-26T14:08:10Z</time>
      </trkpt>
      <trkpt lat="46.84433" lon="12.28505">
        <ele>2307.3</ele>
        <time>2017-02-26T14:08:13Z</time>
      </trkpt>
      <trkpt lat="46.84425" lon="12.28501">
        <ele>2305.38</ele>
        <time>2017-02-26T14:08:17Z</time>
      </trkpt>
      <trkpt lat="46.84426" lon="12.28505">
        <ele>2305.86</ele>
        <time>2017-02-26T14:08:34Z</time>
      </trkpt>
      <trkpt lat="46.84428" lon="12.28504">
        <ele>2305.86</ele>
        <time>2017-02-26T14:08:54Z</time>
      </trkpt>
      <trkpt lat="46.84427" lon="12.28505">
        <ele>2305.38</ele>
        <time>2017-02-26T14:09:16Z</time>
      </trkpt>
      <trkpt lat="46.84428" lon="12.28504">
        <ele>2305.86</ele>
        <time>2017-02-26T14:09:35Z</time>
      </trkpt>
      <trkpt lat="46.84428" lon="12.28505">
        <ele>2305.38</ele>
        <time>2017-02-26T14:09:58Z</time>
      </trkpt>
      <trkpt lat="46.84428" lon="12.28505">
        <ele>2301.05</ele>
        <time>2017-02-26T14:09:59Z</time>
      </trkpt>
      <trkpt lat="46.84428" lon="12.28504">
        <ele>2306.34</ele>
        <time>2017-02-26T14:10:00Z</time>
      </trkpt>
      <trkpt lat="46.84429" lon="12.28504">
        <ele>2305.38</ele>
        <time>2017-02-26T14:10:05Z</time>
      </trkpt>
      <trkpt lat="46.84427" lon="12.28504">
        <ele>2305.38</ele>
        <time>2017-02-26T14:10:31Z</time>
      </trkpt>
      <trkpt lat="46.84428" lon="12.28503">
        <ele>2304.9</ele>
        <time>2017-02-26T14:11:05Z</time>
      </trkpt>
      <trkpt lat="46.84427" lon="12.28504">
        <ele>2304.9</ele>
        <time>2017-02-26T14:11:28Z</time>
      </trkpt>
      <trkpt lat="46.84428" lon="12.28504">
        <ele>2304.9</ele>
        <time>2017-02-26T14:11:53Z</time>
      </trkpt>
      <trkpt lat="46.84426" lon="12.28505">
        <ele>2304.9</ele>
        <time>2017-02-26T14:12:24Z</time>
      </trkpt>
      <trkpt lat="46.84426" lon="12.28504">
        <ele>2304.42</ele>
        <time>2017-02-26T14:12:29Z</time>
      </trkpt>
      <trkpt lat="46.84416" lon="12.28484">
        <ele>2301.53</ele>
        <time>2017-02-26T14:12:36Z</time>
      </trkpt>
      <trkpt lat="46.84426" lon="12.2846">
        <ele>2298.17</ele>
        <time>2017-02-26T14:12:43Z</time>
      </trkpt>
      <trkpt lat="46.84423" lon="12.28456">
        <ele>2297.69</ele>
        <time>2017-02-26T14:12:44Z</time>
      </trkpt>
      <trkpt lat="46.8442" lon="12.28453">
        <ele>2296.73</ele>
        <time>2017-02-26T14:12:45Z</time>
      </trkpt>
      <trkpt lat="46.84416" lon="12.28452">
        <ele>2295.77</ele>
        <time>2017-02-26T14:12:46Z</time>
      </trkpt>
      <trkpt lat="46.8441" lon="12.28452">
        <ele>2294.8</ele>
        <time>2017-02-26T14:12:48Z</time>
      </trkpt>
      <trkpt lat="46.84403" lon="12.28444">
        <ele>2292.88</ele>
        <time>2017-02-26T14:12:52Z</time>
      </trkpt>
      <trkpt lat="46.8441" lon="12.28439">
        <ele>2291.92</ele>
        <time>2017-02-26T14:13:02Z</time>
      </trkpt>
      <trkpt lat="46.84411" lon="12.28438">
        <ele>2291.92</ele>
        <time>2017-02-26T14:13:28Z</time>
      </trkpt>
      <trkpt lat="46.84412" lon="12.28429">
        <ele>2290.96</ele>
        <time>2017-02-26T14:13:31Z</time>
      </trkpt>
      <trkpt lat="46.84409" lon="12.28424">
        <ele>2290</ele>
        <time>2017-02-26T14:13:32Z</time>
      </trkpt>
      <trkpt lat="46.84407" lon="12.2842">
        <ele>2288.56</ele>
        <time>2017-02-26T14:13:33Z</time>
      </trkpt>
      <trkpt lat="46.84403" lon="12.28416">
        <ele>2288.08</ele>
        <time>2017-02-26T14:13:34Z</time>
      </trkpt>
      <trkpt lat="46.84392" lon="12.2841">
        <ele>2286.15</ele>
        <time>2017-02-26T14:13:41Z</time>
      </trkpt>
      <trkpt lat="46.84391" lon="12.28408">
        <ele>2285.67</ele>
        <time>2017-02-26T14:13:43Z</time>
      </trkpt>
      <trkpt lat="46.84388" lon="12.28406">
        <ele>2285.19</ele>
        <time>2017-02-26T14:13:45Z</time>
      </trkpt>
      <trkpt lat="46.84382" lon="12.28401">
        <ele>2284.23</ele>
        <time>2017-02-26T14:13:54Z</time>
      </trkpt>
      <trkpt lat="46.84365" lon="12.28391">
        <ele>2280.38</ele>
        <time>2017-02-26T14:13:58Z</time>
      </trkpt>
      <trkpt lat="46.84361" lon="12.28385">
        <ele>2278.94</ele>
        <time>2017-02-26T14:14:00Z</time>
      </trkpt>
      <trkpt lat="46.84376" lon="12.2837">
        <ele>2274.14</ele>
        <time>2017-02-26T14:14:05Z</time>
      </trkpt>
      <trkpt lat="46.84382" lon="12.28366">
        <ele>2273.66</ele>
        <time>2017-02-26T14:14:07Z</time>
      </trkpt>
      <trkpt lat="46.84378" lon="12.28352">
        <ele>2270.77</ele>
        <time>2017-02-26T14:14:11Z</time>
      </trkpt>
      <trkpt lat="46.84375" lon="12.2835">
        <ele>2269.81</ele>
        <time>2017-02-26T14:14:24Z</time>
      </trkpt>
      <trkpt lat="46.84376" lon="12.28351">
        <ele>2269.81</ele>
        <time>2017-02-26T14:14:33Z</time>
      </trkpt>
      <trkpt lat="46.84392" lon="12.28339">
        <ele>2267.41</ele>
        <time>2017-02-26T14:14:39Z</time>
      </trkpt>
      <trkpt lat="46.84394" lon="12.28339">
        <ele>2266.93</ele>
        <time>2017-02-26T14:14:40Z</time>
      </trkpt>
      <trkpt lat="46.84395" lon="12.28337">
        <ele>2266.45</ele>
        <time>2017-02-26T14:14:52Z</time>
      </trkpt>
      <trkpt lat="46.84399" lon="12.28334">
        <ele>2265</ele>
        <time>2017-02-26T14:15:04Z</time>
      </trkpt>
      <trkpt lat="46.84417" lon="12.2832">
        <ele>2261.16</ele>
        <time>2017-02-26T14:15:10Z</time>
      </trkpt>
      <trkpt lat="46.8442" lon="12.28319">
        <ele>2259.72</ele>
        <time>2017-02-26T14:15:11Z</time>
      </trkpt>
      <trkpt lat="46.84425" lon="12.28304">
        <ele>2256.83</ele>
        <time>2017-02-26T14:15:16Z</time>
      </trkpt>
      <trkpt lat="46.84423" lon="12.28301">
        <ele>2255.87</ele>
        <time>2017-02-26T14:15:27Z</time>
      </trkpt>
      <trkpt lat="46.84419" lon="12.28276">
        <ele>2252.51</ele>
        <time>2017-02-26T14:15:33Z</time>
      </trkpt>
      <trkpt lat="46.84416" lon="12.2824">
        <ele>2247.7</ele>
        <time>2017-02-26T14:15:36Z</time>
      </trkpt>
      <trkpt lat="46.84416" lon="12.28229">
        <ele>2247.22</ele>
        <time>2017-02-26T14:15:37Z</time>
      </trkpt>
      <trkpt lat="46.84414" lon="12.28196">
        <ele>2243.85</ele>
        <time>2017-02-26T14:15:41Z</time>
      </trkpt>
      <trkpt lat="46.84406" lon="12.2818">
        <ele>2241.45</ele>
        <time>2017-02-26T14:15:43Z</time>
      </trkpt>
      <trkpt lat="46.84396" lon="12.28154">
        <ele>2239.05</ele>
        <time>2017-02-26T14:15:46Z</time>
      </trkpt>
      <trkpt lat="46.84385" lon="12.2811">
        <ele>2235.68</ele>
        <time>2017-02-26T14:15:52Z</time>
      </trkpt>
      <trkpt lat="46.84372" lon="12.28086">
        <ele>2233.28</ele>
        <time>2017-02-26T14:15:57Z</time>
      </trkpt>
      <trkpt lat="46.8437" lon="12.28064">
        <ele>2231.36</ele>
        <time>2017-02-26T14:16:05Z</time>
      </trkpt>
      <trkpt lat="46.8437" lon="12.28062">
        <ele>2231.36</ele>
        <time>2017-02-26T14:16:18Z</time>
      </trkpt>
      <trkpt lat="46.84358" lon="12.28043">
        <ele>2227.51</ele>
        <time>2017-02-26T14:16:27Z</time>
      </trkpt>
      <trkpt lat="46.84359" lon="12.28041">
        <ele>2227.03</ele>
        <time>2017-02-26T14:16:39Z</time>
      </trkpt>
      <trkpt lat="46.8436" lon="12.28043">
        <ele>2227.03</ele>
        <time>2017-02-26T14:17:00Z</time>
      </trkpt>
      <trkpt lat="46.84359" lon="12.28042">
        <ele>2227.03</ele>
        <time>2017-02-26T14:17:07Z</time>
      </trkpt>
      <trkpt lat="46.84343" lon="12.28033">
        <ele>2224.15</ele>
        <time>2017-02-26T14:17:12Z</time>
      </trkpt>
      <trkpt lat="46.84329" lon="12.28016">
        <ele>2218.86</ele>
        <time>2017-02-26T14:17:17Z</time>
      </trkpt>
      <trkpt lat="46.84324" lon="12.27995">
        <ele>2215.01</ele>
        <time>2017-02-26T14:17:21Z</time>
      </trkpt>
      <trkpt lat="46.84323" lon="12.27991">
        <ele>2214.53</ele>
        <time>2017-02-26T14:17:22Z</time>
      </trkpt>
      <trkpt lat="46.84317" lon="12.27983">
        <ele>2212.61</ele>
        <time>2017-02-26T14:17:24Z</time>
      </trkpt>
      <trkpt lat="46.84316" lon="12.2797">
        <ele>2210.69</ele>
        <time>2017-02-26T14:17:27Z</time>
      </trkpt>
      <trkpt lat="46.84311" lon="12.27958">
        <ele>2208.29</ele>
        <time>2017-02-26T14:17:30Z</time>
      </trkpt>
      <trkpt lat="46.84309" lon="12.27955">
        <ele>2206.84</ele>
        <time>2017-02-26T14:17:32Z</time>
      </trkpt>
      <trkpt lat="46.84315" lon="12.27951">
        <ele>2205.88</ele>
        <time>2017-02-26T14:17:34Z</time>
      </trkpt>
      <trkpt lat="46.84326" lon="12.27949">
        <ele>2203.96</ele>
        <time>2017-02-26T14:17:43Z</time>
      </trkpt>
      <trkpt lat="46.84329" lon="12.27948">
        <ele>2203.96</ele>
        <time>2017-02-26T14:17:54Z</time>
      </trkpt>
      <trkpt lat="46.84327" lon="12.27929">
        <ele>2200.11</ele>
        <time>2017-02-26T14:18:00Z</time>
      </trkpt>
      <trkpt lat="46.84327" lon="12.27928">
        <ele>2198.67</ele>
        <time>2017-02-26T14:18:02Z</time>
      </trkpt>
      <trkpt lat="46.8433" lon="12.27927">
        <ele>2198.19</ele>
        <time>2017-02-26T14:18:16Z</time>
      </trkpt>
      <trkpt lat="46.84332" lon="12.27926">
        <ele>2197.23</ele>
        <time>2017-02-26T14:18:34Z</time>
      </trkpt>
      <trkpt lat="46.8433" lon="12.27923">
        <ele>2196.75</ele>
        <time>2017-02-26T14:18:51Z</time>
      </trkpt>
      <trkpt lat="46.84342" lon="12.27912">
        <ele>2193.87</ele>
        <time>2017-02-26T14:18:58Z</time>
      </trkpt>
      <trkpt lat="46.84342" lon="12.27899">
        <ele>2190.5</ele>
        <time>2017-02-26T14:19:03Z</time>
      </trkpt>
      <trkpt lat="46.84338" lon="12.27895">
        <ele>2189.54</ele>
        <time>2017-02-26T14:19:05Z</time>
      </trkpt>
      <trkpt lat="46.84345" lon="12.27882">
        <ele>2185.69</ele>
        <time>2017-02-26T14:19:10Z</time>
      </trkpt>
      <trkpt lat="46.84341" lon="12.27874">
        <ele>2183.77</ele>
        <time>2017-02-26T14:19:13Z</time>
      </trkpt>
      <trkpt lat="46.8434" lon="12.27877">
        <ele>2183.29</ele>
        <time>2017-02-26T14:19:28Z</time>
      </trkpt>
      <trkpt lat="46.84341" lon="12.27878">
        <ele>2183.29</ele>
        <time>2017-02-26T14:19:54Z</time>
      </trkpt>
      <trkpt lat="46.84339" lon="12.27879">
        <ele>2183.29</ele>
        <time>2017-02-26T14:20:11Z</time>
      </trkpt>
      <trkpt lat="46.8434" lon="12.27876">
        <ele>2183.29</ele>
        <time>2017-02-26T14:20:34Z</time>
      </trkpt>
      <trkpt lat="46.84339" lon="12.27876">
        <ele>2183.29</ele>
        <time>2017-02-26T14:20:48Z</time>
      </trkpt>
      <trkpt lat="46.84339" lon="12.27875">
        <ele>2183.29</ele>
        <time>2017-02-26T14:20:52Z</time>
      </trkpt>
      <trkpt lat="46.84335" lon="12.27866">
        <ele>2181.37</ele>
        <time>2017-02-26T14:20:56Z</time>
      </trkpt>
      <trkpt lat="46.84345" lon="12.27848">
        <ele>2177.52</ele>
        <time>2017-02-26T14:21:00Z</time>
      </trkpt>
      <trkpt lat="46.84366" lon="12.27829">
        <ele>2172.72</ele>
        <time>2017-02-26T14:21:06Z</time>
      </trkpt>
      <trkpt lat="46.84362" lon="12.27814">
        <ele>2170.79</ele>
        <time>2017-02-26T14:21:09Z</time>
      </trkpt>
      <trkpt lat="46.8437" lon="12.27789">
        <ele>2165.51</ele>
        <time>2017-02-26T14:21:14Z</time>
      </trkpt>
      <trkpt lat="46.84367" lon="12.27769">
        <ele>2162.62</ele>
        <time>2017-02-26T14:21:17Z</time>
      </trkpt>
      <trkpt lat="46.8438" lon="12.27754">
        <ele>2159.26</ele>
        <time>2017-02-26T14:21:22Z</time>
      </trkpt>
      <trkpt lat="46.84376" lon="12.27744">
        <ele>2156.37</ele>
        <time>2017-02-26T14:21:26Z</time>
      </trkpt>
      <trkpt lat="46.84375" lon="12.27748">
        <ele>2156.37</ele>
        <time>2017-02-26T14:21:38Z</time>
      </trkpt>
      <trkpt lat="46.84377" lon="12.27748">
        <ele>2156.37</ele>
        <time>2017-02-26T14:21:56Z</time>
      </trkpt>
      <trkpt lat="46.84377" lon="12.27748">
        <ele>2156.37</ele>
        <time>2017-02-26T14:21:58Z</time>
      </trkpt>
      <trkpt lat="46.84385" lon="12.27727">
        <ele>2153.01</ele>
        <time>2017-02-26T14:22:04Z</time>
      </trkpt>
      <trkpt lat="46.84388" lon="12.27723">
        <ele>2152.05</ele>
        <time>2017-02-26T14:22:05Z</time>
      </trkpt>
      <trkpt lat="46.84403" lon="12.27698">
        <ele>2147.72</ele>
        <time>2017-02-26T14:22:11Z</time>
      </trkpt>
      <trkpt lat="46.84397" lon="12.27668">
        <ele>2142.44</ele>
        <time>2017-02-26T14:22:18Z</time>
      </trkpt>
      <trkpt lat="46.84395" lon="12.27653">
        <ele>2139.07</ele>
        <time>2017-02-26T14:22:21Z</time>
      </trkpt>
      <trkpt lat="46.84392" lon="12.2765">
        <ele>2137.15</ele>
        <time>2017-02-26T14:22:24Z</time>
      </trkpt>
      <trkpt lat="46.84393" lon="12.27652">
        <ele>2137.15</ele>
        <time>2017-02-26T14:22:44Z</time>
      </trkpt>
      <trkpt lat="46.8439" lon="12.27649">
        <ele>2137.15</ele>
        <time>2017-02-26T14:23:11Z</time>
      </trkpt>
      <trkpt lat="46.8439" lon="12.27649">
        <ele>2137.15</ele>
        <time>2017-02-26T14:23:32Z</time>
      </trkpt>
      <trkpt lat="46.84386" lon="12.27631">
        <ele>2133.78</ele>
        <time>2017-02-26T14:23:38Z</time>
      </trkpt>
      <trkpt lat="46.84382" lon="12.27617">
        <ele>2130.42</ele>
        <time>2017-02-26T14:23:41Z</time>
      </trkpt>
      <trkpt lat="46.84374" lon="12.27606">
        <ele>2127.05</ele>
        <time>2017-02-26T14:23:44Z</time>
      </trkpt>
      <trkpt lat="46.84372" lon="12.27606">
        <ele>2127.05</ele>
        <time>2017-02-26T14:23:45Z</time>
      </trkpt>
      <trkpt lat="46.84367" lon="12.27606">
        <ele>2126.09</ele>
        <time>2017-02-26T14:23:48Z</time>
      </trkpt>
      <trkpt lat="46.8436" lon="12.27604">
        <ele>2124.65</ele>
        <time>2017-02-26T14:23:55Z</time>
      </trkpt>
      <trkpt lat="46.84356" lon="12.27585">
        <ele>2120.81</ele>
        <time>2017-02-26T14:24:02Z</time>
      </trkpt>
      <trkpt lat="46.84355" lon="12.27572">
        <ele>2116.96</ele>
        <time>2017-02-26T14:24:06Z</time>
      </trkpt>
      <trkpt lat="46.84355" lon="12.27567">
        <ele>2115.04</ele>
        <time>2017-02-26T14:24:10Z</time>
      </trkpt>
      <trkpt lat="46.84357" lon="12.27569">
        <ele>2115.04</ele>
        <time>2017-02-26T14:24:28Z</time>
      </trkpt>
      <trkpt lat="46.84353" lon="12.27557">
        <ele>2112.63</ele>
        <time>2017-02-26T14:24:34Z</time>
      </trkpt>
      <trkpt lat="46.84352" lon="12.27541">
        <ele>2108.79</ele>
        <time>2017-02-26T14:24:39Z</time>
      </trkpt>
      <trkpt lat="46.84346" lon="12.27526">
        <ele>2105.91</ele>
        <time>2017-02-26T14:24:43Z</time>
      </trkpt>
      <trkpt lat="46.84337" lon="12.27526">
        <ele>2103.98</ele>
        <time>2017-02-26T14:24:46Z</time>
      </trkpt>
      <trkpt lat="46.8431" lon="12.27531">
        <ele>2101.1</ele>
        <time>2017-02-26T14:24:53Z</time>
      </trkpt>
      <trkpt lat="46.84301" lon="12.27533">
        <ele>2099.66</ele>
        <time>2017-02-26T14:24:56Z</time>
      </trkpt>
      <trkpt lat="46.84283" lon="12.27537">
        <ele>2097.25</ele>
        <time>2017-02-26T14:25:08Z</time>
      </trkpt>
      <trkpt lat="46.84257" lon="12.2754">
        <ele>2093.89</ele>
        <time>2017-02-26T14:25:22Z</time>
      </trkpt>
      <trkpt lat="46.84254" lon="12.2754">
        <ele>2093.89</ele>
        <time>2017-02-26T14:25:23Z</time>
      </trkpt>
      <trkpt lat="46.84234" lon="12.27535">
        <ele>2089.56</ele>
        <time>2017-02-26T14:25:30Z</time>
      </trkpt>
      <trkpt lat="46.84231" lon="12.27533">
        <ele>2089.56</ele>
        <time>2017-02-26T14:25:31Z</time>
      </trkpt>
      <trkpt lat="46.84208" lon="12.27521">
        <ele>2086.2</ele>
        <time>2017-02-26T14:25:37Z</time>
      </trkpt>
      <trkpt lat="46.84195" lon="12.27519">
        <ele>2084.28</ele>
        <time>2017-02-26T14:25:40Z</time>
      </trkpt>
      <trkpt lat="46.84193" lon="12.27517">
        <ele>2082.35</ele>
        <time>2017-02-26T14:25:42Z</time>
      </trkpt>
      <trkpt lat="46.84194" lon="12.27514">
        <ele>2082.35</ele>
        <time>2017-02-26T14:25:43Z</time>
      </trkpt>
      <trkpt lat="46.84196" lon="12.27512">
        <ele>2081.87</ele>
        <time>2017-02-26T14:25:44Z</time>
      </trkpt>
      <trkpt lat="46.84198" lon="12.27509">
        <ele>2080.91</ele>
        <time>2017-02-26T14:25:45Z</time>
      </trkpt>
      <trkpt lat="46.84202" lon="12.27507">
        <ele>2079.95</ele>
        <time>2017-02-26T14:25:46Z</time>
      </trkpt>
      <trkpt lat="46.84205" lon="12.27504">
        <ele>2078.99</ele>
        <time>2017-02-26T14:25:47Z</time>
      </trkpt>
      <trkpt lat="46.84208" lon="12.27501">
        <ele>2078.03</ele>
        <time>2017-02-26T14:25:48Z</time>
      </trkpt>
      <trkpt lat="46.84211" lon="12.27499">
        <ele>2077.55</ele>
        <time>2017-02-26T14:25:49Z</time>
      </trkpt>
      <trkpt lat="46.84213" lon="12.27497">
        <ele>2077.07</ele>
        <time>2017-02-26T14:25:50Z</time>
      </trkpt>
      <trkpt lat="46.84215" lon="12.27496">
        <ele>2076.59</ele>
        <time>2017-02-26T14:25:51Z</time>
      </trkpt>
      <trkpt lat="46.84216" lon="12.27495">
        <ele>2076.59</ele>
        <time>2017-02-26T14:25:52Z</time>
      </trkpt>
      <trkpt lat="46.84218" lon="12.27493">
        <ele>2076.1</ele>
        <time>2017-02-26T14:25:53Z</time>
      </trkpt>
      <trkpt lat="46.84219" lon="12.27491">
        <ele>2075.62</ele>
        <time>2017-02-26T14:25:54Z</time>
      </trkpt>
      <trkpt lat="46.8422" lon="12.2749">
        <ele>2075.14</ele>
        <time>2017-02-26T14:25:55Z</time>
      </trkpt>
      <trkpt lat="46.84233" lon="12.27478">
        <ele>2071.78</ele>
        <time>2017-02-26T14:26:07Z</time>
      </trkpt>
      <trkpt lat="46.84241" lon="12.27468">
        <ele>2069.86</ele>
        <time>2017-02-26T14:26:12Z</time>
      </trkpt>
      <trkpt lat="46.84253" lon="12.27454">
        <ele>2067.45</ele>
        <time>2017-02-26T14:26:22Z</time>
      </trkpt>
      <trkpt lat="46.84257" lon="12.27448">
        <ele>2066.01</ele>
        <time>2017-02-26T14:26:25Z</time>
      </trkpt>
      <trkpt lat="46.84273" lon="12.2743">
        <ele>2063.61</ele>
        <time>2017-02-26T14:26:41Z</time>
      </trkpt>
      <trkpt lat="46.84288" lon="12.27404">
        <ele>2060.72</ele>
        <time>2017-02-26T14:26:52Z</time>
      </trkpt>
      <trkpt lat="46.843" lon="12.27388">
        <ele>2057.84</ele>
        <time>2017-02-26T14:26:56Z</time>
      </trkpt>
      <trkpt lat="46.84307" lon="12.27379">
        <ele>2055.92</ele>
        <time>2017-02-26T14:26:58Z</time>
      </trkpt>
      <trkpt lat="46.8431" lon="12.27374">
        <ele>2054.96</ele>
        <time>2017-02-26T14:26:59Z</time>
      </trkpt>
      <trkpt lat="46.84311" lon="12.27369">
        <ele>2054.47</ele>
        <time>2017-02-26T14:27:00Z</time>
      </trkpt>
      <trkpt lat="46.84312" lon="12.27363">
        <ele>2053.99</ele>
        <time>2017-02-26T14:27:01Z</time>
      </trkpt>
      <trkpt lat="46.84318" lon="12.27327">
        <ele>2050.63</ele>
        <time>2017-02-26T14:27:07Z</time>
      </trkpt>
      <trkpt lat="46.84319" lon="12.27323">
        <ele>2050.15</ele>
        <time>2017-02-26T14:27:08Z</time>
      </trkpt>
      <trkpt lat="46.84321" lon="12.27309">
        <ele>2048.71</ele>
        <time>2017-02-26T14:27:18Z</time>
      </trkpt>
      <trkpt lat="46.8432" lon="12.27308">
        <ele>2048.71</ele>
        <time>2017-02-26T14:27:43Z</time>
      </trkpt>
      <trkpt lat="46.84325" lon="12.27275">
        <ele>2044.86</ele>
        <time>2017-02-26T14:27:52Z</time>
      </trkpt>
      <trkpt lat="46.84324" lon="12.27253">
        <ele>2041.5</ele>
        <time>2017-02-26T14:27:57Z</time>
      </trkpt>
      <trkpt lat="46.84324" lon="12.27236">
        <ele>2038.61</ele>
        <time>2017-02-26T14:28:01Z</time>
      </trkpt>
      <trkpt lat="46.84325" lon="12.27219">
        <ele>2035.25</ele>
        <time>2017-02-26T14:28:05Z</time>
      </trkpt>
      <trkpt lat="46.84329" lon="12.272">
        <ele>2032.36</ele>
        <time>2017-02-26T14:28:10Z</time>
      </trkpt>
      <trkpt lat="46.84329" lon="12.27197">
        <ele>2031.88</ele>
        <time>2017-02-26T14:28:11Z</time>
      </trkpt>
      <trkpt lat="46.84325" lon="12.27193">
        <ele>2031.88</ele>
        <time>2017-02-26T14:28:22Z</time>
      </trkpt>
      <trkpt lat="46.84323" lon="12.27193">
        <ele>2031.4</ele>
        <time>2017-02-26T14:28:24Z</time>
      </trkpt>
      <trkpt lat="46.8432" lon="12.27194">
        <ele>2030.92</ele>
        <time>2017-02-26T14:28:25Z</time>
      </trkpt>
      <trkpt lat="46.84318" lon="12.27196">
        <ele>2030.92</ele>
        <time>2017-02-26T14:28:26Z</time>
      </trkpt>
      <trkpt lat="46.84316" lon="12.272">
        <ele>2030.44</ele>
        <time>2017-02-26T14:28:27Z</time>
      </trkpt>
      <trkpt lat="46.84314" lon="12.27203">
        <ele>2030.44</ele>
        <time>2017-02-26T14:28:28Z</time>
      </trkpt>
      <trkpt lat="46.84292" lon="12.27255">
        <ele>2027.56</ele>
        <time>2017-02-26T14:28:45Z</time>
      </trkpt>
      <trkpt lat="46.84263" lon="12.27285">
        <ele>2025.15</ele>
        <time>2017-02-26T14:28:59Z</time>
      </trkpt>
      <trkpt lat="46.84221" lon="12.27284">
        <ele>2022.75</ele>
        <time>2017-02-26T14:29:14Z</time>
      </trkpt>
      <trkpt lat="46.8419" lon="12.27275">
        <ele>2021.31</ele>
        <time>2017-02-26T14:29:32Z</time>
      </trkpt>
      <trkpt lat="46.84159" lon="12.27257">
        <ele>2018.91</ele>
        <time>2017-02-26T14:29:47Z</time>
      </trkpt>
      <trkpt lat="46.84155" lon="12.27255">
        <ele>2018.91</ele>
        <time>2017-02-26T14:29:48Z</time>
      </trkpt>
      <trkpt lat="46.84127" lon="12.27245">
        <ele>2015.54</ele>
        <time>2017-02-26T14:29:54Z</time>
      </trkpt>
      <trkpt lat="46.84113" lon="12.27238">
        <ele>2012.66</ele>
        <time>2017-02-26T14:29:57Z</time>
      </trkpt>
      <trkpt lat="46.8411" lon="12.27233">
        <ele>2012.18</ele>
        <time>2017-02-26T14:29:58Z</time>
      </trkpt>
      <trkpt lat="46.84105" lon="12.2722">
        <ele>2011.22</ele>
        <time>2017-02-26T14:30:00Z</time>
      </trkpt>
      <trkpt lat="46.84102" lon="12.27215">
        <ele>2010.25</ele>
        <time>2017-02-26T14:30:01Z</time>
      </trkpt>
      <trkpt lat="46.84098" lon="12.2721">
        <ele>2009.77</ele>
        <time>2017-02-26T14:30:02Z</time>
      </trkpt>
      <trkpt lat="46.84095" lon="12.27209">
        <ele>2009.77</ele>
        <time>2017-02-26T14:30:03Z</time>
      </trkpt>
      <trkpt lat="46.84091" lon="12.27208">
        <ele>2009.77</ele>
        <time>2017-02-26T14:30:04Z</time>
      </trkpt>
      <trkpt lat="46.84086" lon="12.27212">
        <ele>2009.77</ele>
        <time>2017-02-26T14:30:13Z</time>
      </trkpt>
      <trkpt lat="46.84087" lon="12.2721">
        <ele>2009.29</ele>
        <time>2017-02-26T14:30:31Z</time>
      </trkpt>
      <trkpt lat="46.84086" lon="12.27217">
        <ele>2008.81</ele>
        <time>2017-02-26T14:30:47Z</time>
      </trkpt>
      <trkpt lat="46.84086" lon="12.2722">
        <ele>2011.7</ele>
        <time>2017-02-26T14:30:49Z</time>
      </trkpt>
      <trkpt lat="46.84087" lon="12.27221">
        <ele>2010.25</ele>
        <time>2017-02-26T14:30:50Z</time>
      </trkpt>
      <trkpt lat="46.84087" lon="12.27232">
        <ele>2011.7</ele>
        <time>2017-02-26T14:31:07Z</time>
      </trkpt>
      <trkpt lat="46.84091" lon="12.2724">
        <ele>2012.66</ele>
        <time>2017-02-26T14:31:21Z</time>
      </trkpt>
      <trkpt lat="46.84095" lon="12.27236">
        <ele>2013.14</ele>
        <time>2017-02-26T14:31:35Z</time>
      </trkpt>
      <trkpt lat="46.84094" lon="12.27234">
        <ele>2013.14</ele>
        <time>2017-02-26T14:31:56Z</time>
      </trkpt>
      <trkpt lat="46.84092" lon="12.2723">
        <ele>2013.14</ele>
        <time>2017-02-26T14:32:17Z</time>
      </trkpt>
      <trkpt lat="46.84092" lon="12.27222">
        <ele>2013.14</ele>
        <time>2017-02-26T14:32:40Z</time>
      </trkpt>
      <trkpt lat="46.84094" lon="12.27222">
        <ele>2012.18</ele>
        <time>2017-02-26T14:32:59Z</time>
      </trkpt>
      <trkpt lat="46.84094" lon="12.27221">
        <ele>2012.18</ele>
        <time>2017-02-26T14:33:35Z</time>
      </trkpt>
      <trkpt lat="46.84095" lon="12.27221">
        <ele>2012.18</ele>
        <time>2017-02-26T14:33:38Z</time>
      </trkpt>
      <trkpt lat="46.84093" lon="12.27224">
        <ele>2013.62</ele>
        <time>2017-02-26T14:53:49Z</time>
      </trkpt>
      <trkpt lat="46.8409" lon="12.27229">
        <ele>2013.14</ele>
        <time>2017-02-26T14:54:07Z</time>
      </trkpt>
      <trkpt lat="46.84093" lon="12.27229">
        <ele>2011.7</ele>
        <time>2017-02-26T14:54:31Z</time>
      </trkpt>
      <trkpt lat="46.84092" lon="12.27227">
        <ele>2011.7</ele>
        <time>2017-02-26T14:54:59Z</time>
      </trkpt>
      <trkpt lat="46.84096" lon="12.27223">
        <ele>2011.7</ele>
        <time>2017-02-26T14:55:19Z</time>
      </trkpt>
      <trkpt lat="46.84093" lon="12.27229">
        <ele>2011.7</ele>
        <time>2017-02-26T14:55:35Z</time>
      </trkpt>
      <trkpt lat="46.84093" lon="12.27237">
        <ele>2012.66</ele>
        <time>2017-02-26T14:55:51Z</time>
      </trkpt>
      <trkpt lat="46.84089" lon="12.27239">
        <ele>2011.22</ele>
        <time>2017-02-26T14:56:07Z</time>
      </trkpt>
      <trkpt lat="46.84087" lon="12.27233">
        <ele>2010.25</ele>
        <time>2017-02-26T14:56:20Z</time>
      </trkpt>
      <trkpt lat="46.84087" lon="12.27226">
        <ele>2009.29</ele>
        <time>2017-02-26T14:56:32Z</time>
      </trkpt>
      <trkpt lat="46.84089" lon="12.27221">
        <ele>2008.33</ele>
        <time>2017-02-26T14:56:46Z</time>
      </trkpt>
      <trkpt lat="46.84088" lon="12.27223">
        <ele>2008.33</ele>
        <time>2017-02-26T14:57:06Z</time>
      </trkpt>
      <trkpt lat="46.84088" lon="12.27218">
        <ele>2007.85</ele>
        <time>2017-02-26T14:57:19Z</time>
      </trkpt>
      <trkpt lat="46.84085" lon="12.27217">
        <ele>2007.85</ele>
        <time>2017-02-26T14:57:38Z</time>
      </trkpt>
      <trkpt lat="46.84087" lon="12.27214">
        <ele>2007.85</ele>
        <time>2017-02-26T14:57:56Z</time>
      </trkpt>
      <trkpt lat="46.84091" lon="12.2721">
        <ele>2007.37</ele>
        <time>2017-02-26T14:58:09Z</time>
      </trkpt>
      <trkpt lat="46.8409" lon="12.27211">
        <ele>2007.85</ele>
        <time>2017-02-26T14:58:23Z</time>
      </trkpt>
      <trkpt lat="46.84087" lon="12.27211">
        <ele>2007.37</ele>
        <time>2017-02-26T14:58:44Z</time>
      </trkpt>
      <trkpt lat="46.84089" lon="12.27212">
        <ele>2007.85</ele>
        <time>2017-02-26T14:59:03Z</time>
      </trkpt>
      <trkpt lat="46.84087" lon="12.27211">
        <ele>2007.85</ele>
        <time>2017-02-26T14:59:22Z</time>
      </trkpt>
      <trkpt lat="46.84086" lon="12.27213">
        <ele>2007.85</ele>
        <time>2017-02-26T14:59:48Z</time>
      </trkpt>
      <trkpt lat="46.84079" lon="12.27211">
        <ele>2007.37</ele>
        <time>2017-02-26T15:00:03Z</time>
      </trkpt>
      <trkpt lat="46.8407" lon="12.27209">
        <ele>2007.37</ele>
        <time>2017-02-26T15:00:18Z</time>
      </trkpt>
      <trkpt lat="46.84059" lon="12.27203">
        <ele>2007.85</ele>
        <time>2017-02-26T15:00:36Z</time>
      </trkpt>
      <trkpt lat="46.84059" lon="12.27206">
        <ele>2007.85</ele>
        <time>2017-02-26T15:00:48Z</time>
      </trkpt>
      <trkpt lat="46.84055" lon="12.27203">
        <ele>2007.85</ele>
        <time>2017-02-26T15:01:02Z</time>
      </trkpt>
      <trkpt lat="46.84048" lon="12.27202">
        <ele>2007.37</ele>
        <time>2017-02-26T15:01:14Z</time>
      </trkpt>
      <trkpt lat="46.84037" lon="12.27213">
        <ele>2006.41</ele>
        <time>2017-02-26T15:01:25Z</time>
      </trkpt>
      <trkpt lat="46.84033" lon="12.27224">
        <ele>2006.41</ele>
        <time>2017-02-26T15:01:40Z</time>
      </trkpt>
      <trkpt lat="46.84026" lon="12.27242">
        <ele>2004.97</ele>
        <time>2017-02-26T15:01:53Z</time>
      </trkpt>
      <trkpt lat="46.84019" lon="12.27255">
        <ele>2003.04</ele>
        <time>2017-02-26T15:01:56Z</time>
      </trkpt>
      <trkpt lat="46.84016" lon="12.27258">
        <ele>2002.56</ele>
        <time>2017-02-26T15:01:57Z</time>
      </trkpt>
      <trkpt lat="46.84012" lon="12.27259">
        <ele>2002.08</ele>
        <time>2017-02-26T15:01:58Z</time>
      </trkpt>
      <trkpt lat="46.83995" lon="12.27262">
        <ele>2000.16</ele>
        <time>2017-02-26T15:02:04Z</time>
      </trkpt>
      <trkpt lat="46.8399" lon="12.27262">
        <ele>1999.68</ele>
        <time>2017-02-26T15:02:05Z</time>
      </trkpt>
      <trkpt lat="46.83966" lon="12.27261">
        <ele>1997.28</ele>
        <time>2017-02-26T15:02:11Z</time>
      </trkpt>
      <trkpt lat="46.83952" lon="12.27263">
        <ele>1996.32</ele>
        <time>2017-02-26T15:02:15Z</time>
      </trkpt>
      <trkpt lat="46.83917" lon="12.27263">
        <ele>1995.35</ele>
        <time>2017-02-26T15:02:26Z</time>
      </trkpt>
      <trkpt lat="46.83891" lon="12.27269">
        <ele>1993.43</ele>
        <time>2017-02-26T15:02:36Z</time>
      </trkpt>
      <trkpt lat="46.83873" lon="12.27274">
        <ele>1992.47</ele>
        <time>2017-02-26T15:02:41Z</time>
      </trkpt>
      <trkpt lat="46.83862" lon="12.27268">
        <ele>1991.51</ele>
        <time>2017-02-26T15:02:54Z</time>
      </trkpt>
      <trkpt lat="46.83855" lon="12.27269">
        <ele>1991.03</ele>
        <time>2017-02-26T15:03:07Z</time>
      </trkpt>
      <trkpt lat="46.83854" lon="12.27271">
        <ele>1991.03</ele>
        <time>2017-02-26T15:03:08Z</time>
      </trkpt>
      <trkpt lat="46.83852" lon="12.27273">
        <ele>1990.55</ele>
        <time>2017-02-26T15:03:09Z</time>
      </trkpt>
      <trkpt lat="46.8385" lon="12.27276">
        <ele>1990.55</ele>
        <time>2017-02-26T15:03:10Z</time>
      </trkpt>
      <trkpt lat="46.83848" lon="12.27279">
        <ele>1990.07</ele>
        <time>2017-02-26T15:03:11Z</time>
      </trkpt>
      <trkpt lat="46.83847" lon="12.27283">
        <ele>1990.07</ele>
        <time>2017-02-26T15:03:12Z</time>
      </trkpt>
      <trkpt lat="46.83845" lon="12.27288">
        <ele>1989.59</ele>
        <time>2017-02-26T15:03:13Z</time>
      </trkpt>
      <trkpt lat="46.83843" lon="12.27294">
        <ele>1989.1</ele>
        <time>2017-02-26T15:03:14Z</time>
      </trkpt>
      <trkpt lat="46.83836" lon="12.2731">
        <ele>1986.7</ele>
        <time>2017-02-26T15:03:19Z</time>
      </trkpt>
      <trkpt lat="46.83836" lon="12.27287">
        <ele>1984.78</ele>
        <time>2017-02-26T15:03:30Z</time>
      </trkpt>
      <trkpt lat="46.83844" lon="12.27272">
        <ele>1982.38</ele>
        <time>2017-02-26T15:03:36Z</time>
      </trkpt>
      <trkpt lat="46.83846" lon="12.2727">
        <ele>1982.38</ele>
        <time>2017-02-26T15:03:37Z</time>
      </trkpt>
      <trkpt lat="46.83851" lon="12.27254">
        <ele>1979.01</ele>
        <time>2017-02-26T15:03:46Z</time>
      </trkpt>
      <trkpt lat="46.83856" lon="12.27244">
        <ele>1978.05</ele>
        <time>2017-02-26T15:03:49Z</time>
      </trkpt>
      <trkpt lat="46.83859" lon="12.27241">
        <ele>1977.57</ele>
        <time>2017-02-26T15:03:50Z</time>
      </trkpt>
      <trkpt lat="46.8386" lon="12.27237">
        <ele>1977.57</ele>
        <time>2017-02-26T15:03:51Z</time>
      </trkpt>
      <trkpt lat="46.83864" lon="12.27232">
        <ele>1977.09</ele>
        <time>2017-02-26T15:03:52Z</time>
      </trkpt>
      <trkpt lat="46.83865" lon="12.2723">
        <ele>1976.61</ele>
        <time>2017-02-26T15:03:53Z</time>
      </trkpt>
      <trkpt lat="46.83867" lon="12.27226">
        <ele>1976.61</ele>
        <time>2017-02-26T15:03:54Z</time>
      </trkpt>
      <trkpt lat="46.83868" lon="12.27222">
        <ele>1977.57</ele>
        <time>2017-02-26T15:03:55Z</time>
      </trkpt>
      <trkpt lat="46.8387" lon="12.27219">
        <ele>1976.13</ele>
        <time>2017-02-26T15:03:56Z</time>
      </trkpt>
      <trkpt lat="46.83871" lon="12.27217">
        <ele>1975.65</ele>
        <time>2017-02-26T15:03:57Z</time>
      </trkpt>
      <trkpt lat="46.83873" lon="12.27212">
        <ele>1975.17</ele>
        <time>2017-02-26T15:03:59Z</time>
      </trkpt>
      <trkpt lat="46.83875" lon="12.27209">
        <ele>1974.69</ele>
        <time>2017-02-26T15:04:00Z</time>
      </trkpt>
      <trkpt lat="46.83878" lon="12.27206">
        <ele>1974.69</ele>
        <time>2017-02-26T15:04:01Z</time>
      </trkpt>
      <trkpt lat="46.8388" lon="12.27203">
        <ele>1973.72</ele>
        <time>2017-02-26T15:04:02Z</time>
      </trkpt>
      <trkpt lat="46.83882" lon="12.27202">
        <ele>1972.76</ele>
        <time>2017-02-26T15:04:03Z</time>
      </trkpt>
      <trkpt lat="46.83884" lon="12.272">
        <ele>1972.76</ele>
        <time>2017-02-26T15:04:04Z</time>
      </trkpt>
      <trkpt lat="46.83887" lon="12.27192">
        <ele>1971.8</ele>
        <time>2017-02-26T15:04:05Z</time>
      </trkpt>
      <trkpt lat="46.83891" lon="12.27185">
        <ele>1971.8</ele>
        <time>2017-02-26T15:04:06Z</time>
      </trkpt>
      <trkpt lat="46.83892" lon="12.27181">
        <ele>1970.84</ele>
        <time>2017-02-26T15:04:07Z</time>
      </trkpt>
      <trkpt lat="46.83902" lon="12.27155">
        <ele>1970.36</ele>
        <time>2017-02-26T15:04:15Z</time>
      </trkpt>
      <trkpt lat="46.83903" lon="12.27152">
        <ele>1970.36</ele>
        <time>2017-02-26T15:04:16Z</time>
      </trkpt>
      <trkpt lat="46.83912" lon="12.27119">
        <ele>1967.96</ele>
        <time>2017-02-26T15:04:25Z</time>
      </trkpt>
      <trkpt lat="46.83919" lon="12.27088">
        <ele>1965.55</ele>
        <time>2017-02-26T15:04:32Z</time>
      </trkpt>
      <trkpt lat="46.83923" lon="12.27041">
        <ele>1963.63</ele>
        <time>2017-02-26T15:04:41Z</time>
      </trkpt>
      <trkpt lat="46.83935" lon="12.2701">
        <ele>1960.27</ele>
        <time>2017-02-26T15:04:49Z</time>
      </trkpt>
      <trkpt lat="46.83939" lon="12.26993">
        <ele>1959.3</ele>
        <time>2017-02-26T15:04:53Z</time>
      </trkpt>
      <trkpt lat="46.83935" lon="12.26988">
        <ele>1958.82</ele>
        <time>2017-02-26T15:04:55Z</time>
      </trkpt>
      <trkpt lat="46.83916" lon="12.26985">
        <ele>1955.94</ele>
        <time>2017-02-26T15:05:01Z</time>
      </trkpt>
      <trkpt lat="46.83908" lon="12.26989">
        <ele>1954.02</ele>
        <time>2017-02-26T15:05:04Z</time>
      </trkpt>
      <trkpt lat="46.83888" lon="12.26992">
        <ele>1951.13</ele>
        <time>2017-02-26T15:05:13Z</time>
      </trkpt>
      <trkpt lat="46.83886" lon="12.26993">
        <ele>1949.69</ele>
        <time>2017-02-26T15:05:15Z</time>
      </trkpt>
      <trkpt lat="46.83883" lon="12.26991">
        <ele>1949.69</ele>
        <time>2017-02-26T15:05:17Z</time>
      </trkpt>
      <trkpt lat="46.8388" lon="12.26991">
        <ele>1949.21</ele>
        <time>2017-02-26T15:05:18Z</time>
      </trkpt>
      <trkpt lat="46.83875" lon="12.26999">
        <ele>1949.21</ele>
        <time>2017-02-26T15:05:25Z</time>
      </trkpt>
      <trkpt lat="46.83873" lon="12.27">
        <ele>1948.73</ele>
        <time>2017-02-26T15:05:26Z</time>
      </trkpt>
      <trkpt lat="46.83871" lon="12.27">
        <ele>1949.21</ele>
        <time>2017-02-26T15:05:27Z</time>
      </trkpt>
      <trkpt lat="46.8387" lon="12.27">
        <ele>1948.73</ele>
        <time>2017-02-26T15:05:28Z</time>
      </trkpt>
      <trkpt lat="46.83868" lon="12.26998">
        <ele>1948.25</ele>
        <time>2017-02-26T15:05:29Z</time>
      </trkpt>
      <trkpt lat="46.83866" lon="12.26996">
        <ele>1948.25</ele>
        <time>2017-02-26T15:05:30Z</time>
      </trkpt>
      <trkpt lat="46.83866" lon="12.26999">
        <ele>1948.25</ele>
        <time>2017-02-26T15:05:31Z</time>
      </trkpt>
      <trkpt lat="46.83867" lon="12.27001">
        <ele>1947.77</ele>
        <time>2017-02-26T15:05:32Z</time>
      </trkpt>
      <trkpt lat="46.83868" lon="12.27003">
        <ele>1947.77</ele>
        <time>2017-02-26T15:05:33Z</time>
      </trkpt>
      <trkpt lat="46.8387" lon="12.27003">
        <ele>1948.25</ele>
        <time>2017-02-26T15:05:34Z</time>
      </trkpt>
      <trkpt lat="46.83873" lon="12.26996">
        <ele>1946.81</ele>
        <time>2017-02-26T15:05:36Z</time>
      </trkpt>
      <trkpt lat="46.83875" lon="12.26982">
        <ele>1945.85</ele>
        <time>2017-02-26T15:05:39Z</time>
      </trkpt>
      <trkpt lat="46.83879" lon="12.26962">
        <ele>1944.4</ele>
        <time>2017-02-26T15:05:43Z</time>
      </trkpt>
      <trkpt lat="46.83879" lon="12.26944">
        <ele>1942.48</ele>
        <time>2017-02-26T15:05:46Z</time>
      </trkpt>
      <trkpt lat="46.83877" lon="12.26925">
        <ele>1940.56</ele>
        <time>2017-02-26T15:05:49Z</time>
      </trkpt>
      <trkpt lat="46.83876" lon="12.26919">
        <ele>1940.56</ele>
        <time>2017-02-26T15:05:50Z</time>
      </trkpt>
      <trkpt lat="46.83875" lon="12.26913">
        <ele>1939.6</ele>
        <time>2017-02-26T15:05:51Z</time>
      </trkpt>
      <trkpt lat="46.83873" lon="12.26889">
        <ele>1940.08</ele>
        <time>2017-02-26T15:05:55Z</time>
      </trkpt>
      <trkpt lat="46.83872" lon="12.26878">
        <ele>1938.16</ele>
        <time>2017-02-26T15:05:57Z</time>
      </trkpt>
      <trkpt lat="46.83871" lon="12.26872">
        <ele>1937.67</ele>
        <time>2017-02-26T15:05:58Z</time>
      </trkpt>
      <trkpt lat="46.83871" lon="12.26854">
        <ele>1936.23</ele>
        <time>2017-02-26T15:06:01Z</time>
      </trkpt>
      <trkpt lat="46.83871" lon="12.26848">
        <ele>1935.27</ele>
        <time>2017-02-26T15:06:02Z</time>
      </trkpt>
      <trkpt lat="46.83871" lon="12.26842">
        <ele>1935.27</ele>
        <time>2017-02-26T15:06:03Z</time>
      </trkpt>
      <trkpt lat="46.83871" lon="12.26837">
        <ele>1934.79</ele>
        <time>2017-02-26T15:06:04Z</time>
      </trkpt>
      <trkpt lat="46.83871" lon="12.26832">
        <ele>1934.79</ele>
        <time>2017-02-26T15:06:05Z</time>
      </trkpt>
      <trkpt lat="46.83871" lon="12.26828">
        <ele>1934.31</ele>
        <time>2017-02-26T15:06:06Z</time>
      </trkpt>
      <trkpt lat="46.83871" lon="12.26824">
        <ele>1933.83</ele>
        <time>2017-02-26T15:06:07Z</time>
      </trkpt>
      <trkpt lat="46.8387" lon="12.26806">
        <ele>1932.87</ele>
        <time>2017-02-26T15:06:13Z</time>
      </trkpt>
      <trkpt lat="46.83858" lon="12.26794">
        <ele>1932.87</ele>
        <time>2017-02-26T15:06:26Z</time>
      </trkpt>
      <trkpt lat="46.83855" lon="12.26794">
        <ele>1933.35</ele>
        <time>2017-02-26T15:06:46Z</time>
      </trkpt>
      <trkpt lat="46.83853" lon="12.26791">
        <ele>1933.83</ele>
        <time>2017-02-26T15:07:04Z</time>
      </trkpt>
      <trkpt lat="46.83853" lon="12.2679">
        <ele>1934.31</ele>
        <time>2017-02-26T15:07:21Z</time>
      </trkpt>
      <trkpt lat="46.83855" lon="12.26785">
        <ele>1933.83</ele>
        <time>2017-02-26T15:07:41Z</time>
      </trkpt>
      <trkpt lat="46.83856" lon="12.26784">
        <ele>1932.39</ele>
        <time>2017-02-26T15:07:44Z</time>
      </trkpt>
      <trkpt lat="46.83857" lon="12.26783">
        <ele>1933.35</ele>
        <time>2017-02-26T15:07:46Z</time>
      </trkpt>
      <trkpt lat="46.8386" lon="12.26783">
        <ele>1933.35</ele>
        <time>2017-02-26T15:08:08Z</time>
      </trkpt>
      <trkpt lat="46.8386" lon="12.26784">
        <ele>1934.31</ele>
        <time>2017-02-26T15:08:25Z</time>
      </trkpt>
      <trkpt lat="46.83862" lon="12.26787">
        <ele>1934.31</ele>
        <time>2017-02-26T15:08:43Z</time>
      </trkpt>
      <trkpt lat="46.83858" lon="12.26785">
        <ele>1934.31</ele>
        <time>2017-02-26T15:08:59Z</time>
      </trkpt>
      <trkpt lat="46.8385" lon="12.26785">
        <ele>1933.35</ele>
        <time>2017-02-26T15:09:15Z</time>
      </trkpt>
      <trkpt lat="46.83839" lon="12.26792">
        <ele>1930.95</ele>
        <time>2017-02-26T15:09:29Z</time>
      </trkpt>
      <trkpt lat="46.83828" lon="12.26801">
        <ele>1929.02</ele>
        <time>2017-02-26T15:09:43Z</time>
      </trkpt>
      <trkpt lat="46.83825" lon="12.26803">
        <ele>1928.54</ele>
        <time>2017-02-26T15:09:46Z</time>
      </trkpt>
      <trkpt lat="46.83814" lon="12.2681">
        <ele>1926.62</ele>
        <time>2017-02-26T15:09:59Z</time>
      </trkpt>
      <trkpt lat="46.83802" lon="12.2682">
        <ele>1923.25</ele>
        <time>2017-02-26T15:10:14Z</time>
      </trkpt>
      <trkpt lat="46.83794" lon="12.26829">
        <ele>1920.85</ele>
        <time>2017-02-26T15:10:27Z</time>
      </trkpt>
      <trkpt lat="46.83787" lon="12.26827">
        <ele>1918.93</ele>
        <time>2017-02-26T15:10:44Z</time>
      </trkpt>
      <trkpt lat="46.83792" lon="12.26834">
        <ele>1918.93</ele>
        <time>2017-02-26T15:11:07Z</time>
      </trkpt>
      <trkpt lat="46.8379" lon="12.26837">
        <ele>1918.45</ele>
        <time>2017-02-26T15:11:26Z</time>
      </trkpt>
      <trkpt lat="46.83778" lon="12.26837">
        <ele>1917.49</ele>
        <time>2017-02-26T15:11:46Z</time>
      </trkpt>
      <trkpt lat="46.83773" lon="12.26848">
        <ele>1916.53</ele>
        <time>2017-02-26T15:11:58Z</time>
      </trkpt>
      <trkpt lat="46.83771" lon="12.2686">
        <ele>1913.64</ele>
        <time>2017-02-26T15:12:08Z</time>
      </trkpt>
      <trkpt lat="46.83775" lon="12.26874">
        <ele>1911.72</ele>
        <time>2017-02-26T15:12:21Z</time>
      </trkpt>
      <trkpt lat="46.8378" lon="12.26888">
        <ele>1909.32</ele>
        <time>2017-02-26T15:12:34Z</time>
      </trkpt>
      <trkpt lat="46.83779" lon="12.26905">
        <ele>1906.91</ele>
        <time>2017-02-26T15:12:47Z</time>
      </trkpt>
      <trkpt lat="46.83778" lon="12.26918">
        <ele>1904.51</ele>
        <time>2017-02-26T15:13:00Z</time>
      </trkpt>
      <trkpt lat="46.83774" lon="12.26936">
        <ele>1902.59</ele>
        <time>2017-02-26T15:13:14Z</time>
      </trkpt>
      <trkpt lat="46.83773" lon="12.26951">
        <ele>1900.18</ele>
        <time>2017-02-26T15:13:27Z</time>
      </trkpt>
      <trkpt lat="46.83765" lon="12.26967">
        <ele>1898.26</ele>
        <time>2017-02-26T15:13:43Z</time>
      </trkpt>
      <trkpt lat="46.83761" lon="12.26982">
        <ele>1896.34</ele>
        <time>2017-02-26T15:13:56Z</time>
      </trkpt>
      <trkpt lat="46.83765" lon="12.26982">
        <ele>1895.86</ele>
        <time>2017-02-26T15:14:15Z</time>
      </trkpt>
      <trkpt lat="46.83762" lon="12.26988">
        <ele>1895.86</ele>
        <time>2017-02-26T15:14:46Z</time>
      </trkpt>
      <trkpt lat="46.83762" lon="12.2699">
        <ele>1895.38</ele>
        <time>2017-02-26T15:15:09Z</time>
      </trkpt>
      <trkpt lat="46.83755" lon="12.27007">
        <ele>1892.97</ele>
        <time>2017-02-26T15:15:24Z</time>
      </trkpt>
      <trkpt lat="46.83759" lon="12.27009">
        <ele>1892.01</ele>
        <time>2017-02-26T15:15:38Z</time>
      </trkpt>
      <trkpt lat="46.83755" lon="12.27015">
        <ele>1891.53</ele>
        <time>2017-02-26T15:15:54Z</time>
      </trkpt>
      <trkpt lat="46.83754" lon="12.27028">
        <ele>1890.57</ele>
        <time>2017-02-26T15:16:05Z</time>
      </trkpt>
      <trkpt lat="46.83752" lon="12.27039">
        <ele>1889.13</ele>
        <time>2017-02-26T15:16:16Z</time>
      </trkpt>
      <trkpt lat="46.83749" lon="12.27047">
        <ele>1888.17</ele>
        <time>2017-02-26T15:16:29Z</time>
      </trkpt>
      <trkpt lat="46.83742" lon="12.2706">
        <ele>1886.72</ele>
        <time>2017-02-26T15:16:42Z</time>
      </trkpt>
      <trkpt lat="46.83732" lon="12.27072">
        <ele>1885.76</ele>
        <time>2017-02-26T15:16:57Z</time>
      </trkpt>
      <trkpt lat="46.83722" lon="12.2709">
        <ele>1883.84</ele>
        <time>2017-02-26T15:17:13Z</time>
      </trkpt>
      <trkpt lat="46.83718" lon="12.27108">
        <ele>1882.4</ele>
        <time>2017-02-26T15:17:27Z</time>
      </trkpt>
      <trkpt lat="46.83715" lon="12.27115">
        <ele>1881.44</ele>
        <time>2017-02-26T15:17:42Z</time>
      </trkpt>
      <trkpt lat="46.8371" lon="12.27127">
        <ele>1880</ele>
        <time>2017-02-26T15:17:53Z</time>
      </trkpt>
      <trkpt lat="46.83707" lon="12.27135">
        <ele>1880</ele>
        <time>2017-02-26T15:18:00Z</time>
      </trkpt>
      <trkpt lat="46.83702" lon="12.27139">
        <ele>1878.07</ele>
        <time>2017-02-26T15:18:05Z</time>
      </trkpt>
      <trkpt lat="46.83696" lon="12.27153">
        <ele>1875.67</ele>
        <time>2017-02-26T15:18:18Z</time>
      </trkpt>
      <trkpt lat="46.83692" lon="12.27157">
        <ele>1875.19</ele>
        <time>2017-02-26T15:18:24Z</time>
      </trkpt>
      <trkpt lat="46.83681" lon="12.27163">
        <ele>1873.75</ele>
        <time>2017-02-26T15:18:37Z</time>
      </trkpt>
      <trkpt lat="46.83669" lon="12.27175">
        <ele>1871.34</ele>
        <time>2017-02-26T15:18:52Z</time>
      </trkpt>
      <trkpt lat="46.83662" lon="12.27185">
        <ele>1869.9</ele>
        <time>2017-02-26T15:19:02Z</time>
      </trkpt>
      <trkpt lat="46.8366" lon="12.27186">
        <ele>1869.9</ele>
        <time>2017-02-26T15:19:04Z</time>
      </trkpt>
      <trkpt lat="46.83659" lon="12.27187">
        <ele>1869.9</ele>
        <time>2017-02-26T15:19:05Z</time>
      </trkpt>
      <trkpt lat="46.83651" lon="12.27193">
        <ele>1868.46</ele>
        <time>2017-02-26T15:19:17Z</time>
      </trkpt>
      <trkpt lat="46.83637" lon="12.27206">
        <ele>1866.06</ele>
        <time>2017-02-26T15:19:34Z</time>
      </trkpt>
      <trkpt lat="46.83627" lon="12.27215">
        <ele>1864.61</ele>
        <time>2017-02-26T15:19:48Z</time>
      </trkpt>
      <trkpt lat="46.8362" lon="12.2722">
        <ele>1865.09</ele>
        <time>2017-02-26T15:20:01Z</time>
      </trkpt>
      <trkpt lat="46.83621" lon="12.27221">
        <ele>1863.65</ele>
        <time>2017-02-26T15:20:31Z</time>
      </trkpt>
      <trkpt lat="46.83626" lon="12.27225">
        <ele>1863.17</ele>
        <time>2017-02-26T15:20:54Z</time>
      </trkpt>
      <trkpt lat="46.83617" lon="12.27222">
        <ele>1862.69</ele>
        <time>2017-02-26T15:21:12Z</time>
      </trkpt>
      <trkpt lat="46.83607" lon="12.27229">
        <ele>1861.73</ele>
        <time>2017-02-26T15:21:19Z</time>
      </trkpt>
      <trkpt lat="46.83605" lon="12.27231">
        <ele>1861.25</ele>
        <time>2017-02-26T15:21:22Z</time>
      </trkpt>
      <trkpt lat="46.83596" lon="12.27237">
        <ele>1859.81</ele>
        <time>2017-02-26T15:21:34Z</time>
      </trkpt>
      <trkpt lat="46.83594" lon="12.27238">
        <ele>1859.81</ele>
        <time>2017-02-26T15:21:36Z</time>
      </trkpt>
      <trkpt lat="46.83583" lon="12.27246">
        <ele>1858.37</ele>
        <time>2017-02-26T15:21:49Z</time>
      </trkpt>
      <trkpt lat="46.83573" lon="12.27256">
        <ele>1857.89</ele>
        <time>2017-02-26T15:22:04Z</time>
      </trkpt>
      <trkpt lat="46.83562" lon="12.27276">
        <ele>1855.96</ele>
        <time>2017-02-26T15:22:21Z</time>
      </trkpt>
      <trkpt lat="46.8356" lon="12.2728">
        <ele>1855.96</ele>
        <time>2017-02-26T15:22:25Z</time>
      </trkpt>
      <trkpt lat="46.83555" lon="12.27293">
        <ele>1854.04</ele>
        <time>2017-02-26T15:22:38Z</time>
      </trkpt>
      <trkpt lat="46.83549" lon="12.27299">
        <ele>1853.56</ele>
        <time>2017-02-26T15:22:46Z</time>
      </trkpt>
      <trkpt lat="46.83548" lon="12.27299">
        <ele>1853.56</ele>
        <time>2017-02-26T15:22:47Z</time>
      </trkpt>
      <trkpt lat="46.83547" lon="12.27301">
        <ele>1853.08</ele>
        <time>2017-02-26T15:22:48Z</time>
      </trkpt>
      <trkpt lat="46.83546" lon="12.27302">
        <ele>1853.08</ele>
        <time>2017-02-26T15:22:49Z</time>
      </trkpt>
      <trkpt lat="46.83537" lon="12.27318">
        <ele>1851.16</ele>
        <time>2017-02-26T15:23:05Z</time>
      </trkpt>
      <trkpt lat="46.83532" lon="12.27335">
        <ele>1849.71</ele>
        <time>2017-02-26T15:23:21Z</time>
      </trkpt>
      <trkpt lat="46.83526" lon="12.27356">
        <ele>1848.75</ele>
        <time>2017-02-26T15:23:36Z</time>
      </trkpt>
      <trkpt lat="46.83515" lon="12.27366">
        <ele>1848.27</ele>
        <time>2017-02-26T15:23:51Z</time>
      </trkpt>
      <trkpt lat="46.83499" lon="12.27374">
        <ele>1847.31</ele>
        <time>2017-02-26T15:24:07Z</time>
      </trkpt>
      <trkpt lat="46.83498" lon="12.27375">
        <ele>1846.83</ele>
        <time>2017-02-26T15:24:08Z</time>
      </trkpt>
      <trkpt lat="46.83489" lon="12.27383">
        <ele>1845.87</ele>
        <time>2017-02-26T15:24:22Z</time>
      </trkpt>
      <trkpt lat="46.83482" lon="12.27385">
        <ele>1845.39</ele>
        <time>2017-02-26T15:24:37Z</time>
      </trkpt>
      <trkpt lat="46.83468" lon="12.27388">
        <ele>1844.91</ele>
        <time>2017-02-26T15:24:52Z</time>
      </trkpt>
      <trkpt lat="46.83458" lon="12.27399">
        <ele>1843.47</ele>
        <time>2017-02-26T15:25:06Z</time>
      </trkpt>
      <trkpt lat="46.83457" lon="12.27399">
        <ele>1843.47</ele>
        <time>2017-02-26T15:25:07Z</time>
      </trkpt>
      <trkpt lat="46.83456" lon="12.274">
        <ele>1843.47</ele>
        <time>2017-02-26T15:25:08Z</time>
      </trkpt>
      <trkpt lat="46.83451" lon="12.27404">
        <ele>1842.5</ele>
        <time>2017-02-26T15:25:15Z</time>
      </trkpt>
      <trkpt lat="46.83448" lon="12.27406">
        <ele>1842.02</ele>
        <time>2017-02-26T15:25:18Z</time>
      </trkpt>
      <trkpt lat="46.83444" lon="12.27418">
        <ele>1841.06</ele>
        <time>2017-02-26T15:25:31Z</time>
      </trkpt>
      <trkpt lat="46.83443" lon="12.27421">
        <ele>1841.06</ele>
        <time>2017-02-26T15:25:38Z</time>
      </trkpt>
      <trkpt lat="46.83434" lon="12.27429">
        <ele>1840.1</ele>
        <time>2017-02-26T15:25:50Z</time>
      </trkpt>
      <trkpt lat="46.83427" lon="12.27439">
        <ele>1838.66</ele>
        <time>2017-02-26T15:26:01Z</time>
      </trkpt>
      <trkpt lat="46.83415" lon="12.27451">
        <ele>1837.7</ele>
        <time>2017-02-26T15:26:16Z</time>
      </trkpt>
      <trkpt lat="46.83406" lon="12.27458">
        <ele>1836.74</ele>
        <time>2017-02-26T15:26:31Z</time>
      </trkpt>
      <trkpt lat="46.834" lon="12.27457">
        <ele>1836.74</ele>
        <time>2017-02-26T15:26:48Z</time>
      </trkpt>
      <trkpt lat="46.83398" lon="12.27455">
        <ele>1836.26</ele>
        <time>2017-02-26T15:26:50Z</time>
      </trkpt>
      <trkpt lat="46.83387" lon="12.27452">
        <ele>1834.81</ele>
        <time>2017-02-26T15:27:03Z</time>
      </trkpt>
      <trkpt lat="46.83376" lon="12.27445">
        <ele>1833.85</ele>
        <time>2017-02-26T15:27:16Z</time>
      </trkpt>
      <trkpt lat="46.83371" lon="12.27443">
        <ele>1833.37</ele>
        <time>2017-02-26T15:27:21Z</time>
      </trkpt>
      <trkpt lat="46.83368" lon="12.27442">
        <ele>1832.89</ele>
        <time>2017-02-26T15:27:24Z</time>
      </trkpt>
      <trkpt lat="46.83355" lon="12.27441">
        <ele>1831.45</ele>
        <time>2017-02-26T15:27:38Z</time>
      </trkpt>
      <trkpt lat="46.8335" lon="12.27442">
        <ele>1830.97</ele>
        <time>2017-02-26T15:27:44Z</time>
      </trkpt>
      <trkpt lat="46.83348" lon="12.27442">
        <ele>1830.97</ele>
        <time>2017-02-26T15:27:46Z</time>
      </trkpt>
      <trkpt lat="46.83339" lon="12.27444">
        <ele>1830.01</ele>
        <time>2017-02-26T15:27:58Z</time>
      </trkpt>
      <trkpt lat="46.83336" lon="12.27448">
        <ele>1829.53</ele>
        <time>2017-02-26T15:28:03Z</time>
      </trkpt>
      <trkpt lat="46.83326" lon="12.27454">
        <ele>1829.05</ele>
        <time>2017-02-26T15:28:15Z</time>
      </trkpt>
      <trkpt lat="46.83325" lon="12.27454">
        <ele>1829.05</ele>
        <time>2017-02-26T15:28:16Z</time>
      </trkpt>
      <trkpt lat="46.8332" lon="12.27458">
        <ele>1829.05</ele>
        <time>2017-02-26T15:28:21Z</time>
      </trkpt>
      <trkpt lat="46.83306" lon="12.27462">
        <ele>1828.56</ele>
        <time>2017-02-26T15:28:35Z</time>
      </trkpt>
      <trkpt lat="46.83304" lon="12.27464">
        <ele>1828.56</ele>
        <time>2017-02-26T15:28:37Z</time>
      </trkpt>
      <trkpt lat="46.83291" lon="12.27474">
        <ele>1827.12</ele>
        <time>2017-02-26T15:28:50Z</time>
      </trkpt>
      <trkpt lat="46.83289" lon="12.27476">
        <ele>1827.12</ele>
        <time>2017-02-26T15:28:52Z</time>
      </trkpt>
      <trkpt lat="46.83277" lon="12.27488">
        <ele>1825.68</ele>
        <time>2017-02-26T15:29:05Z</time>
      </trkpt>
      <trkpt lat="46.83275" lon="12.2749">
        <ele>1825.68</ele>
        <time>2017-02-26T15:29:07Z</time>
      </trkpt>
      <trkpt lat="46.83274" lon="12.27491">
        <ele>1825.68</ele>
        <time>2017-02-26T15:29:08Z</time>
      </trkpt>
      <trkpt lat="46.83274" lon="12.27493">
        <ele>1825.68</ele>
        <time>2017-02-26T15:29:09Z</time>
      </trkpt>
      <trkpt lat="46.83262" lon="12.27511">
        <ele>1824.24</ele>
        <time>2017-02-26T15:29:23Z</time>
      </trkpt>
      <trkpt lat="46.83249" lon="12.27525">
        <ele>1823.76</ele>
        <time>2017-02-26T15:29:37Z</time>
      </trkpt>
      <trkpt lat="46.83248" lon="12.27525">
        <ele>1823.76</ele>
        <time>2017-02-26T15:29:38Z</time>
      </trkpt>
      <trkpt lat="46.83238" lon="12.2753">
        <ele>1823.28</ele>
        <time>2017-02-26T15:29:50Z</time>
      </trkpt>
      <trkpt lat="46.83236" lon="12.27535">
        <ele>1823.28</ele>
        <time>2017-02-26T15:29:54Z</time>
      </trkpt>
      <trkpt lat="46.83235" lon="12.27542">
        <ele>1823.28</ele>
        <time>2017-02-26T15:29:58Z</time>
      </trkpt>
      <trkpt lat="46.83234" lon="12.27561">
        <ele>1822.32</ele>
        <time>2017-02-26T15:30:08Z</time>
      </trkpt>
      <trkpt lat="46.83236" lon="12.27575">
        <ele>1820.87</ele>
        <time>2017-02-26T15:30:18Z</time>
      </trkpt>
      <trkpt lat="46.83238" lon="12.27586">
        <ele>1819.91</ele>
        <time>2017-02-26T15:30:27Z</time>
      </trkpt>
      <trkpt lat="46.83237" lon="12.27588">
        <ele>1819.91</ele>
        <time>2017-02-26T15:30:28Z</time>
      </trkpt>
      <trkpt lat="46.83237" lon="12.27589">
        <ele>1819.43</ele>
        <time>2017-02-26T15:30:29Z</time>
      </trkpt>
      <trkpt lat="46.83237" lon="12.27591">
        <ele>1819.43</ele>
        <time>2017-02-26T15:30:30Z</time>
      </trkpt>
      <trkpt lat="46.83236" lon="12.27599">
        <ele>1818.95</ele>
        <time>2017-02-26T15:30:35Z</time>
      </trkpt>
      <trkpt lat="46.83236" lon="12.27601">
        <ele>1818.95</ele>
        <time>2017-02-26T15:30:36Z</time>
      </trkpt>
      <trkpt lat="46.83233" lon="12.2761">
        <ele>1818.47</ele>
        <time>2017-02-26T15:30:43Z</time>
      </trkpt>
      <trkpt lat="46.83227" lon="12.27615">
        <ele>1817.99</ele>
        <time>2017-02-26T15:30:49Z</time>
      </trkpt>
      <trkpt lat="46.83225" lon="12.27616">
        <ele>1817.99</ele>
        <time>2017-02-26T15:30:51Z</time>
      </trkpt>
      <trkpt lat="46.83224" lon="12.27617">
        <ele>1817.99</ele>
        <time>2017-02-26T15:30:52Z</time>
      </trkpt>
      <trkpt lat="46.83223" lon="12.27617">
        <ele>1817.99</ele>
        <time>2017-02-26T15:30:53Z</time>
      </trkpt>
      <trkpt lat="46.83222" lon="12.27618">
        <ele>1817.51</ele>
        <time>2017-02-26T15:30:54Z</time>
      </trkpt>
      <trkpt lat="46.83221" lon="12.27618">
        <ele>1817.99</ele>
        <time>2017-02-26T15:30:55Z</time>
      </trkpt>
      <trkpt lat="46.83215" lon="12.2762">
        <ele>1817.51</ele>
        <time>2017-02-26T15:31:02Z</time>
      </trkpt>
      <trkpt lat="46.83204" lon="12.27617">
        <ele>1818.47</ele>
        <time>2017-02-26T15:31:14Z</time>
      </trkpt>
      <trkpt lat="46.83192" lon="12.27612">
        <ele>1818.95</ele>
        <time>2017-02-26T15:31:28Z</time>
      </trkpt>
      <trkpt lat="46.83187" lon="12.27616">
        <ele>1819.91</ele>
        <time>2017-02-26T15:31:41Z</time>
      </trkpt>
      <trkpt lat="46.83187" lon="12.2761">
        <ele>1819.91</ele>
        <time>2017-02-26T15:31:58Z</time>
      </trkpt>
      <trkpt lat="46.83189" lon="12.27605">
        <ele>1819.43</ele>
        <time>2017-02-26T15:32:10Z</time>
      </trkpt>
      <trkpt lat="46.83186" lon="12.27603">
        <ele>1819.43</ele>
        <time>2017-02-26T15:32:13Z</time>
      </trkpt>
      <trkpt lat="46.83183" lon="12.27602">
        <ele>1819.43</ele>
        <time>2017-02-26T15:32:26Z</time>
      </trkpt>
      <trkpt lat="46.83184" lon="12.27604">
        <ele>1818.47</ele>
        <time>2017-02-26T15:32:43Z</time>
      </trkpt>
      <trkpt lat="46.83184" lon="12.27605">
        <ele>1818.47</ele>
        <time>2017-02-26T15:33:15Z</time>
      </trkpt>
      <trkpt lat="46.83181" lon="12.27606">
        <ele>1818.47</ele>
        <time>2017-02-26T15:33:42Z</time>
      </trkpt>
      <trkpt lat="46.83182" lon="12.27607">
        <ele>1818.47</ele>
        <time>2017-02-26T15:34:12Z</time>
      </trkpt>
      <trkpt lat="46.83187" lon="12.27602">
        <ele>1818.95</ele>
        <time>2017-02-26T15:34:35Z</time>
      </trkpt>
      <trkpt lat="46.83183" lon="12.27605">
        <ele>1819.43</ele>
        <time>2017-02-26T15:34:57Z</time>
      </trkpt>
      <trkpt lat="46.8318" lon="12.27602">
        <ele>1819.43</ele>
        <time>2017-02-26T15:35:13Z</time>
      </trkpt>
      <trkpt lat="46.83183" lon="12.27605">
        <ele>1819.91</ele>
        <time>2017-02-26T15:35:34Z</time>
      </trkpt>
      <trkpt lat="46.83184" lon="12.27601">
        <ele>1819.91</ele>
        <time>2017-02-26T15:35:58Z</time>
      </trkpt>
      <trkpt lat="46.83183" lon="12.27603">
        <ele>1819.91</ele>
        <time>2017-02-26T15:36:22Z</time>
      </trkpt>
      <trkpt lat="46.83183" lon="12.27587">
        <ele>1819.43</ele>
        <time>2017-02-26T15:36:37Z</time>
      </trkpt>
      <trkpt lat="46.83183" lon="12.27585">
        <ele>1819.43</ele>
        <time>2017-02-26T15:36:38Z</time>
      </trkpt>
      <trkpt lat="46.83183" lon="12.27582">
        <ele>1819.43</ele>
        <time>2017-02-26T15:36:39Z</time>
      </trkpt>
      <trkpt lat="46.83184" lon="12.2758">
        <ele>1819.43</ele>
        <time>2017-02-26T15:36:40Z</time>
      </trkpt>
      <trkpt lat="46.83185" lon="12.27577">
        <ele>1819.43</ele>
        <time>2017-02-26T15:36:41Z</time>
      </trkpt>
      <trkpt lat="46.83185" lon="12.27541">
        <ele>1817.99</ele>
        <time>2017-02-26T15:36:51Z</time>
      </trkpt>
      <trkpt lat="46.83184" lon="12.27535">
        <ele>1817.51</ele>
        <time>2017-02-26T15:36:52Z</time>
      </trkpt>
      <trkpt lat="46.83185" lon="12.27531">
        <ele>1817.03</ele>
        <time>2017-02-26T15:36:53Z</time>
      </trkpt>
      <trkpt lat="46.83186" lon="12.27527">
        <ele>1816.55</ele>
        <time>2017-02-26T15:36:54Z</time>
      </trkpt>
      <trkpt lat="46.83187" lon="12.2752">
        <ele>1816.07</ele>
        <time>2017-02-26T15:36:55Z</time>
      </trkpt>
      <trkpt lat="46.83188" lon="12.27513">
        <ele>1816.07</ele>
        <time>2017-02-26T15:36:56Z</time>
      </trkpt>
      <trkpt lat="46.83189" lon="12.27507">
        <ele>1815.11</ele>
        <time>2017-02-26T15:36:57Z</time>
      </trkpt>
      <trkpt lat="46.83191" lon="12.27499">
        <ele>1814.15</ele>
        <time>2017-02-26T15:36:58Z</time>
      </trkpt>
      <trkpt lat="46.83193" lon="12.27492">
        <ele>1813.66</ele>
        <time>2017-02-26T15:36:59Z</time>
      </trkpt>
      <trkpt lat="46.83196" lon="12.27486">
        <ele>1812.7</ele>
        <time>2017-02-26T15:37:00Z</time>
      </trkpt>
      <trkpt lat="46.83198" lon="12.27479">
        <ele>1811.74</ele>
        <time>2017-02-26T15:37:01Z</time>
      </trkpt>
      <trkpt lat="46.832" lon="12.27472">
        <ele>1810.78</ele>
        <time>2017-02-26T15:37:02Z</time>
      </trkpt>
      <trkpt lat="46.83202" lon="12.27465">
        <ele>1810.3</ele>
        <time>2017-02-26T15:37:03Z</time>
      </trkpt>
      <trkpt lat="46.83203" lon="12.27457">
        <ele>1809.34</ele>
        <time>2017-02-26T15:37:04Z</time>
      </trkpt>
      <trkpt lat="46.83205" lon="12.2745">
        <ele>1808.38</ele>
        <time>2017-02-26T15:37:05Z</time>
      </trkpt>
      <trkpt lat="46.83207" lon="12.27442">
        <ele>1807.42</ele>
        <time>2017-02-26T15:37:06Z</time>
      </trkpt>
      <trkpt lat="46.83208" lon="12.27435">
        <ele>1806.45</ele>
        <time>2017-02-26T15:37:07Z</time>
      </trkpt>
      <trkpt lat="46.8321" lon="12.27427">
        <ele>1805.49</ele>
        <time>2017-02-26T15:37:08Z</time>
      </trkpt>
      <trkpt lat="46.83211" lon="12.2742">
        <ele>1804.53</ele>
        <time>2017-02-26T15:37:09Z</time>
      </trkpt>
      <trkpt lat="46.83212" lon="12.27412">
        <ele>1804.05</ele>
        <time>2017-02-26T15:37:10Z</time>
      </trkpt>
      <trkpt lat="46.83214" lon="12.27405">
        <ele>1803.09</ele>
        <time>2017-02-26T15:37:11Z</time>
      </trkpt>
      <trkpt lat="46.83215" lon="12.27398">
        <ele>1801.65</ele>
        <time>2017-02-26T15:37:12Z</time>
      </trkpt>
      <trkpt lat="46.83215" lon="12.2739">
        <ele>1801.17</ele>
        <time>2017-02-26T15:37:13Z</time>
      </trkpt>
      <trkpt lat="46.83216" lon="12.27382">
        <ele>1801.17</ele>
        <time>2017-02-26T15:37:14Z</time>
      </trkpt>
      <trkpt lat="46.83216" lon="12.27375">
        <ele>1799.73</ele>
        <time>2017-02-26T15:37:15Z</time>
      </trkpt>
      <trkpt lat="46.83216" lon="12.27367">
        <ele>1799.24</ele>
        <time>2017-02-26T15:37:16Z</time>
      </trkpt>
      <trkpt lat="46.83215" lon="12.27359">
        <ele>1798.28</ele>
        <time>2017-02-26T15:37:17Z</time>
      </trkpt>
      <trkpt lat="46.83214" lon="12.27351">
        <ele>1797.8</ele>
        <time>2017-02-26T15:37:18Z</time>
      </trkpt>
      <trkpt lat="46.83211" lon="12.27335">
        <ele>1795.88</ele>
        <time>2017-02-26T15:37:20Z</time>
      </trkpt>
      <trkpt lat="46.83209" lon="12.27326">
        <ele>1794.92</ele>
        <time>2017-02-26T15:37:21Z</time>
      </trkpt>
      <trkpt lat="46.83208" lon="12.27318">
        <ele>1794.92</ele>
        <time>2017-02-26T15:37:22Z</time>
      </trkpt>
      <trkpt lat="46.83207" lon="12.27309">
        <ele>1793.48</ele>
        <time>2017-02-26T15:37:23Z</time>
      </trkpt>
      <trkpt lat="46.83207" lon="12.273">
        <ele>1793</ele>
        <time>2017-02-26T15:37:24Z</time>
      </trkpt>
      <trkpt lat="46.83207" lon="12.27291">
        <ele>1792.52</ele>
        <time>2017-02-26T15:37:25Z</time>
      </trkpt>
      <trkpt lat="46.83208" lon="12.27282">
        <ele>1791.07</ele>
        <time>2017-02-26T15:37:26Z</time>
      </trkpt>
      <trkpt lat="46.83208" lon="12.27273">
        <ele>1790.59</ele>
        <time>2017-02-26T15:37:27Z</time>
      </trkpt>
      <trkpt lat="46.83209" lon="12.27263">
        <ele>1790.59</ele>
        <time>2017-02-26T15:37:28Z</time>
      </trkpt>
      <trkpt lat="46.8321" lon="12.27254">
        <ele>1788.67</ele>
        <time>2017-02-26T15:37:29Z</time>
      </trkpt>
      <trkpt lat="46.83211" lon="12.27245">
        <ele>1786.75</ele>
        <time>2017-02-26T15:37:30Z</time>
      </trkpt>
      <trkpt lat="46.83213" lon="12.27235">
        <ele>1786.75</ele>
        <time>2017-02-26T15:37:31Z</time>
      </trkpt>
      <trkpt lat="46.83216" lon="12.27226">
        <ele>1784.82</ele>
        <time>2017-02-26T15:37:32Z</time>
      </trkpt>
      <trkpt lat="46.83219" lon="12.2722">
        <ele>1783.86</ele>
        <time>2017-02-26T15:37:33Z</time>
      </trkpt>
      <trkpt lat="46.83222" lon="12.27212">
        <ele>1782.42</ele>
        <time>2017-02-26T15:37:34Z</time>
      </trkpt>
      <trkpt lat="46.83225" lon="12.27206">
        <ele>1780.98</ele>
        <time>2017-02-26T15:37:35Z</time>
      </trkpt>
      <trkpt lat="46.83229" lon="12.272">
        <ele>1780.02</ele>
        <time>2017-02-26T15:37:36Z</time>
      </trkpt>
      <trkpt lat="46.83232" lon="12.27193">
        <ele>1779.54</ele>
        <time>2017-02-26T15:37:37Z</time>
      </trkpt>
      <trkpt lat="46.83236" lon="12.27189">
        <ele>1778.58</ele>
        <time>2017-02-26T15:37:38Z</time>
      </trkpt>
      <trkpt lat="46.8324" lon="12.27184">
        <ele>1777.61</ele>
        <time>2017-02-26T15:37:39Z</time>
      </trkpt>
      <trkpt lat="46.83243" lon="12.27178">
        <ele>1776.65</ele>
        <time>2017-02-26T15:37:40Z</time>
      </trkpt>
      <trkpt lat="46.83246" lon="12.27173">
        <ele>1776.17</ele>
        <time>2017-02-26T15:37:41Z</time>
      </trkpt>
      <trkpt lat="46.83248" lon="12.27167">
        <ele>1775.21</ele>
        <time>2017-02-26T15:37:42Z</time>
      </trkpt>
      <trkpt lat="46.8325" lon="12.27161">
        <ele>1774.25</ele>
        <time>2017-02-26T15:37:43Z</time>
      </trkpt>
      <trkpt lat="46.83252" lon="12.27156">
        <ele>1773.77</ele>
        <time>2017-02-26T15:37:44Z</time>
      </trkpt>
      <trkpt lat="46.83254" lon="12.27151">
        <ele>1772.81</ele>
        <time>2017-02-26T15:37:45Z</time>
      </trkpt>
      <trkpt lat="46.83257" lon="12.27153">
        <ele>1772.33</ele>
        <time>2017-02-26T15:37:46Z</time>
      </trkpt>
      <trkpt lat="46.8326" lon="12.27157">
        <ele>1771.37</ele>
        <time>2017-02-26T15:37:47Z</time>
      </trkpt>
      <trkpt lat="46.83262" lon="12.27162">
        <ele>1770.89</ele>
        <time>2017-02-26T15:37:48Z</time>
      </trkpt>
      <trkpt lat="46.83262" lon="12.27169">
        <ele>1770.41</ele>
        <time>2017-02-26T15:37:49Z</time>
      </trkpt>
      <trkpt lat="46.83262" lon="12.27178">
        <ele>1769.92</ele>
        <time>2017-02-26T15:37:50Z</time>
      </trkpt>
      <trkpt lat="46.83262" lon="12.27187">
        <ele>1768.96</ele>
        <time>2017-02-26T15:37:51Z</time>
      </trkpt>
      <trkpt lat="46.83265" lon="12.27195">
        <ele>1768.48</ele>
        <time>2017-02-26T15:37:52Z</time>
      </trkpt>
      <trkpt lat="46.83268" lon="12.27203">
        <ele>1768</ele>
        <time>2017-02-26T15:37:53Z</time>
      </trkpt>
      <trkpt lat="46.83271" lon="12.27209">
        <ele>1767.52</ele>
        <time>2017-02-26T15:37:54Z</time>
      </trkpt>
      <trkpt lat="46.83275" lon="12.27214">
        <ele>1766.08</ele>
        <time>2017-02-26T15:37:55Z</time>
      </trkpt>
      <trkpt lat="46.83282" lon="12.27224">
        <ele>1765.12</ele>
        <time>2017-02-26T15:37:57Z</time>
      </trkpt>
      <trkpt lat="46.83286" lon="12.27228">
        <ele>1764.16</ele>
        <time>2017-02-26T15:37:58Z</time>
      </trkpt>
      <trkpt lat="46.83289" lon="12.27232">
        <ele>1763.2</ele>
        <time>2017-02-26T15:37:59Z</time>
      </trkpt>
      <trkpt lat="46.83298" lon="12.27234">
        <ele>1762.23</ele>
        <time>2017-02-26T15:38:01Z</time>
      </trkpt>
      <trkpt lat="46.83303" lon="12.27232">
        <ele>1761.27</ele>
        <time>2017-02-26T15:38:02Z</time>
      </trkpt>
      <trkpt lat="46.83307" lon="12.27226">
        <ele>1760.31</ele>
        <time>2017-02-26T15:38:03Z</time>
      </trkpt>
      <trkpt lat="46.8331" lon="12.27219">
        <ele>1759.83</ele>
        <time>2017-02-26T15:38:04Z</time>
      </trkpt>
      <trkpt lat="46.8331" lon="12.27211">
        <ele>1758.87</ele>
        <time>2017-02-26T15:38:05Z</time>
      </trkpt>
      <trkpt lat="46.8331" lon="12.27202">
        <ele>1758.39</ele>
        <time>2017-02-26T15:38:06Z</time>
      </trkpt>
      <trkpt lat="46.83311" lon="12.27194">
        <ele>1757.43</ele>
        <time>2017-02-26T15:38:07Z</time>
      </trkpt>
      <trkpt lat="46.83311" lon="12.27185">
        <ele>1756.47</ele>
        <time>2017-02-26T15:38:08Z</time>
      </trkpt>
      <trkpt lat="46.83311" lon="12.27177">
        <ele>1755.99</ele>
        <time>2017-02-26T15:38:09Z</time>
      </trkpt>
      <trkpt lat="46.83312" lon="12.2717">
        <ele>1755.02</ele>
        <time>2017-02-26T15:38:10Z</time>
      </trkpt>
      <trkpt lat="46.83313" lon="12.27156">
        <ele>1753.1</ele>
        <time>2017-02-26T15:38:12Z</time>
      </trkpt>
      <trkpt lat="46.83313" lon="12.2715">
        <ele>1752.62</ele>
        <time>2017-02-26T15:38:13Z</time>
      </trkpt>
      <trkpt lat="46.83313" lon="12.27144">
        <ele>1751.66</ele>
        <time>2017-02-26T15:38:14Z</time>
      </trkpt>
      <trkpt lat="46.83314" lon="12.27137">
        <ele>1751.18</ele>
        <time>2017-02-26T15:38:15Z</time>
      </trkpt>
      <trkpt lat="46.83316" lon="12.27132">
        <ele>1750.7</ele>
        <time>2017-02-26T15:38:16Z</time>
      </trkpt>
      <trkpt lat="46.83316" lon="12.27126">
        <ele>1749.74</ele>
        <time>2017-02-26T15:38:17Z</time>
      </trkpt>
      <trkpt lat="46.83318" lon="12.2712">
        <ele>1749.74</ele>
        <time>2017-02-26T15:38:18Z</time>
      </trkpt>
      <trkpt lat="46.83322" lon="12.27094">
        <ele>1746.37</ele>
        <time>2017-02-26T15:38:23Z</time>
      </trkpt>
      <trkpt lat="46.83324" lon="12.27093">
        <ele>1745.41</ele>
        <time>2017-02-26T15:38:24Z</time>
      </trkpt>
      <trkpt lat="46.83325" lon="12.27096">
        <ele>1745.41</ele>
        <time>2017-02-26T15:38:37Z</time>
      </trkpt>
      <trkpt lat="46.83325" lon="12.27094">
        <ele>1745.41</ele>
        <time>2017-02-26T15:38:38Z</time>
      </trkpt>
      <trkpt lat="46.83325" lon="12.27089">
        <ele>1745.41</ele>
        <time>2017-02-26T15:38:39Z</time>
      </trkpt>
      <trkpt lat="46.83327" lon="12.27084">
        <ele>1744.93</ele>
        <time>2017-02-26T15:38:40Z</time>
      </trkpt>
      <trkpt lat="46.83333" lon="12.27073">
        <ele>1743.97</ele>
        <time>2017-02-26T15:38:42Z</time>
      </trkpt>
      <trkpt lat="46.83336" lon="12.27067">
        <ele>1743.01</ele>
        <time>2017-02-26T15:38:43Z</time>
      </trkpt>
      <trkpt lat="46.8334" lon="12.27062">
        <ele>1742.53</ele>
        <time>2017-02-26T15:38:44Z</time>
      </trkpt>
      <trkpt lat="46.83344" lon="12.27056">
        <ele>1742.53</ele>
        <time>2017-02-26T15:38:45Z</time>
      </trkpt>
      <trkpt lat="46.83347" lon="12.27052">
        <ele>1741.57</ele>
        <time>2017-02-26T15:38:46Z</time>
      </trkpt>
      <trkpt lat="46.83351" lon="12.27048">
        <ele>1740.6</ele>
        <time>2017-02-26T15:38:47Z</time>
      </trkpt>
      <trkpt lat="46.83354" lon="12.27044">
        <ele>1739.64</ele>
        <time>2017-02-26T15:38:48Z</time>
      </trkpt>
      <trkpt lat="46.83358" lon="12.2704">
        <ele>1739.16</ele>
        <time>2017-02-26T15:38:49Z</time>
      </trkpt>
      <trkpt lat="46.83362" lon="12.27037">
        <ele>1738.68</ele>
        <time>2017-02-26T15:38:50Z</time>
      </trkpt>
      <trkpt lat="46.83366" lon="12.27033">
        <ele>1737.72</ele>
        <time>2017-02-26T15:38:51Z</time>
      </trkpt>
      <trkpt lat="46.83369" lon="12.27029">
        <ele>1736.76</ele>
        <time>2017-02-26T15:38:52Z</time>
      </trkpt>
      <trkpt lat="46.83374" lon="12.27026">
        <ele>1736.76</ele>
        <time>2017-02-26T15:38:53Z</time>
      </trkpt>
      <trkpt lat="46.83378" lon="12.27021">
        <ele>1735.8</ele>
        <time>2017-02-26T15:38:54Z</time>
      </trkpt>
      <trkpt lat="46.83382" lon="12.27016">
        <ele>1734.84</ele>
        <time>2017-02-26T15:38:55Z</time>
      </trkpt>
      <trkpt lat="46.83385" lon="12.27011">
        <ele>1734.84</ele>
        <time>2017-02-26T15:38:56Z</time>
      </trkpt>
      <trkpt lat="46.83387" lon="12.27004">
        <ele>1733.88</ele>
        <time>2017-02-26T15:38:57Z</time>
      </trkpt>
      <trkpt lat="46.83389" lon="12.26998">
        <ele>1732.91</ele>
        <time>2017-02-26T15:38:58Z</time>
      </trkpt>
      <trkpt lat="46.83389" lon="12.26992">
        <ele>1731.95</ele>
        <time>2017-02-26T15:38:59Z</time>
      </trkpt>
      <trkpt lat="46.83387" lon="12.26986">
        <ele>1730.99</ele>
        <time>2017-02-26T15:39:00Z</time>
      </trkpt>
      <trkpt lat="46.83386" lon="12.26979">
        <ele>1730.51</ele>
        <time>2017-02-26T15:39:01Z</time>
      </trkpt>
      <trkpt lat="46.83385" lon="12.26973">
        <ele>1730.51</ele>
        <time>2017-02-26T15:39:02Z</time>
      </trkpt>
      <trkpt lat="46.83382" lon="12.26967">
        <ele>1728.59</ele>
        <time>2017-02-26T15:39:03Z</time>
      </trkpt>
      <trkpt lat="46.8338" lon="12.26961">
        <ele>1728.11</ele>
        <time>2017-02-26T15:39:04Z</time>
      </trkpt>
      <trkpt lat="46.83377" lon="12.26956">
        <ele>1727.15</ele>
        <time>2017-02-26T15:39:05Z</time>
      </trkpt>
      <trkpt lat="46.83375" lon="12.26952">
        <ele>1726.18</ele>
        <time>2017-02-26T15:39:06Z</time>
      </trkpt>
      <trkpt lat="46.83374" lon="12.26949">
        <ele>1725.22</ele>
        <time>2017-02-26T15:39:07Z</time>
      </trkpt>
      <trkpt lat="46.83375" lon="12.26947">
        <ele>1724.74</ele>
        <time>2017-02-26T15:39:08Z</time>
      </trkpt>
      <trkpt lat="46.83375" lon="12.26946">
        <ele>1724.26</ele>
        <time>2017-02-26T15:39:09Z</time>
      </trkpt>
      <trkpt lat="46.83378" lon="12.26947">
        <ele>1724.74</ele>
        <time>2017-02-26T15:39:23Z</time>
      </trkpt>
      <trkpt lat="46.83381" lon="12.26947">
        <ele>1723.78</ele>
        <time>2017-02-26T15:39:28Z</time>
      </trkpt>
      <trkpt lat="46.83382" lon="12.26947">
        <ele>1724.74</ele>
        <time>2017-02-26T15:39:29Z</time>
      </trkpt>
      <trkpt lat="46.83384" lon="12.26946">
        <ele>1724.26</ele>
        <time>2017-02-26T15:39:30Z</time>
      </trkpt>
      <trkpt lat="46.83387" lon="12.26947">
        <ele>1724.26</ele>
        <time>2017-02-26T15:39:31Z</time>
      </trkpt>
      <trkpt lat="46.83389" lon="12.26947">
        <ele>1723.78</ele>
        <time>2017-02-26T15:39:32Z</time>
      </trkpt>
      <trkpt lat="46.83393" lon="12.26951">
        <ele>1723.3</ele>
        <time>2017-02-26T15:39:34Z</time>
      </trkpt>
      <trkpt lat="46.83395" lon="12.26954">
        <ele>1723.3</ele>
        <time>2017-02-26T15:39:35Z</time>
      </trkpt>
      <trkpt lat="46.83397" lon="12.26957">
        <ele>1722.82</ele>
        <time>2017-02-26T15:39:36Z</time>
      </trkpt>
      <trkpt lat="46.83399" lon="12.26961">
        <ele>1722.34</ele>
        <time>2017-02-26T15:39:37Z</time>
      </trkpt>
      <trkpt lat="46.83401" lon="12.26965">
        <ele>1721.86</ele>
        <time>2017-02-26T15:39:38Z</time>
      </trkpt>
      <trkpt lat="46.83403" lon="12.2697">
        <ele>1720.9</ele>
        <time>2017-02-26T15:39:39Z</time>
      </trkpt>
      <trkpt lat="46.83405" lon="12.26975">
        <ele>1719.94</ele>
        <time>2017-02-26T15:39:40Z</time>
      </trkpt>
      <trkpt lat="46.83405" lon="12.26981">
        <ele>1719.46</ele>
        <time>2017-02-26T15:39:41Z</time>
      </trkpt>
      <trkpt lat="46.83405" lon="12.26988">
        <ele>1718.97</ele>
        <time>2017-02-26T15:39:42Z</time>
      </trkpt>
      <trkpt lat="46.83405" lon="12.26996">
        <ele>1718.49</ele>
        <time>2017-02-26T15:39:43Z</time>
      </trkpt>
      <trkpt lat="46.83403" lon="12.27004">
        <ele>1717.53</ele>
        <time>2017-02-26T15:39:44Z</time>
      </trkpt>
      <trkpt lat="46.83398" lon="12.2703">
        <ele>1716.09</ele>
        <time>2017-02-26T15:39:51Z</time>
      </trkpt>
      <trkpt lat="46.83404" lon="12.27032">
        <ele>1716.09</ele>
        <time>2017-02-26T15:40:06Z</time>
      </trkpt>
      <trkpt lat="46.83406" lon="12.27031">
        <ele>1716.09</ele>
        <time>2017-02-26T15:40:07Z</time>
      </trkpt>
      <trkpt lat="46.83408" lon="12.27028">
        <ele>1715.61</ele>
        <time>2017-02-26T15:40:08Z</time>
      </trkpt>
      <trkpt lat="46.83412" lon="12.27025">
        <ele>1715.61</ele>
        <time>2017-02-26T15:40:09Z</time>
      </trkpt>
      <trkpt lat="46.83424" lon="12.27016">
        <ele>1715.13</ele>
        <time>2017-02-26T15:40:20Z</time>
      </trkpt>
      <trkpt lat="46.83425" lon="12.27014">
        <ele>1715.13</ele>
        <time>2017-02-26T15:40:21Z</time>
      </trkpt>
      <trkpt lat="46.83444" lon="12.26986">
        <ele>1712.25</ele>
        <time>2017-02-26T15:40:30Z</time>
      </trkpt>
      <trkpt lat="46.83447" lon="12.26984">
        <ele>1711.76</ele>
        <time>2017-02-26T15:40:31Z</time>
      </trkpt>
      <trkpt lat="46.8345" lon="12.26983">
        <ele>1711.28</ele>
        <time>2017-02-26T15:40:32Z</time>
      </trkpt>
      <trkpt lat="46.83453" lon="12.26982">
        <ele>1711.28</ele>
        <time>2017-02-26T15:40:33Z</time>
      </trkpt>
      <trkpt lat="46.83454" lon="12.2698">
        <ele>1710.8</ele>
        <time>2017-02-26T15:40:34Z</time>
      </trkpt>
      <trkpt lat="46.83453" lon="12.26977">
        <ele>1710.32</ele>
        <time>2017-02-26T15:40:35Z</time>
      </trkpt>
      <trkpt lat="46.83449" lon="12.2697">
        <ele>1709.84</ele>
        <time>2017-02-26T15:40:37Z</time>
      </trkpt>
      <trkpt lat="46.83445" lon="12.26957">
        <ele>1707.92</ele>
        <time>2017-02-26T15:40:40Z</time>
      </trkpt>
      <trkpt lat="46.83447" lon="12.26953">
        <ele>1707.44</ele>
        <time>2017-02-26T15:40:41Z</time>
      </trkpt>
      <trkpt lat="46.8345" lon="12.26944">
        <ele>1706.48</ele>
        <time>2017-02-26T15:40:43Z</time>
      </trkpt>
      <trkpt lat="46.83448" lon="12.26931">
        <ele>1704.55</ele>
        <time>2017-02-26T15:40:46Z</time>
      </trkpt>
      <trkpt lat="46.83456" lon="12.26914">
        <ele>1701.67</ele>
        <time>2017-02-26T15:40:51Z</time>
      </trkpt>
      <trkpt lat="46.83463" lon="12.26916">
        <ele>1701.19</ele>
        <time>2017-02-26T15:41:05Z</time>
      </trkpt>
      <trkpt lat="46.83462" lon="12.26914">
        <ele>1700.71</ele>
        <time>2017-02-26T15:41:11Z</time>
      </trkpt>
      <trkpt lat="46.8346" lon="12.26909">
        <ele>1700.71</ele>
        <time>2017-02-26T15:41:13Z</time>
      </trkpt>
      <trkpt lat="46.83457" lon="12.26885">
        <ele>1697.34</ele>
        <time>2017-02-26T15:41:19Z</time>
      </trkpt>
      <trkpt lat="46.8346" lon="12.26858">
        <ele>1693.02</ele>
        <time>2017-02-26T15:41:24Z</time>
      </trkpt>
      <trkpt lat="46.8346" lon="12.26838">
        <ele>1690.14</ele>
        <time>2017-02-26T15:41:29Z</time>
      </trkpt>
      <trkpt lat="46.83455" lon="12.26835">
        <ele>1689.65</ele>
        <time>2017-02-26T15:41:30Z</time>
      </trkpt>
      <trkpt lat="46.83451" lon="12.26829">
        <ele>1688.21</ele>
        <time>2017-02-26T15:41:32Z</time>
      </trkpt>
      <trkpt lat="46.83438" lon="12.26821">
        <ele>1686.77</ele>
        <time>2017-02-26T15:41:40Z</time>
      </trkpt>
      <trkpt lat="46.83438" lon="12.26824">
        <ele>1687.25</ele>
        <time>2017-02-26T15:41:57Z</time>
      </trkpt>
      <trkpt lat="46.83439" lon="12.26822">
        <ele>1686.77</ele>
        <time>2017-02-26T15:42:16Z</time>
      </trkpt>
      <trkpt lat="46.83442" lon="12.26826">
        <ele>1686.77</ele>
        <time>2017-02-26T15:42:31Z</time>
      </trkpt>
      <trkpt lat="46.83445" lon="12.26827">
        <ele>1686.29</ele>
        <time>2017-02-26T15:42:54Z</time>
      </trkpt>
      <trkpt lat="46.83442" lon="12.26824">
        <ele>1686.29</ele>
        <time>2017-02-26T15:43:11Z</time>
      </trkpt>
      <trkpt lat="46.8344" lon="12.26826">
        <ele>1686.29</ele>
        <time>2017-02-26T15:43:31Z</time>
      </trkpt>
      <trkpt lat="46.83444" lon="12.26824">
        <ele>1686.29</ele>
        <time>2017-02-26T15:43:48Z</time>
      </trkpt>
      <trkpt lat="46.83424" lon="12.26805">
        <ele>1683.41</ele>
        <time>2017-02-26T15:43:56Z</time>
      </trkpt>
      <trkpt lat="46.83413" lon="12.26782">
        <ele>1680.04</ele>
        <time>2017-02-26T15:44:04Z</time>
      </trkpt>
      <trkpt lat="46.83408" lon="12.26752">
        <ele>1677.16</ele>
        <time>2017-02-26T15:44:13Z</time>
      </trkpt>
      <trkpt lat="46.83415" lon="12.26729">
        <ele>1673.79</ele>
        <time>2017-02-26T15:44:20Z</time>
      </trkpt>
      <trkpt lat="46.83419" lon="12.26721">
        <ele>1672.83</ele>
        <time>2017-02-26T15:44:22Z</time>
      </trkpt>
      <trkpt lat="46.83421" lon="12.26718">
        <ele>1672.35</ele>
        <time>2017-02-26T15:44:23Z</time>
      </trkpt>
      <trkpt lat="46.83423" lon="12.26716">
        <ele>1671.87</ele>
        <time>2017-02-26T15:44:24Z</time>
      </trkpt>
      <trkpt lat="46.83424" lon="12.26715">
        <ele>1671.39</ele>
        <time>2017-02-26T15:44:25Z</time>
      </trkpt>
      <trkpt lat="46.83426" lon="12.26715">
        <ele>1670.91</ele>
        <time>2017-02-26T15:44:26Z</time>
      </trkpt>
      <trkpt lat="46.83426" lon="12.26718">
        <ele>1670.43</ele>
        <time>2017-02-26T15:44:38Z</time>
      </trkpt>
      <trkpt lat="46.83428" lon="12.26714">
        <ele>1670.91</ele>
        <time>2017-02-26T15:45:02Z</time>
      </trkpt>
      <trkpt lat="46.8343" lon="12.26715">
        <ele>1670.43</ele>
        <time>2017-02-26T15:45:25Z</time>
      </trkpt>
      <trkpt lat="46.83431" lon="12.26714">
        <ele>1670.43</ele>
        <time>2017-02-26T15:45:26Z</time>
      </trkpt>
      <trkpt lat="46.83428" lon="12.26707">
        <ele>1669.95</ele>
        <time>2017-02-26T15:45:30Z</time>
      </trkpt>
      <trkpt lat="46.83411" lon="12.26687">
        <ele>1666.58</ele>
        <time>2017-02-26T15:45:44Z</time>
      </trkpt>
      <trkpt lat="46.83412" lon="12.26689">
        <ele>1666.58</ele>
        <time>2017-02-26T15:46:07Z</time>
      </trkpt>
      <trkpt lat="46.8341" lon="12.26686">
        <ele>1666.58</ele>
        <time>2017-02-26T15:46:10Z</time>
      </trkpt>
      <trkpt lat="46.8341" lon="12.26683">
        <ele>1666.1</ele>
        <time>2017-02-26T15:46:11Z</time>
      </trkpt>
      <trkpt lat="46.83411" lon="12.26681">
        <ele>1666.1</ele>
        <time>2017-02-26T15:46:12Z</time>
      </trkpt>
      <trkpt lat="46.83411" lon="12.26677">
        <ele>1665.62</ele>
        <time>2017-02-26T15:46:13Z</time>
      </trkpt>
      <trkpt lat="46.83412" lon="12.26674">
        <ele>1665.62</ele>
        <time>2017-02-26T15:46:14Z</time>
      </trkpt>
      <trkpt lat="46.83412" lon="12.2667">
        <ele>1665.62</ele>
        <time>2017-02-26T15:46:15Z</time>
      </trkpt>
      <trkpt lat="46.83413" lon="12.26666">
        <ele>1665.14</ele>
        <time>2017-02-26T15:46:16Z</time>
      </trkpt>
      <trkpt lat="46.83422" lon="12.26634">
        <ele>1661.3</ele>
        <time>2017-02-26T15:46:25Z</time>
      </trkpt>
      <trkpt lat="46.83425" lon="12.26622">
        <ele>1659.85</ele>
        <time>2017-02-26T15:46:28Z</time>
      </trkpt>
      <trkpt lat="46.83433" lon="12.26599">
        <ele>1656.49</ele>
        <time>2017-02-26T15:46:33Z</time>
      </trkpt>
      <trkpt lat="46.83437" lon="12.26583">
        <ele>1654.09</ele>
        <time>2017-02-26T15:46:36Z</time>
      </trkpt>
      <trkpt lat="46.83437" lon="12.26577">
        <ele>1653.12</ele>
        <time>2017-02-26T15:46:37Z</time>
      </trkpt>
      <trkpt lat="46.83436" lon="12.26571">
        <ele>1652.64</ele>
        <time>2017-02-26T15:46:38Z</time>
      </trkpt>
      <trkpt lat="46.83435" lon="12.26566">
        <ele>1652.16</ele>
        <time>2017-02-26T15:46:39Z</time>
      </trkpt>
      <trkpt lat="46.83433" lon="12.26561">
        <ele>1651.2</ele>
        <time>2017-02-26T15:46:40Z</time>
      </trkpt>
      <trkpt lat="46.83431" lon="12.26558">
        <ele>1650.72</ele>
        <time>2017-02-26T15:46:41Z</time>
      </trkpt>
      <trkpt lat="46.83429" lon="12.26557">
        <ele>1650.72</ele>
        <time>2017-02-26T15:46:42Z</time>
      </trkpt>
      <trkpt lat="46.83426" lon="12.26562">
        <ele>1650.24</ele>
        <time>2017-02-26T15:46:53Z</time>
      </trkpt>
      <trkpt lat="46.83426" lon="12.26557">
        <ele>1650.24</ele>
        <time>2017-02-26T15:47:20Z</time>
      </trkpt>
      <trkpt lat="46.83424" lon="12.26557">
        <ele>1650.24</ele>
        <time>2017-02-26T15:47:23Z</time>
      </trkpt>
      <trkpt lat="46.83423" lon="12.26556">
        <ele>1649.76</ele>
        <time>2017-02-26T15:47:24Z</time>
      </trkpt>
      <trkpt lat="46.83421" lon="12.26555">
        <ele>1649.76</ele>
        <time>2017-02-26T15:47:25Z</time>
      </trkpt>
      <trkpt lat="46.83419" lon="12.26552">
        <ele>1649.76</ele>
        <time>2017-02-26T15:47:26Z</time>
      </trkpt>
      <trkpt lat="46.83418" lon="12.26548">
        <ele>1649.28</ele>
        <time>2017-02-26T15:47:27Z</time>
      </trkpt>
      <trkpt lat="46.83417" lon="12.26544">
        <ele>1649.28</ele>
        <time>2017-02-26T15:47:28Z</time>
      </trkpt>
      <trkpt lat="46.83415" lon="12.2654">
        <ele>1648.32</ele>
        <time>2017-02-26T15:47:29Z</time>
      </trkpt>
      <trkpt lat="46.83413" lon="12.26535">
        <ele>1647.84</ele>
        <time>2017-02-26T15:47:30Z</time>
      </trkpt>
      <trkpt lat="46.83413" lon="12.26531">
        <ele>1647.84</ele>
        <time>2017-02-26T15:47:31Z</time>
      </trkpt>
      <trkpt lat="46.83412" lon="12.26525">
        <ele>1647.36</ele>
        <time>2017-02-26T15:47:32Z</time>
      </trkpt>
      <trkpt lat="46.83411" lon="12.2652">
        <ele>1646.88</ele>
        <time>2017-02-26T15:47:33Z</time>
      </trkpt>
      <trkpt lat="46.83411" lon="12.26515">
        <ele>1646.4</ele>
        <time>2017-02-26T15:47:34Z</time>
      </trkpt>
      <trkpt lat="46.83411" lon="12.26509">
        <ele>1645.91</ele>
        <time>2017-02-26T15:47:35Z</time>
      </trkpt>
      <trkpt lat="46.8341" lon="12.26504">
        <ele>1645.43</ele>
        <time>2017-02-26T15:47:36Z</time>
      </trkpt>
      <trkpt lat="46.83411" lon="12.26498">
        <ele>1644.95</ele>
        <time>2017-02-26T15:47:37Z</time>
      </trkpt>
      <trkpt lat="46.83411" lon="12.26492">
        <ele>1644.47</ele>
        <time>2017-02-26T15:47:38Z</time>
      </trkpt>
      <trkpt lat="46.83411" lon="12.26487">
        <ele>1643.99</ele>
        <time>2017-02-26T15:47:39Z</time>
      </trkpt>
      <trkpt lat="46.83413" lon="12.26482">
        <ele>1643.51</ele>
        <time>2017-02-26T15:47:40Z</time>
      </trkpt>
      <trkpt lat="46.83414" lon="12.26477">
        <ele>1643.03</ele>
        <time>2017-02-26T15:47:41Z</time>
      </trkpt>
      <trkpt lat="46.83415" lon="12.26472">
        <ele>1642.07</ele>
        <time>2017-02-26T15:47:42Z</time>
      </trkpt>
      <trkpt lat="46.83417" lon="12.26467">
        <ele>1641.59</ele>
        <time>2017-02-26T15:47:43Z</time>
      </trkpt>
      <trkpt lat="46.83418" lon="12.26463">
        <ele>1641.11</ele>
        <time>2017-02-26T15:47:44Z</time>
      </trkpt>
      <trkpt lat="46.8342" lon="12.26458">
        <ele>1640.63</ele>
        <time>2017-02-26T15:47:45Z</time>
      </trkpt>
      <trkpt lat="46.83421" lon="12.26453">
        <ele>1639.67</ele>
        <time>2017-02-26T15:47:46Z</time>
      </trkpt>
      <trkpt lat="46.83423" lon="12.26449">
        <ele>1639.19</ele>
        <time>2017-02-26T15:47:47Z</time>
      </trkpt>
      <trkpt lat="46.83424" lon="12.26445">
        <ele>1638.7</ele>
        <time>2017-02-26T15:47:48Z</time>
      </trkpt>
      <trkpt lat="46.83426" lon="12.26441">
        <ele>1638.22</ele>
        <time>2017-02-26T15:47:49Z</time>
      </trkpt>
      <trkpt lat="46.83428" lon="12.26438">
        <ele>1637.74</ele>
        <time>2017-02-26T15:47:50Z</time>
      </trkpt>
      <trkpt lat="46.8343" lon="12.26434">
        <ele>1637.26</ele>
        <time>2017-02-26T15:47:51Z</time>
      </trkpt>
      <trkpt lat="46.83431" lon="12.26431">
        <ele>1636.3</ele>
        <time>2017-02-26T15:47:52Z</time>
      </trkpt>
      <trkpt lat="46.83435" lon="12.26433">
        <ele>1636.3</ele>
        <time>2017-02-26T15:48:03Z</time>
      </trkpt>
      <trkpt lat="46.83435" lon="12.26431">
        <ele>1635.82</ele>
        <time>2017-02-26T15:48:08Z</time>
      </trkpt>
      <trkpt lat="46.83436" lon="12.26429">
        <ele>1637.26</ele>
        <time>2017-02-26T15:48:09Z</time>
      </trkpt>
      <trkpt lat="46.83439" lon="12.26415">
        <ele>1634.86</ele>
        <time>2017-02-26T15:48:12Z</time>
      </trkpt>
      <trkpt lat="46.83442" lon="12.2641">
        <ele>1634.38</ele>
        <time>2017-02-26T15:48:13Z</time>
      </trkpt>
      <trkpt lat="46.83445" lon="12.26404">
        <ele>1633.42</ele>
        <time>2017-02-26T15:48:14Z</time>
      </trkpt>
      <trkpt lat="46.83448" lon="12.26397">
        <ele>1632.94</ele>
        <time>2017-02-26T15:48:15Z</time>
      </trkpt>
      <trkpt lat="46.83453" lon="12.26392">
        <ele>1631.98</ele>
        <time>2017-02-26T15:48:16Z</time>
      </trkpt>
      <trkpt lat="46.83457" lon="12.26386">
        <ele>1631.01</ele>
        <time>2017-02-26T15:48:17Z</time>
      </trkpt>
      <trkpt lat="46.83462" lon="12.2638">
        <ele>1630.05</ele>
        <time>2017-02-26T15:48:18Z</time>
      </trkpt>
      <trkpt lat="46.83467" lon="12.26375">
        <ele>1629.57</ele>
        <time>2017-02-26T15:48:19Z</time>
      </trkpt>
      <trkpt lat="46.83471" lon="12.26369">
        <ele>1628.13</ele>
        <time>2017-02-26T15:48:20Z</time>
      </trkpt>
      <trkpt lat="46.83474" lon="12.26363">
        <ele>1626.69</ele>
        <time>2017-02-26T15:48:21Z</time>
      </trkpt>
      <trkpt lat="46.83477" lon="12.26358">
        <ele>1626.21</ele>
        <time>2017-02-26T15:48:22Z</time>
      </trkpt>
      <trkpt lat="46.83479" lon="12.26353">
        <ele>1624.77</ele>
        <time>2017-02-26T15:48:23Z</time>
      </trkpt>
      <trkpt lat="46.83481" lon="12.26347">
        <ele>1624.77</ele>
        <time>2017-02-26T15:48:24Z</time>
      </trkpt>
      <trkpt lat="46.83484" lon="12.26343">
        <ele>1623.8</ele>
        <time>2017-02-26T15:48:25Z</time>
      </trkpt>
      <trkpt lat="46.83492" lon="12.26324">
        <ele>1621.4</ele>
        <time>2017-02-26T15:48:30Z</time>
      </trkpt>
      <trkpt lat="46.83499" lon="12.26303">
        <ele>1618.04</ele>
        <time>2017-02-26T15:48:35Z</time>
      </trkpt>
      <trkpt lat="46.83499" lon="12.26301">
        <ele>1617.56</ele>
        <time>2017-02-26T15:48:36Z</time>
      </trkpt>
      <trkpt lat="46.835" lon="12.26299">
        <ele>1617.07</ele>
        <time>2017-02-26T15:48:40Z</time>
      </trkpt>
      <trkpt lat="46.83501" lon="12.26297">
        <ele>1617.07</ele>
        <time>2017-02-26T15:48:41Z</time>
      </trkpt>
      <trkpt lat="46.83502" lon="12.26295">
        <ele>1617.07</ele>
        <time>2017-02-26T15:48:42Z</time>
      </trkpt>
      <trkpt lat="46.83504" lon="12.26292">
        <ele>1616.59</ele>
        <time>2017-02-26T15:48:43Z</time>
      </trkpt>
      <trkpt lat="46.83506" lon="12.26289">
        <ele>1616.11</ele>
        <time>2017-02-26T15:48:44Z</time>
      </trkpt>
      <trkpt lat="46.83508" lon="12.26285">
        <ele>1615.63</ele>
        <time>2017-02-26T15:48:45Z</time>
      </trkpt>
      <trkpt lat="46.8351" lon="12.2628">
        <ele>1615.15</ele>
        <time>2017-02-26T15:48:46Z</time>
      </trkpt>
      <trkpt lat="46.83513" lon="12.26273">
        <ele>1614.67</ele>
        <time>2017-02-26T15:48:47Z</time>
      </trkpt>
      <trkpt lat="46.83516" lon="12.26267">
        <ele>1613.71</ele>
        <time>2017-02-26T15:48:48Z</time>
      </trkpt>
      <trkpt lat="46.83519" lon="12.26261">
        <ele>1613.71</ele>
        <time>2017-02-26T15:48:49Z</time>
      </trkpt>
      <trkpt lat="46.83522" lon="12.26255">
        <ele>1612.75</ele>
        <time>2017-02-26T15:48:50Z</time>
      </trkpt>
      <trkpt lat="46.83525" lon="12.26248">
        <ele>1611.79</ele>
        <time>2017-02-26T15:48:51Z</time>
      </trkpt>
      <trkpt lat="46.83528" lon="12.2624">
        <ele>1611.31</ele>
        <time>2017-02-26T15:48:52Z</time>
      </trkpt>
      <trkpt lat="46.8353" lon="12.26232">
        <ele>1610.35</ele>
        <time>2017-02-26T15:48:53Z</time>
      </trkpt>
      <trkpt lat="46.83532" lon="12.26225">
        <ele>1609.38</ele>
        <time>2017-02-26T15:48:54Z</time>
      </trkpt>
      <trkpt lat="46.83535" lon="12.26217">
        <ele>1608.42</ele>
        <time>2017-02-26T15:48:55Z</time>
      </trkpt>
      <trkpt lat="46.83537" lon="12.2621">
        <ele>1607.46</ele>
        <time>2017-02-26T15:48:56Z</time>
      </trkpt>
      <trkpt lat="46.8354" lon="12.26203">
        <ele>1606.5</ele>
        <time>2017-02-26T15:48:57Z</time>
      </trkpt>
      <trkpt lat="46.83542" lon="12.26197">
        <ele>1605.54</ele>
        <time>2017-02-26T15:48:58Z</time>
      </trkpt>
      <trkpt lat="46.83545" lon="12.26191">
        <ele>1605.06</ele>
        <time>2017-02-26T15:48:59Z</time>
      </trkpt>
      <trkpt lat="46.83546" lon="12.26187">
        <ele>1604.1</ele>
        <time>2017-02-26T15:49:00Z</time>
      </trkpt>
      <trkpt lat="46.83546" lon="12.26183">
        <ele>1603.62</ele>
        <time>2017-02-26T15:49:01Z</time>
      </trkpt>
      <trkpt lat="46.83543" lon="12.26189">
        <ele>1603.62</ele>
        <time>2017-02-26T15:49:12Z</time>
      </trkpt>
      <trkpt lat="46.83545" lon="12.26189">
        <ele>1603.62</ele>
        <time>2017-02-26T15:49:15Z</time>
      </trkpt>
      <trkpt lat="46.83547" lon="12.26186">
        <ele>1603.14</ele>
        <time>2017-02-26T15:49:16Z</time>
      </trkpt>
      <trkpt lat="46.83548" lon="12.26182">
        <ele>1603.14</ele>
        <time>2017-02-26T15:49:17Z</time>
      </trkpt>
      <trkpt lat="46.8355" lon="12.26178">
        <ele>1603.14</ele>
        <time>2017-02-26T15:49:18Z</time>
      </trkpt>
      <trkpt lat="46.83553" lon="12.26174">
        <ele>1602.66</ele>
        <time>2017-02-26T15:49:19Z</time>
      </trkpt>
      <trkpt lat="46.83556" lon="12.26169">
        <ele>1602.66</ele>
        <time>2017-02-26T15:49:20Z</time>
      </trkpt>
      <trkpt lat="46.8356" lon="12.26164">
        <ele>1601.21</ele>
        <time>2017-02-26T15:49:21Z</time>
      </trkpt>
      <trkpt lat="46.83563" lon="12.26158">
        <ele>1600.25</ele>
        <time>2017-02-26T15:49:22Z</time>
      </trkpt>
      <trkpt lat="46.83568" lon="12.26154">
        <ele>1600.25</ele>
        <time>2017-02-26T15:49:23Z</time>
      </trkpt>
      <trkpt lat="46.83572" lon="12.26149">
        <ele>1599.29</ele>
        <time>2017-02-26T15:49:24Z</time>
      </trkpt>
      <trkpt lat="46.83576" lon="12.26143">
        <ele>1598.33</ele>
        <time>2017-02-26T15:49:25Z</time>
      </trkpt>
      <trkpt lat="46.83594" lon="12.26125">
        <ele>1594.96</ele>
        <time>2017-02-26T15:49:29Z</time>
      </trkpt>
      <trkpt lat="46.83608" lon="12.26111">
        <ele>1592.08</ele>
        <time>2017-02-26T15:49:33Z</time>
      </trkpt>
      <trkpt lat="46.83619" lon="12.26097">
        <ele>1589.2</ele>
        <time>2017-02-26T15:49:38Z</time>
      </trkpt>
      <trkpt lat="46.83626" lon="12.26091">
        <ele>1587.75</ele>
        <time>2017-02-26T15:49:49Z</time>
      </trkpt>
      <trkpt lat="46.83622" lon="12.26091">
        <ele>1588.72</ele>
        <time>2017-02-26T15:50:00Z</time>
      </trkpt>
      <trkpt lat="46.83626" lon="12.26065">
        <ele>1585.83</ele>
        <time>2017-02-26T15:50:09Z</time>
      </trkpt>
      <trkpt lat="46.8363" lon="12.26037">
        <ele>1581.99</ele>
        <time>2017-02-26T15:50:13Z</time>
      </trkpt>
      <trkpt lat="46.8363" lon="12.2603">
        <ele>1581.99</ele>
        <time>2017-02-26T15:50:14Z</time>
      </trkpt>
      <trkpt lat="46.83636" lon="12.26014">
        <ele>1580.54</ele>
        <time>2017-02-26T15:50:16Z</time>
      </trkpt>
      <trkpt lat="46.83641" lon="12.26006">
        <ele>1579.1</ele>
        <time>2017-02-26T15:50:17Z</time>
      </trkpt>
      <trkpt lat="46.83646" lon="12.25998">
        <ele>1578.62</ele>
        <time>2017-02-26T15:50:18Z</time>
      </trkpt>
      <trkpt lat="46.83651" lon="12.25989">
        <ele>1577.18</ele>
        <time>2017-02-26T15:50:19Z</time>
      </trkpt>
      <trkpt lat="46.83657" lon="12.25978">
        <ele>1576.22</ele>
        <time>2017-02-26T15:50:20Z</time>
      </trkpt>
      <trkpt lat="46.83679" lon="12.25937">
        <ele>1572.85</ele>
        <time>2017-02-26T15:50:24Z</time>
      </trkpt>
      <trkpt lat="46.83691" lon="12.25912">
        <ele>1570.45</ele>
        <time>2017-02-26T15:50:28Z</time>
      </trkpt>
      <trkpt lat="46.83705" lon="12.25881">
        <ele>1568.53</ele>
        <time>2017-02-26T15:50:37Z</time>
      </trkpt>
      <trkpt lat="46.83707" lon="12.25875">
        <ele>1568.05</ele>
        <time>2017-02-26T15:50:38Z</time>
      </trkpt>
      <trkpt lat="46.83709" lon="12.25869">
        <ele>1567.09</ele>
        <time>2017-02-26T15:50:39Z</time>
      </trkpt>
      <trkpt lat="46.83716" lon="12.25831">
        <ele>1563.24</ele>
        <time>2017-02-26T15:50:44Z</time>
      </trkpt>
      <trkpt lat="46.83723" lon="12.258">
        <ele>1560.36</ele>
        <time>2017-02-26T15:50:48Z</time>
      </trkpt>
      <trkpt lat="46.83724" lon="12.25793">
        <ele>1559.88</ele>
        <time>2017-02-26T15:50:49Z</time>
      </trkpt>
      <trkpt lat="46.83726" lon="12.25787">
        <ele>1559.4</ele>
        <time>2017-02-26T15:50:50Z</time>
      </trkpt>
      <trkpt lat="46.83728" lon="12.25781">
        <ele>1558.43</ele>
        <time>2017-02-26T15:50:51Z</time>
      </trkpt>
      <trkpt lat="46.83731" lon="12.25776">
        <ele>1557.95</ele>
        <time>2017-02-26T15:50:52Z</time>
      </trkpt>
      <trkpt lat="46.83739" lon="12.25756">
        <ele>1554.59</ele>
        <time>2017-02-26T15:50:55Z</time>
      </trkpt>
      <trkpt lat="46.83741" lon="12.25749">
        <ele>1554.11</ele>
        <time>2017-02-26T15:50:56Z</time>
      </trkpt>
      <trkpt lat="46.83752" lon="12.25709">
        <ele>1550.26</ele>
        <time>2017-02-26T15:51:01Z</time>
      </trkpt>
      <trkpt lat="46.8376" lon="12.25662">
        <ele>1546.9</ele>
        <time>2017-02-26T15:51:06Z</time>
      </trkpt>
      <trkpt lat="46.83772" lon="12.25631">
        <ele>1544.5</ele>
        <time>2017-02-26T15:51:11Z</time>
      </trkpt>
      <trkpt lat="46.83778" lon="12.2562">
        <ele>1543.05</ele>
        <time>2017-02-26T15:51:13Z</time>
      </trkpt>
      <trkpt lat="46.83785" lon="12.2561">
        <ele>1542.57</ele>
        <time>2017-02-26T15:51:15Z</time>
      </trkpt>
      <trkpt lat="46.83788" lon="12.25604">
        <ele>1542.09</ele>
        <time>2017-02-26T15:51:16Z</time>
      </trkpt>
      <trkpt lat="46.83793" lon="12.25591">
        <ele>1540.65</ele>
        <time>2017-02-26T15:51:18Z</time>
      </trkpt>
      <trkpt lat="46.83799" lon="12.2558">
        <ele>1539.69</ele>
        <time>2017-02-26T15:51:20Z</time>
      </trkpt>
      <trkpt lat="46.83802" lon="12.25574">
        <ele>1539.69</ele>
        <time>2017-02-26T15:51:21Z</time>
      </trkpt>
      <trkpt lat="46.83806" lon="12.25569">
        <ele>1539.21</ele>
        <time>2017-02-26T15:51:22Z</time>
      </trkpt>
      <trkpt lat="46.8381" lon="12.25564">
        <ele>1538.25</ele>
        <time>2017-02-26T15:51:23Z</time>
      </trkpt>
      <trkpt lat="46.83814" lon="12.25558">
        <ele>1537.77</ele>
        <time>2017-02-26T15:51:24Z</time>
      </trkpt>
      <trkpt lat="46.83818" lon="12.25553">
        <ele>1537.29</ele>
        <time>2017-02-26T15:51:25Z</time>
      </trkpt>
      <trkpt lat="46.83822" lon="12.25547">
        <ele>1536.8</ele>
        <time>2017-02-26T15:51:26Z</time>
      </trkpt>
      <trkpt lat="46.83824" lon="12.25542">
        <ele>1535.84</ele>
        <time>2017-02-26T15:51:27Z</time>
      </trkpt>
      <trkpt lat="46.83827" lon="12.25536">
        <ele>1535.84</ele>
        <time>2017-02-26T15:51:28Z</time>
      </trkpt>
      <trkpt lat="46.83829" lon="12.2553">
        <ele>1535.36</ele>
        <time>2017-02-26T15:51:29Z</time>
      </trkpt>
      <trkpt lat="46.83832" lon="12.25525">
        <ele>1534.88</ele>
        <time>2017-02-26T15:51:30Z</time>
      </trkpt>
      <trkpt lat="46.83834" lon="12.25519">
        <ele>1534.4</ele>
        <time>2017-02-26T15:51:31Z</time>
      </trkpt>
      <trkpt lat="46.83836" lon="12.25516">
        <ele>1533.44</ele>
        <time>2017-02-26T15:51:32Z</time>
      </trkpt>
      <trkpt lat="46.83838" lon="12.25516">
        <ele>1532.96</ele>
        <time>2017-02-26T15:51:33Z</time>
      </trkpt>
      <trkpt lat="46.83838" lon="12.25521">
        <ele>1532.96</ele>
        <time>2017-02-26T15:51:45Z</time>
      </trkpt>
      <trkpt lat="46.83842" lon="12.25518">
        <ele>1532.48</ele>
        <time>2017-02-26T15:52:03Z</time>
      </trkpt>
      <trkpt lat="46.83842" lon="12.25521">
        <ele>1532.48</ele>
        <time>2017-02-26T15:52:23Z</time>
      </trkpt>
      <trkpt lat="46.83845" lon="12.25521">
        <ele>1532.96</ele>
        <time>2017-02-26T15:52:45Z</time>
      </trkpt>
      <trkpt lat="46.83845" lon="12.25519">
        <ele>1532.96</ele>
        <time>2017-02-26T15:53:05Z</time>
      </trkpt>
      <trkpt lat="46.8385" lon="12.25517">
        <ele>1532.96</ele>
        <time>2017-02-26T15:53:20Z</time>
      </trkpt>
      <trkpt lat="46.83847" lon="12.25516">
        <ele>1532.96</ele>
        <time>2017-02-26T15:53:37Z</time>
      </trkpt>
      <trkpt lat="46.83846" lon="12.25517">
        <ele>1532.96</ele>
        <time>2017-02-26T15:53:48Z</time>
      </trkpt>
      <trkpt lat="46.83847" lon="12.25518">
        <ele>1532</ele>
        <time>2017-02-26T15:54:05Z</time>
      </trkpt>
      <trkpt lat="46.83846" lon="12.2552">
        <ele>1532</ele>
        <time>2017-02-26T15:54:34Z</time>
      </trkpt>
      <trkpt lat="46.83848" lon="12.25516">
        <ele>1532</ele>
        <time>2017-02-26T15:55:03Z</time>
      </trkpt>
      <trkpt lat="46.83845" lon="12.25518">
        <ele>1532.48</ele>
        <time>2017-02-26T15:55:22Z</time>
      </trkpt>
      <trkpt lat="46.83846" lon="12.25519">
        <ele>1532.96</ele>
        <time>2017-02-26T15:55:33Z</time>
      </trkpt>
      <trkpt lat="46.83846" lon="12.25518">
        <ele>1525.27</ele>
        <time>2017-02-26T15:55:41Z</time>
      </trkpt>
      <trkpt lat="46.83845" lon="12.25518">
        <ele>1533.92</ele>
        <time>2017-02-26T15:55:42Z</time>
      </trkpt>
      <trkpt lat="46.83842" lon="12.25517">
        <ele>1532.48</ele>
        <time>2017-02-26T15:56:12Z</time>
      </trkpt>
      <trkpt lat="46.83841" lon="12.25519">
        <ele>1532</ele>
        <time>2017-02-26T15:56:40Z</time>
      </trkpt>
      <trkpt lat="46.83841" lon="12.25517">
        <ele>1531.04</ele>
        <time>2017-02-26T15:57:03Z</time>
      </trkpt>
    </trkseg>
  </trk>
</gpx>